GFSSGP_700_rhum_003.txt.gz
RH
6 8 10 20 26 23 23 27 35 73 83 89 92 85 78 67 87 76 54 56 63 66 65 66 60 61 62 56 55 43 41 43 32 29 24 21 12 3 5 11 21 25 25 25 25 24 25 24 23
2 4 2 13 23 20 24 27 52 71 87 98 95 97 92 84 78 84 78 69 65 62 61 61 61 67 63 58 48 39 41 36 26 21 17 13 2 6 16 24 25 24 24 25 26 25 24 23 22
3 7 3 7 11 14 28 52 62 66 76 76 79 87 78 77 76 87 76 72 66 58 55 59 64 66 59 53 38 36 34 26 23 20 14 4 10 19 25 26 26 28 30 30 30 30 29 26 22
18 13 9 15 13 9 24 61 59 67 67 77 77 61 54 76 64 67 84 88 82 60 63 61 64 61 57 42 37 27 27 27 19 12 5 11 20 26 26 29 32 33 32 34 35 35 35 33 30
19 12 14 12 12 28 18 56 57 54 58 61 53 45 54 55 51 77 80 78 71 70 62 59 59 54 44 43 28 30 29 16 4 4 13 21 26 27 31 33 34 35 35 38 39 40 40 41 40
6 12 12 20 28 41 38 32 59 65 56 58 53 46 51 48 49 67 73 70 65 59 54 50 45 42 36 24 33 26 14 3 6 19 24 27 28 32 33 36 40 41 42 43 44 45 41 44 46
5 8 18 27 44 40 42 49 65 67 41 46 57 52 42 51 57 72 64 70 60 54 49 44 25 19 26 30 25 7 6 19 25 27 30 31 33 36 40 41 42 43 44 46 46 46 47 49 51
19 15 25 38 41 44 59 69 65 60 43 32 58 47 29 34 55 69 69 62 50 41 17 17 22 18 7 7 6 17 29 28 29 34 34 35 37 40 40 42 44 47 47 49 48 47 47 48 54
23 21 35 40 39 52 54 49 45 54 48 56 51 37 19 28 39 55 43 30 17 14 21 21 15 4 8 15 28 32 30 31 37 38 38 39 41 40 41 42 42 45 48 52 50 55 54 47 50
18 22 35 40 38 41 32 41 40 53 47 49 43 38 26 25 28 30 26 23 23 25 24 16 13 19 29 33 34 35 36 38 40 40 42 44 45 44 45 45 44 44 42 43 48 58 57 50 51
19 15 38 30 28 31 32 26 34 46 41 16 28 30 21 16 28 30 27 25 25 28 30 20 26 33 37 39 42 43 42 42 43 45 46 48 49 54 59 54 52 50 45 49 60 58 54 46 41
20 18 28 29 27 35 31 32 40 37 23 19 21 26 17 15 20 24 26 23 27 36 28 28 29 33 38 40 42 46 47 49 56 52 52 55 57 58 61 65 60 54 56 65 65 63 70 65 51
20 18 15 30 29 25 28 21 17 23 22 22 32 34 27 23 26 32 31 26 44 46 50 44 42 54 45 42 46 49 52 63 70 73 70 73 66 59 63 76 69 70 73 75 68 69 72 66 58
20 14 13 20 28 20 10 13 16 18 24 23 37 39 38 38 44 41 33 42 57 62 63 60 61 46 55 50 42 49 67 85 85 96 98 99 99 93 80 75 73 77 78 84 85 78 79 67 62
16 13 17 13 12 8 9 12 13 16 19 24 36 41 47 52 52 49 52 63 70 69 73 79 84 79 64 57 65 60 82 69 79 62 87 99 97 99 88 87 83 76 85 74 85 89 71 60 56
12 11 12 11 11 11 12 13 15 17 21 23 29 32 40 48 54 62 62 68 71 72 81 80 80 79 84 95 98 97 79 75 59 82 97 99 100 96 88 85 73 75 88 91 78 57 55 54 48
12 6 9 13 12 11 13 19 18 19 20 23 24 26 30 36 49 54 58 68 73 75 78 82 82 84 93 98 78 80 70 66 80 98 100 100 98 90 81 71 82 88 72 54 51 48 42 38 36
13 19 12 12 16 24 15 21 23 20 22 22 23 26 30 37 43 47 46 56 63 66 78 86 98 99 90 82 75 66 60 65 75 80 78 84 82 75 65 58 48 48 46 43 39 41 36 30 29
14 14 20 20 23 24 24 25 25 22 24 25 24 28 32 39 44 46 48 54 59 68 84 96 86 78 80 61 55 56 56 50 56 61 64 64 55 48 47 52 55 53 46 40 35 21 18 36 33
20 20 20 20 19 22 22 22 24 24 24 24 25 28 31 42 48 45 44 55 67 82 85 64 43 43 48 51 55 58 69 61 56 54 52 48 45 44 43 42 44 44 47 45 38 34 23 35 28
19 20 24 27 24 26 25 28 26 25 24 24 27 32 36 41 50 49 48 56 44 42 38 36 43 46 54 59 63 59 54 51 48 44 44 52 49 42 42 46 47 46 42 26 17 18 18 17 15
24 26 25 25 30 35 29 40 35 31 29 32 39 46 51 59 49 43 27 33 44 43 41 41 45 50 62 64 55 49 51 53 54 55 58 54 44 41 38 30 21 17 16 17 14 13 17 23 19
26 31 28 29 29 30 33 34 44 47 46 46 54 58 62 50 33 31 42 47 53 51 45 48 58 62 62 60 57 55 56 54 47 45 45 44 33 18 11 12 15 16 14 11 9 9 12 39 69
25 32 33 32 33 40 35 37 40 36 32 54 65 66 57 41 48 46 48 59 48 46 48 52 58 68 73 74 82 72 62 51 46 44 29 15 12 14 14 11 7 5 4 5 16 38 52 74 50
34 37 48 50 55 46 42 41 33 33 37 54 58 56 50 46 46 48 58 59 52 50 56 62 68 77 83 87 86 69 61 52 36 17 13 12 9 7 6 5 4 4 5 10 25 100 66 71 67
32 38 36 57 60 46 51 53 37 38 40 56 56 51 50 51 51 53 61 49 52 54 59 72 80 90 92 92 78 75 72 42 21 16 11 7 7 6 5 4 5 5 7 11 52 83 95 81 69
34 38 37 41 50 52 48 49 42 40 40 54 54 55 55 55 55 58 57 54 54 58 70 83 92 94 96 98 85 83 55 24 21 10 7 6 6 4 4 4 5 6 16 17 98 71 41 63 71
38 29 37 38 56 54 49 51 39 39 37 48 54 54 55 56 58 61 56 53 54 65 80 87 92 98 98 89 85 44 30 19 10 8 7 6 5 4 5 6 8 15 22 37 44 54 73 74 72
34 29 21 24 35 41 48 34 25 30 41 41 45 49 54 58 60 59 54 54 62 77 89 92 99 96 89 96 63 31 17 11 9 8 7 6 5 6 6 8 13 24 39 49 65 87 80 69 45
32 30 18 16 25 33 39 24 20 26 37 48 51 54 57 60 59 58 54 57 71 92 98 99 94 87 96 64 35 18 13 11 10 9 8 7 7 7 8 12 22 37 50 72 98 91 83 61 41

GFSSGP_700_rhum_006.txt.gz
RH
3 6 9 16 28 24 22 24 52 86 90 94 95 98 92 94 94 76 67 66 73 74 69 64 56 61 60 59 57 47 46 47 33 24 20 16 3 4 17 23 24 24 25 26 26 25 24 22 21
1 6 7 20 25 20 19 25 43 91 80 88 99 99 96 86 85 65 75 87 86 77 68 62 59 66 62 62 55 48 48 36 26 20 16 4 7 17 24 24 26 30 30 29 30 29 28 26 24
3 2 9 18 17 18 20 39 78 84 75 87 88 86 79 81 80 77 74 75 76 81 74 65 63 70 65 64 52 50 40 28 24 18 6 8 18 24 25 28 31 32 32 33 33 32 32 32 30
4 5 6 18 16 16 27 60 79 75 80 64 74 79 80 68 78 77 68 72 84 92 74 65 69 72 73 61 50 40 28 28 18 7 7 18 25 26 30 33 33 34 35 38 38 38 35 34 35
5 20 20 19 19 21 34 62 67 68 68 77 74 58 62 58 68 64 64 92 99 99 70 68 66 81 67 54 43 29 30 15 4 6 18 25 26 31 33 35 38 40 41 43 43 44 44 43 41
15 24 19 19 19 29 25 55 72 68 62 59 71 55 59 56 58 71 90 96 96 97 86 78 77 71 59 49 33 29 12 2 7 18 25 27 31 34 39 41 41 44 45 44 44 44 44 42 45
23 20 18 19 31 40 40 63 66 67 60 68 58 58 60 59 52 67 75 68 75 74 77 88 69 59 36 34 30 7 3 11 17 25 29 31 36 40 42 43 45 46 46 43 44 47 52 50 46
26 19 18 25 35 45 60 70 65 58 41 54 64 72 48 52 70 75 66 72 77 75 70 62 48 38 41 28 6 9 19 18 25 31 32 37 40 42 42 43 45 47 48 46 43 46 47 53 51
10 17 19 33 40 62 64 61 58 50 52 52 57 52 34 47 69 80 74 70 68 56 34 32 35 31 24 13 18 29 24 28 35 36 38 40 42 43 43 44 44 45 46 47 47 50 56 54 48
27 21 26 34 42 45 38 46 49 45 57 55 60 47 28 54 69 69 64 45 23 22 22 16 14 23 24 30 33 29 32 38 41 42 42 43 45 46 48 49 48 50 50 49 51 57 61 58 56
27 22 29 38 41 31 35 36 45 60 68 52 46 41 26 31 55 42 28 22 24 24 23 16 20 30 34 36 35 37 40 42 44 44 45 47 51 55 55 58 61 61 58 55 60 62 62 49 54
23 20 33 30 26 28 37 30 48 53 39 19 20 23 26 30 33 26 25 26 28 31 21 25 31 34 35 38 41 43 44 46 49 52 52 54 66 71 64 66 80 76 68 68 67 64 58 58 54
22 21 29 27 26 36 38 46 51 23 22 23 17 22 26 29 29 26 25 26 32 36 28 29 31 33 36 39 44 49 52 57 65 76 76 79 72 72 78 88 92 79 73 71 72 62 57 59 68
20 18 19 29 27 25 32 20 32 24 33 32 26 25 27 31 34 32 29 35 44 47 45 40 47 46 44 42 45 52 64 76 76 68 73 74 84 90 93 98 99 89 82 77 66 60 71 76 59
19 15 16 28 26 18 18 18 19 25 33 42 37 38 42 43 40 31 39 58 60 66 58 57 57 46 43 42 42 62 79 80 81 57 63 85 83 86 97 100 99 84 70 64 63 59 55 46 44
17 15 15 21 18 9 12 16 16 22 28 43 43 47 49 49 50 52 53 58 58 58 63 66 76 81 83 93 80 90 71 72 74 74 82 97 100 99 100 98 75 67 56 48 44 42 45 44 40
15 13 14 12 10 12 16 17 16 20 23 34 42 43 46 52 59 60 62 66 68 69 72 73 77 74 95 94 67 69 79 85 94 82 76 82 73 77 72 64 58 51 48 46 49 52 50 42 30
16 13 13 14 13 17 22 19 18 19 21 25 28 35 40 45 54 52 52 55 66 71 76 80 87 92 79 60 63 62 59 72 53 41 42 44 47 50 51 50 50 51 52 52 45 36 30 21 12
16 18 16 21 15 24 19 21 22 20 20 22 24 29 36 40 46 50 50 53 61 68 72 82 83 55 34 48 48 49 45 40 42 49 54 55 55 54 55 51 42 37 35 31 28 28 25 18 15
18 16 25 20 23 26 28 24 24 23 22 23 25 28 32 36 44 49 53 53 58 66 83 69 35 32 38 41 42 44 48 57 62 63 60 57 49 46 44 38 34 27 21 15 10 11 12 13 8
23 24 22 25 22 28 40 35 25 24 24 24 24 26 26 28 37 40 45 52 71 68 44 40 38 41 41 39 42 52 56 56 58 56 50 44 41 38 33 24 16 11 10 10 10 8 5 4 4
25 24 25 26 32 25 28 24 50 25 24 24 24 26 31 34 41 49 46 43 40 42 48 43 46 52 54 57 58 63 64 65 61 58 53 45 33 21 16 14 12 9 7 6 5 4 4 3 4
32 24 28 33 32 32 34 28 47 35 28 25 27 32 38 44 55 40 34 42 49 48 45 47 50 53 64 68 69 70 75 75 68 67 58 29 21 19 13 9 7 6 5 4 4 4 4 6 12
24 23 31 35 36 30 30 32 27 51 44 40 36 44 46 52 41 31 41 55 59 51 46 54 61 62 69 75 78 80 82 77 78 73 40 28 21 12 9 7 5 4 4 4 5 6 22 59 100
33 34 29 29 34 32 38 37 25 38 28 47 35 46 52 53 36 43 48 57 57 48 51 55 64 70 75 82 85 86 90 87 72 43 34 22 13 10 7 6 5 4 5 6 10 65 82 55 96
40 35 28 33 38 23 48 30 25 28 30 41 47 56 56 47 45 48 53 61 51 52 56 61 72 80 85 92 94 95 95 88 66 40 19 12 10 8 7 5 5 5 5 6 48 100 36 28 43
32 37 40 40 44 43 29 35 33 35 36 52 71 61 55 48 47 51 55 62 55 57 64 74 81 82 84 97 98 85 90 76 43 19 12 11 10 8 7 6 6 6 7 27 80 71 40 49 73
37 33 38 41 45 39 27 36 29 39 39 44 68 56 54 52 53 54 59 62 59 64 72 83 87 90 93 100 96 85 74 50 19 14 13 13 11 8 7 6 6 7 31 36 36 50 84 79 97
42 38 31 36 36 29 24 16 18 26 36 38 42 52 54 54 55 56 60 63 62 66 79 87 92 93 98 98 94 75 54 26 17 16 15 13 10 8 7 8 9 11 18 33 79 72 95 100 100
38 38 31 25 31 40 53 20 15 14 22 39 51 51 54 56 58 58 61 64 67 74 83 89 94 100 98 97 66 56 37 23 18 17 15 13 10 8 8 10 12 16 28 57 63 89 100 100 100

GFSSGP_700_rhum_009.txt.gz
RH
2 6 8 11 25 22 20 18 19 47 69 76 81 82 82 74 69 80 73 65 79 77 74 68 54 52 53 57 58 51 50 46 31 22 18 12 3 16 22 23 24 27 28 28 28 27 26 25 24
2 3 8 23 25 20 16 16 22 68 87 79 88 88 85 90 85 80 73 80 93 86 77 63 55 58 58 64 63 55 55 36 26 20 15 5 14 23 24 27 30 30 30 30 30 29 28 29 28
2 1 17 16 21 17 15 23 56 77 80 82 79 83 81 88 79 67 80 78 82 87 76 73 63 69 61 70 68 62 47 32 24 17 5 12 23 26 29 32 32 32 35 37 38 36 34 33 32
4 2 16 22 18 16 16 53 70 68 71 80 78 66 75 74 57 73 75 84 85 90 87 79 79 78 74 78 64 60 38 28 20 7 9 21 26 29 33 33 36 38 41 42 42 43 43 40 40
7 15 13 16 17 17 17 47 53 55 73 70 72 68 55 52 65 58 62 70 89 92 96 82 95 88 63 77 70 46 35 21 7 6 16 26 29 33 35 39 41 44 45 43 43 45 44 43 42
15 16 15 16 18 18 19 46 51 80 64 76 66 76 76 53 49 76 81 94 99 99 98 81 98 75 90 81 52 36 31 6 4 11 23 28 32 36 41 42 44 45 41 40 40 40 41 42 48
17 15 17 17 16 20 25 35 56 51 68 63 76 76 86 60 54 69 84 88 95 97 94 95 75 97 81 62 40 29 7 3 11 19 28 32 36 40 43 44 44 46 43 42 43 40 44 52 53
18 19 17 16 18 31 33 48 54 55 57 66 55 68 62 68 49 73 77 90 74 98 90 86 97 74 48 37 33 7 3 8 15 27 29 35 38 41 42 42 44 46 47 50 48 46 54 52 56
24 21 15 17 30 56 48 49 44 48 51 47 91 86 41 42 61 68 78 91 92 94 87 72 58 46 49 51 8 6 11 17 27 31 33 38 41 42 43 43 43 45 48 52 53 52 56 57 59
20 17 15 26 43 51 56 44 53 51 56 71 61 83 27 42 65 70 78 82 79 66 49 40 37 40 43 28 11 24 21 28 34 35 37 40 42 44 46 49 50 49 53 56 58 59 63 57 60
19 22 31 49 41 34 38 39 39 54 66 60 88 84 63 95 84 80 81 88 45 23 21 24 29 27 25 25 32 27 32 39 41 42 42 42 44 45 50 55 58 67 74 77 69 75 71 66 55
25 25 24 25 31 29 31 27 43 57 62 57 74 91 90 91 72 71 30 21 23 25 21 17 19 26 31 35 33 36 41 45 46 48 52 52 53 57 64 66 61 76 99 82 80 85 77 64 48
25 22 25 30 27 29 34 35 36 42 54 63 75 76 87 89 75 32 58 82 28 30 17 20 30 34 38 40 42 44 44 48 60 65 73 71 76 76 82 92 97 92 93 93 86 79 64 62 46
23 25 21 24 27 34 40 32 26 41 63 81 67 80 80 86 87 86 90 66 33 33 26 28 32 37 35 36 41 45 50 58 56 60 79 83 87 92 99 92 84 96 98 94 73 62 50 41 42
20 17 17 29 30 32 26 25 35 27 66 74 75 77 77 81 82 63 40 37 46 46 39 37 42 44 43 43 45 60 80 65 68 68 74 86 90 96 96 98 100 97 66 65 55 48 46 45 44
17 18 26 31 25 20 14 22 33 45 62 65 67 75 80 83 77 63 30 55 57 54 49 54 59 68 76 84 84 78 67 53 70 72 75 85 83 85 64 49 53 60 53 48 48 50 48 49 52
15 16 19 24 18 11 14 20 32 40 53 58 67 75 79 79 80 64 50 55 52 52 53 62 71 71 69 93 97 61 64 69 78 83 81 56 42 39 38 41 44 49 54 58 52 41 38 31 18
18 15 16 14 15 13 17 25 32 38 44 56 62 73 65 53 57 57 59 61 61 61 63 69 73 77 97 68 39 44 50 56 54 43 36 36 37 42 48 49 44 50 53 44 29 22 17 14 12
17 12 12 14 17 14 21 23 29 39 41 47 54 65 74 78 68 59 63 64 64 64 70 75 80 85 62 32 42 48 45 39 35 36 41 44 47 46 44 45 43 36 25 21 18 16 13 10 8
15 15 16 20 20 29 24 28 32 38 41 48 51 57 64 77 42 54 58 66 70 70 76 80 81 48 32 36 38 39 38 40 45 49 55 55 55 54 50 39 29 22 19 17 13 10 9 7 5
16 14 23 22 28 26 24 31 39 35 39 48 59 61 67 70 40 44 55 64 66 69 76 79 41 37 38 39 43 49 56 61 60 65 64 64 64 65 45 28 25 22 17 13 10 7 5 4 4
20 26 27 24 28 21 21 22 32 45 26 23 37 63 74 56 33 34 42 45 56 75 57 45 42 46 49 55 58 63 72 78 72 76 73 76 64 44 34 27 20 18 14 10 7 5 5 4 4
45 32 25 26 27 22 26 20 34 46 46 31 25 31 42 36 41 50 71 54 58 45 45 44 50 54 56 61 65 67 72 74 76 78 80 81 60 41 27 22 18 15 12 8 6 5 4 4 5
22 33 29 24 23 26 20 29 43 42 39 51 39 36 54 70 77 80 64 41 39 51 49 45 50 57 62 65 68 75 80 82 86 88 87 69 48 32 24 20 16 12 8 6 5 5 5 6 48
29 28 23 24 29 26 23 26 22 22 39 44 68 61 62 51 51 52 39 33 45 53 51 50 53 58 62 65 69 79 82 88 86 78 59 52 37 26 21 17 12 8 6 5 5 5 8 70 100
29 23 24 28 26 18 29 23 18 22 29 36 66 77 60 47 52 49 33 41 52 53 49 52 53 57 62 67 68 79 91 96 93 61 55 40 27 22 19 14 9 6 5 5 17 73 82 98 98
25 31 28 31 37 32 21 18 21 26 36 45 67 76 75 59 55 42 42 47 50 55 53 54 58 62 66 70 80 90 99 100 80 55 47 30 22 20 16 10 6 6 6 46 78 42 61 99 93
33 32 31 27 31 34 19 20 18 38 40 48 64 71 78 80 67 48 47 48 53 59 58 60 65 69 72 77 84 92 100 88 60 58 37 23 21 18 13 7 6 6 9 16 65 97 92 99 100
38 28 30 32 38 35 26 18 25 22 36 44 55 65 74 76 77 63 55 52 55 61 62 69 75 75 80 84 90 99 94 69 66 49 28 23 20 16 8 6 7 8 15 78 94 94 76 100 97
39 32 32 31 28 35 43 24 18 10 20 43 50 58 68 72 76 86 62 54 56 60 63 70 75 83 88 90 94 97 71 73 57 35 25 23 20 12 6 6 8 12 31 42 58 98 94 96 99

GFSSGP_700_rhum_012.txt.gz
RH
17 3 5 11 24 25 22 20 18 31 42 68 68 68 67 68 65 68 74 84 73 78 75 67 62 49 48 50 47 49 46 43 29 21 17 5 11 20 23 24 27 28 28 28 28 27 27 26 26
14 2 7 21 22 21 18 17 52 34 72 70 56 56 66 84 68 74 79 86 68 76 74 71 55 54 55 57 52 53 46 34 24 21 10 8 20 24 26 30 30 30 32 32 32 33 33 32 30
11 2 16 17 20 22 18 28 33 56 55 57 54 54 64 81 90 77 74 79 66 95 80 73 59 62 67 57 62 56 50 32 25 17 6 17 25 27 32 32 33 36 36 37 38 40 39 37 36
9 4 7 21 16 18 16 40 64 66 70 73 78 73 71 77 73 72 76 85 96 93 87 81 72 79 76 72 64 52 39 29 22 8 10 24 27 32 33 37 39 40 39 38 39 40 42 44 44
7 15 13 14 19 18 19 46 54 61 74 71 73 63 54 51 69 66 78 90 90 94 99 99 95 93 84 93 60 48 36 28 13 6 18 26 31 34 38 41 41 39 38 36 38 36 37 43 47
21 16 16 14 13 15 17 28 39 50 68 56 76 69 76 51 57 50 73 88 87 99 98 93 99 96 100 89 59 41 37 19 4 10 24 28 33 38 41 42 42 40 39 41 41 40 47 50 50
27 15 14 15 14 20 19 40 70 68 53 57 76 75 93 92 44 59 82 97 99 96 100 98 98 88 78 58 48 38 34 6 5 17 28 31 35 41 42 44 44 43 46 48 49 47 49 53 51
24 18 17 16 16 19 32 50 54 49 67 64 55 68 61 79 65 72 84 78 91 95 99 99 95 100 72 59 46 38 12 6 11 23 28 33 37 41 42 42 42 44 46 49 53 54 51 59 59
19 17 17 17 18 39 39 60 56 53 54 64 68 53 72 44 64 77 75 82 100 94 88 99 96 76 61 50 36 13 5 8 14 28 30 34 38 40 42 42 43 48 55 55 60 60 58 63 65
20 20 21 37 53 48 47 57 50 47 58 64 69 78 84 38 58 76 78 82 94 80 80 81 80 67 54 52 22 8 14 16 24 31 33 37 39 42 43 46 51 55 58 64 68 71 67 64 70
21 20 20 37 43 40 45 65 53 48 58 72 96 88 96 45 73 73 83 85 79 71 58 45 43 38 34 26 9 22 21 27 35 38 40 42 42 45 47 53 62 66 75 77 84 84 94 81 64
21 18 23 27 40 36 40 39 41 33 40 46 64 93 86 81 84 78 97 85 33 23 20 18 21 22 23 22 30 29 30 38 40 42 42 42 42 60 73 77 76 84 94 98 99 96 96 70 69
22 24 22 23 22 26 37 44 43 47 38 66 67 91 84 100 100 94 82 26 24 26 19 12 12 25 27 32 33 34 39 41 43 46 49 54 80 76 70 76 89 90 91 96 100 97 72 58 53
21 24 22 23 26 38 37 33 44 60 70 91 86 84 78 92 78 67 95 43 25 29 14 16 26 31 30 32 39 45 48 53 52 55 57 73 82 84 84 93 94 99 92 96 88 44 40 38 40
26 23 25 26 27 32 43 33 41 62 75 78 76 77 77 86 89 91 77 29 36 37 25 29 32 36 39 41 44 52 60 62 66 64 70 73 77 80 76 65 47 47 44 42 40 42 46 39 38
23 18 20 29 28 27 21 28 39 61 67 66 67 72 73 77 82 64 29 39 48 40 38 42 43 48 58 76 70 96 81 56 61 60 74 77 80 63 45 39 36 37 39 46 41 36 32 29 25
18 20 37 30 27 19 13 25 34 52 57 60 66 69 75 77 73 54 30 54 49 47 51 60 65 70 71 74 80 88 51 54 70 61 64 64 48 36 34 31 33 39 41 39 36 32 28 25 23
19 20 25 23 21 12 13 24 31 40 49 79 62 65 73 79 76 59 50 58 51 49 55 61 64 70 76 88 48 34 36 42 42 44 40 35 34 37 40 44 47 49 46 38 32 27 25 24 24
23 20 18 17 14 12 20 25 29 33 44 54 68 62 71 80 84 68 58 63 68 50 54 66 70 76 83 68 32 34 36 35 34 36 41 45 54 52 53 53 53 48 38 33 28 26 24 22 20
23 19 14 15 16 14 16 22 25 32 34 42 49 59 68 75 85 66 68 73 61 56 58 62 70 79 76 46 35 37 37 41 45 45 49 53 59 63 65 66 52 41 37 30 28 25 21 19 16
18 18 22 19 16 16 26 25 25 29 34 36 40 46 58 70 78 64 59 63 72 85 86 77 69 74 44 37 38 40 46 54 55 54 56 55 51 63 65 56 45 38 33 29 25 21 18 14 11
27 28 25 28 26 20 22 35 50 38 32 38 43 49 53 61 73 62 39 49 61 65 75 82 94 51 40 42 44 53 51 51 58 64 71 62 70 74 58 51 40 33 28 24 20 15 11 8 6
31 24 29 22 23 24 27 32 42 35 46 45 49 54 58 66 74 67 42 35 43 50 73 98 63 42 47 47 52 51 52 60 63 70 77 73 65 54 50 43 36 30 25 20 15 9 7 5 5
28 24 26 21 19 43 29 37 50 39 33 43 49 59 68 67 79 86 62 58 57 73 72 52 45 46 49 50 49 55 61 63 68 76 81 90 74 51 47 40 33 26 21 15 8 6 5 6 13
25 25 24 38 47 40 21 36 26 29 41 44 34 60 72 84 75 93 95 94 98 64 40 47 49 49 50 48 51 56 61 67 74 86 88 99 70 52 45 37 29 23 17 9 5 4 6 20 41
29 19 29 78 79 43 28 28 21 24 37 34 59 67 72 94 94 92 97 90 66 39 46 52 50 50 50 51 55 59 63 71 77 88 98 92 58 49 41 32 27 21 11 6 4 4 10 30 63
19 21 24 28 47 38 25 18 14 28 28 31 53 70 60 66 80 82 86 64 47 36 46 53 51 52 53 54 57 62 68 74 85 98 96 60 56 48 35 29 23 12 6 4 4 7 21 34 55
20 28 30 28 39 38 20 20 25 32 35 33 47 64 76 78 80 81 85 70 44 38 46 52 57 56 56 58 62 68 75 83 93 98 71 64 55 41 32 27 16 6 5 5 7 8 20 39 51
32 29 26 25 29 57 52 25 23 24 25 32 42 59 72 77 73 70 70 68 54 48 48 51 59 60 61 63 72 78 84 92 99 94 75 64 49 33 30 21 7 5 6 8 10 15 29 59 81
33 36 26 30 31 35 39 34 21 16 9 11 37 47 62 68 68 72 71 75 74 56 53 54 57 60 62 67 78 88 94 98 98 88 75 62 41 35 26 10 6 5 8 10 15 29 36 84 83

GFSSGP_700_rhum_018.txt.gz
RH
23 19 12 8 16 21 20 18 22 25 44 49 42 45 41 43 49 45 55 60 77 87 77 69 64 56 42 38 38 34 34 29 23 19 15 8 11 18 21 24 27 27 28 30 32 33 32 32 34
22 16 5 19 18 24 19 26 30 58 52 50 48 45 52 46 48 44 59 72 72 88 80 79 66 66 44 42 39 38 41 29 20 20 11 9 18 22 26 26 29 30 31 31 30 32 34 36 38
19 13 15 25 21 19 18 24 57 51 49 56 52 48 47 42 36 35 41 79 69 89 89 81 76 72 54 49 46 44 37 24 23 16 8 16 23 26 27 29 31 30 30 31 32 35 38 39 41
17 14 23 17 14 10 17 18 21 36 47 49 44 38 42 49 42 46 58 72 87 88 85 87 80 74 66 62 57 47 31 27 23 11 11 22 26 28 30 33 32 30 31 33 35 36 39 42 44
15 21 21 13 12 16 16 18 36 56 56 56 48 47 52 50 44 57 64 94 99 99 97 93 89 86 88 85 68 50 46 38 22 9 18 26 29 30 32 32 32 32 38 42 44 44 41 42 45
20 22 20 16 17 17 23 32 60 58 53 55 58 58 52 50 46 64 91 98 99 99 98 99 100 99 99 98 73 73 48 33 11 12 26 29 32 34 34 34 34 36 41 46 48 48 48 45 49
20 24 25 21 28 34 40 52 55 58 58 72 61 56 58 46 51 59 97 99 89 92 100 99 100 100 99 96 94 55 52 20 7 21 28 32 34 36 36 35 37 40 42 46 52 56 57 59 52
28 31 24 26 56 54 52 52 68 56 64 58 56 63 62 69 66 69 83 96 99 96 100 96 99 94 85 63 81 56 44 8 10 25 29 32 36 38 40 40 42 42 43 50 55 63 70 65 62
24 30 23 21 40 39 41 57 66 73 60 58 61 73 70 81 77 70 90 90 80 99 100 94 99 88 74 82 60 44 18 11 14 27 30 34 36 41 41 41 42 44 48 55 59 69 68 64 72
31 30 21 37 29 37 54 46 60 61 52 61 54 58 68 78 80 78 85 71 70 59 81 68 68 49 70 82 62 20 10 13 17 29 30 34 38 40 43 45 48 51 63 72 73 77 69 67 69
28 21 21 24 28 41 47 48 53 57 65 60 63 64 66 72 89 95 88 54 50 58 45 75 82 74 70 49 10 7 8 11 23 30 31 35 39 42 44 47 50 70 70 72 76 80 79 74 67
26 25 24 22 21 39 49 51 54 58 70 81 74 52 69 82 100 95 78 35 29 37 44 60 49 34 25 12 17 20 21 26 30 33 36 40 41 43 49 62 73 75 81 75 83 78 54 61 92
30 24 27 23 23 46 46 51 40 37 40 68 72 48 71 87 91 58 49 33 26 23 30 30 23 22 23 24 27 27 33 36 37 39 41 45 58 65 68 70 73 79 77 62 52 34 35 48 62
30 24 23 24 29 46 42 48 43 33 36 55 66 55 85 88 83 86 30 27 24 18 22 34 25 30 32 33 33 36 39 41 45 52 56 64 65 64 58 72 73 67 49 33 31 37 42 43 41
23 27 23 32 45 45 46 48 59 48 37 64 69 63 79 79 74 40 35 28 27 15 18 27 32 35 36 39 40 52 55 53 38 31 31 32 41 40 52 61 52 34 30 32 36 37 36 36 38
27 25 27 40 39 38 43 52 66 46 53 75 74 68 75 67 37 27 27 43 34 20 26 31 34 38 42 48 65 70 43 37 33 31 28 25 24 26 33 36 30 29 32 34 35 39 40 40 38
27 22 21 31 35 37 40 46 57 54 50 48 52 58 57 60 46 31 34 49 42 30 31 36 41 46 55 67 72 74 50 34 36 30 29 30 30 29 30 30 33 37 37 39 39 41 40 35 30
26 21 24 29 30 31 38 36 56 62 66 52 61 54 65 37 40 37 38 47 38 31 40 45 49 52 59 62 70 66 52 39 35 33 34 34 34 33 35 39 36 39 46 40 34 33 34 31 29
29 28 26 26 26 28 29 29 58 64 66 53 51 42 62 67 53 42 40 46 44 44 49 52 52 52 58 61 60 60 55 43 37 36 37 41 40 41 44 46 47 68 65 41 38 36 34 31 28
29 27 28 24 24 26 19 30 57 61 52 54 49 52 38 38 41 39 34 35 43 47 50 58 61 63 65 63 54 66 45 43 38 39 39 47 50 52 66 66 70 72 74 45 39 36 34 30 27
30 31 31 23 20 21 23 44 53 50 50 54 54 46 48 45 48 50 48 40 39 45 57 68 73 76 72 66 57 63 54 43 42 41 44 51 59 64 67 70 71 65 73 56 42 37 34 30 26
33 25 28 26 20 19 24 36 38 42 53 40 49 50 54 44 46 63 60 59 38 38 45 74 76 60 66 69 62 65 49 45 46 46 50 56 61 65 72 85 85 77 50 46 44 38 34 30 23
32 29 27 26 24 28 28 31 30 37 35 33 36 40 50 45 41 47 48 54 55 54 63 65 56 49 53 55 62 60 46 49 46 51 56 60 64 70 80 89 84 78 64 52 45 38 35 30 20
28 29 26 22 29 47 36 35 30 30 28 27 28 34 41 48 56 56 59 67 74 79 81 73 57 100 95 96 69 46 47 51 52 56 62 62 67 77 84 90 92 81 74 53 45 39 34 26 15
29 29 34 38 60 61 36 39 33 32 28 27 29 34 44 54 62 64 64 66 75 84 82 79 51 82 97 86 63 49 50 55 58 61 62 65 71 83 94 97 96 99 94 55 43 40 32 16 7
31 26 31 46 72 47 43 47 30 26 23 27 30 34 36 45 54 59 66 76 81 81 85 70 61 78 97 93 67 67 58 56 59 62 66 72 80 92 93 97 98 98 76 80 54 36 21 7 5
32 30 29 36 56 58 38 34 26 28 25 26 25 32 36 45 46 51 72 67 64 72 62 58 70 72 72 68 68 71 74 67 61 69 74 78 90 99 97 100 100 100 94 77 40 28 8 5 5
30 33 28 37 61 63 34 31 35 34 34 30 25 37 38 45 44 48 54 61 58 62 73 66 72 83 82 66 66 69 71 70 62 67 74 90 97 98 99 99 100 97 84 50 79 13 6 6 7
29 30 29 28 32 58 69 35 32 25 16 24 16 19 31 41 44 53 51 33 30 46 50 56 76 69 72 63 63 63 66 68 74 86 95 98 97 94 100 98 98 94 95 73 24 15 8 23 21
32 35 34 29 31 34 42 36 27 26 21 18 25 20 27 49 50 52 50 48 41 42 45 43 42 46 56 66 72 74 76 86 96 96 97 94 98 99 99 99 97 95 52 36 36 60 78 40 17

GFSSGP_700_rhum_021.txt.gz
RH
24 23 15 7 14 18 17 15 19 30 30 51 61 56 50 52 57 52 49 59 62 70 79 79 70 61 54 38 31 27 29 29 25 19 12 6 11 16 21 23 24 24 27 26 25 25 25 26 28
26 22 11 16 18 21 14 18 27 38 46 54 56 57 53 54 52 47 54 58 58 82 84 77 64 65 62 38 32 38 34 30 22 18 10 10 16 20 23 25 26 28 27 28 29 28 29 30 31
25 20 10 38 26 16 18 26 29 53 52 52 51 52 48 48 51 55 69 72 73 88 86 72 64 68 62 45 44 39 35 28 20 13 10 14 21 25 26 28 28 27 27 30 32 34 34 36 37
24 17 21 23 16 13 16 22 19 24 46 51 54 56 47 45 46 69 63 99 94 86 90 78 78 76 67 59 51 47 35 23 21 9 15 23 26 29 31 28 28 28 30 36 39 41 40 40 44
19 21 24 14 11 13 18 21 23 38 56 56 58 51 47 45 48 50 71 97 99 98 97 94 90 90 86 74 66 47 28 22 10 15 22 29 31 33 31 30 30 31 36 41 45 48 49 47 47
17 21 22 15 15 35 32 38 49 55 60 55 57 62 54 51 45 43 50 90 99 100 99 98 97 99 100 99 68 40 41 40 36 23 29 32 33 34 34 34 35 35 36 41 47 52 56 58 57
16 18 21 27 51 45 44 46 50 54 62 57 56 62 57 84 50 61 80 98 100 99 100 100 99 100 100 98 62 59 60 42 21 30 31 33 35 37 36 37 36 36 37 40 47 52 62 59 56
17 23 22 34 46 32 44 43 49 56 59 54 48 59 64 58 68 60 78 95 93 96 99 99 100 100 100 96 81 70 37 15 17 28 32 35 36 37 40 38 37 39 42 46 53 64 60 60 58
29 24 20 28 39 34 41 48 58 57 60 60 57 74 80 72 73 79 84 63 70 90 99 98 100 96 98 100 90 48 17 10 17 29 32 34 38 40 40 40 41 44 47 55 68 65 63 57 56
30 23 21 32 32 33 43 52 52 62 61 65 72 76 69 80 80 86 59 58 98 100 98 99 98 79 85 64 46 27 15 15 19 31 33 36 38 40 41 43 45 46 54 67 69 71 60 46 34
25 22 23 22 22 35 46 56 55 65 63 71 69 73 73 89 88 76 76 61 96 99 83 72 66 67 65 53 24 16 14 19 22 31 32 34 37 40 42 44 50 62 70 72 74 58 40 31 32
28 27 27 23 22 27 52 58 59 59 62 74 77 66 77 91 99 87 54 61 48 69 64 68 79 86 25 11 9 10 11 13 23 31 32 35 40 44 46 56 67 71 71 72 56 37 33 37 42
31 29 27 24 24 31 51 48 56 40 70 79 76 60 68 69 75 70 47 41 46 47 42 32 27 17 17 20 23 25 26 29 34 37 40 43 46 52 61 65 61 69 66 50 36 34 40 45 47
33 25 25 22 26 48 56 44 43 38 62 80 70 72 72 82 46 29 27 30 19 24 22 26 28 30 30 29 30 34 38 41 45 52 55 57 43 56 53 57 61 57 38 34 39 47 46 46 45
25 27 24 24 35 54 48 40 50 45 55 66 61 62 81 78 62 29 27 25 12 19 29 31 34 37 37 36 39 49 50 58 54 41 38 35 36 34 39 41 38 33 37 43 44 41 41 44 46
27 27 31 40 46 47 45 48 55 53 62 61 58 60 56 56 49 30 38 34 15 24 32 35 37 39 41 43 48 70 48 49 40 38 37 33 29 30 33 32 30 37 45 41 39 42 38 38 37
27 26 30 45 40 36 40 50 54 55 58 68 54 57 36 36 27 36 45 44 24 26 32 35 40 45 53 64 69 70 69 37 38 36 31 31 32 32 32 32 36 41 40 40 50 45 30 30 30
28 25 24 35 38 34 40 44 49 51 47 43 36 39 28 31 32 36 36 39 31 28 35 39 44 49 57 61 62 63 65 42 39 36 34 35 35 36 36 37 42 42 47 44 55 60 41 32 31
29 29 27 28 31 32 34 40 45 52 51 57 55 24 23 25 28 34 42 43 38 33 38 43 44 44 46 53 61 68 69 52 45 39 37 38 39 43 44 46 56 55 47 44 48 55 56 34 34
32 29 26 27 26 26 28 33 48 51 43 48 51 46 32 30 29 29 34 40 41 43 44 45 52 57 62 65 69 74 78 61 52 40 41 41 45 52 54 57 57 50 52 56 50 52 43 37 38
30 29 30 30 24 21 24 28 47 54 49 61 58 55 51 45 42 39 40 37 39 42 46 49 52 59 69 72 72 72 71 68 50 43 44 46 50 51 54 57 61 64 67 71 72 69 54 44 41
30 27 29 28 26 25 25 45 45 38 41 46 53 56 47 48 48 50 51 50 49 53 54 55 60 66 72 68 72 82 85 74 44 47 49 52 55 58 61 66 70 74 84 94 96 90 85 53 45
30 32 29 29 31 28 32 32 28 38 47 45 40 53 51 49 46 48 50 51 59 68 65 70 78 79 76 68 69 78 72 73 46 49 51 56 60 63 65 68 70 78 88 89 91 89 97 55 50
33 34 30 29 29 48 34 37 32 32 28 27 29 33 40 50 41 40 49 60 66 73 77 73 80 82 74 64 73 66 73 66 52 51 55 57 58 62 66 69 73 84 90 98 98 93 86 68 70
33 34 35 39 56 56 38 37 28 25 28 31 30 29 31 36 44 48 48 51 54 63 68 78 88 84 81 77 85 99 79 64 66 53 58 61 65 69 77 79 91 94 98 97 99 96 97 90 82
33 36 32 44 64 42 40 39 26 26 29 25 26 28 35 35 39 48 48 55 52 58 66 80 90 81 72 75 89 100 96 83 78 86 87 98 94 89 90 99 96 97 98 100 99 100 96 93 74
32 34 33 35 57 58 35 32 26 23 25 25 23 27 30 33 35 40 51 59 56 61 68 71 74 66 62 73 76 78 76 77 80 81 97 100 100 96 98 98 96 98 98 100 100 98 96 82 46
33 32 33 34 54 57 43 31 27 31 31 30 28 18 30 31 33 38 45 54 61 64 62 67 63 67 63 63 55 61 74 78 77 78 89 99 97 99 99 99 99 100 100 100 100 95 86 80 46
32 35 33 31 34 63 66 35 22 34 23 16 17 17 17 30 32 39 42 51 49 36 32 39 40 41 46 52 58 55 58 63 74 82 88 95 100 100 99 100 100 100 100 100 97 88 89 79 74
27 33 35 37 34 35 43 34 28 28 26 22 22 22 19 18 37 40 47 54 53 46 50 54 59 60 61 62 60 62 74 80 86 93 100 100 100 100 100 100 100 100 99 96 92 85 88 86 44

GFSSGP_700_rhum_024.txt.gz
RH
27 24 24 15 14 16 14 12 15 25 28 33 65 68 66 52 56 55 50 56 58 70 71 76 77 65 54 38 29 24 35 28 34 20 10 12 17 20 21 21 21 21 20 19 23 26 28 29 29
29 25 22 11 17 15 12 16 23 51 34 48 58 63 57 56 58 57 56 57 66 77 82 78 81 72 61 43 34 29 27 37 30 17 11 19 23 26 25 25 26 22 21 25 30 33 34 34 32
31 25 19 11 13 11 15 35 57 51 54 57 51 53 57 55 57 55 61 68 71 79 90 82 80 79 72 52 39 35 34 51 22 12 17 22 26 28 27 28 26 26 29 34 37 37 41 40 40
31 22 17 16 11 11 13 16 21 20 20 28 50 52 53 49 41 48 47 65 83 88 99 86 85 95 90 60 52 47 62 36 21 13 23 28 29 31 31 28 28 30 37 42 37 42 47 51 51
27 20 17 15 14 13 17 20 30 26 35 51 56 58 54 52 49 56 44 84 91 89 94 95 99 100 97 75 69 65 53 36 11 20 27 30 31 33 31 29 32 37 39 40 42 50 59 56 56
21 19 18 17 14 40 28 33 36 45 54 60 62 58 58 53 53 56 55 76 98 99 99 95 99 99 99 98 81 72 26 14 22 28 28 31 34 35 33 32 34 35 37 39 46 52 57 55 53
18 18 20 34 45 47 45 50 53 47 56 58 56 54 54 72 64 58 58 85 98 97 99 94 99 100 100 99 68 40 19 32 31 29 36 35 38 37 34 33 35 37 40 44 47 58 59 59 55
19 20 21 48 38 42 56 48 44 55 54 53 59 59 59 65 69 62 65 93 100 100 100 94 94 100 100 96 80 55 52 39 43 35 38 35 38 38 38 36 39 41 43 47 61 62 68 57 51
19 20 22 30 33 38 52 58 57 60 60 58 59 65 69 71 68 71 69 69 74 90 97 100 100 100 97 93 70 64 62 49 28 34 35 35 38 40 40 42 42 43 47 53 66 70 68 46 26
28 22 21 27 34 31 58 67 62 64 64 67 69 74 66 73 75 70 54 67 96 98 95 100 100 100 100 100 92 92 46 21 30 32 34 36 38 41 43 42 43 47 57 70 71 69 51 28 26
28 24 26 24 26 31 54 61 55 58 65 66 71 70 71 77 85 63 74 80 100 94 98 100 90 98 100 94 70 36 22 14 29 34 34 35 38 40 41 44 48 63 70 70 72 51 31 30 34
29 29 32 23 26 28 51 54 58 55 50 76 76 67 47 99 97 75 62 97 98 61 74 76 77 84 63 56 46 26 16 22 28 33 34 35 37 41 44 50 68 65 66 65 44 30 34 41 42
31 31 28 26 25 29 52 52 51 46 60 74 75 53 47 97 84 65 61 62 64 60 56 58 41 28 18 14 13 16 14 16 28 33 34 38 46 54 66 66 62 57 58 39 35 43 48 46 42
31 26 26 22 25 48 46 50 46 33 55 80 65 65 43 54 36 39 41 58 61 49 27 21 18 19 22 23 23 26 25 33 36 41 47 60 53 46 50 44 47 45 38 41 49 48 45 43 36
28 27 25 23 30 44 46 54 45 36 61 76 75 76 63 38 33 34 32 33 29 31 28 27 29 30 30 32 36 37 39 44 54 61 60 42 33 33 36 39 35 37 50 52 48 46 47 42 33
29 26 28 33 35 46 50 49 45 43 61 67 77 74 74 60 34 32 32 26 36 32 33 36 39 42 44 50 59 50 52 59 56 50 40 32 31 33 35 36 39 47 48 43 41 42 51 55 56
28 28 36 44 42 41 48 48 42 44 58 64 64 52 61 60 40 41 37 19 24 33 36 39 44 47 54 60 65 70 61 46 42 41 36 32 36 37 36 37 40 45 47 51 51 48 47 51 53
29 26 31 43 39 38 38 44 43 45 41 54 49 57 29 24 37 46 40 24 26 31 34 38 44 51 60 66 68 63 66 51 44 41 36 35 38 40 39 41 43 48 54 54 50 52 45 45 48
34 31 29 32 39 37 37 36 38 44 42 45 36 26 30 30 39 41 36 32 26 30 36 41 46 47 50 53 61 66 70 69 51 41 38 37 40 42 45 47 50 53 53 55 58 60 64 73 70
33 30 28 31 31 30 30 30 39 43 40 38 48 26 27 29 30 32 32 34 35 34 37 40 44 45 52 59 66 71 76 74 66 48 40 40 42 43 45 48 51 57 60 63 68 72 73 80 72
29 28 31 34 31 26 28 29 34 38 41 48 46 54 47 32 35 32 33 32 33 34 35 40 44 50 56 62 65 69 70 72 75 68 42 43 45 46 49 53 58 63 66 69 73 76 81 90 88
28 28 33 31 31 29 30 30 30 31 35 39 43 39 44 47 48 44 46 45 46 52 45 45 50 57 65 74 76 75 79 87 90 90 46 46 49 52 56 60 63 65 68 72 73 78 97 81 92
27 29 34 31 30 30 32 30 24 28 43 31 30 31 34 40 47 50 49 49 54 59 66 64 62 70 78 82 80 74 82 86 97 95 63 49 52 55 59 62 62 64 68 74 88 96 98 93 94
31 34 34 33 31 45 32 35 31 27 25 24 28 31 32 37 38 45 54 54 54 63 64 70 74 72 83 89 84 84 82 88 95 85 84 69 63 65 66 66 67 67 73 91 97 98 96 95 84
33 36 38 42 56 55 41 43 29 24 23 25 31 32 32 32 35 40 44 47 51 54 54 65 76 75 80 94 90 84 82 98 99 75 76 80 74 67 64 68 86 100 96 96 98 99 98 89 94
34 35 38 45 63 42 41 38 24 22 29 27 29 27 31 32 33 36 37 41 52 60 61 66 73 74 80 95 88 80 83 84 93 98 76 74 71 76 78 96 92 82 95 88 98 99 100 96 93
35 33 33 34 52 60 35 29 26 22 26 22 29 29 31 32 36 38 39 44 52 55 61 63 73 75 81 78 74 73 74 76 81 83 93 78 73 80 99 90 98 96 95 99 94 100 99 98 89
35 32 35 38 50 56 44 37 27 24 32 34 29 22 17 27 36 36 37 40 47 61 71 67 70 61 78 83 71 61 60 65 70 68 70 76 82 97 98 99 99 99 100 100 100 99 96 88 71
34 34 34 35 37 58 66 35 27 24 31 20 17 18 15 12 29 31 37 42 35 33 39 29 33 38 49 62 66 63 62 66 71 82 83 91 95 99 99 100 98 99 100 100 100 99 92 73 72
31 32 34 35 38 38 44 34 26 28 29 27 28 23 24 18 18 24 30 18 22 34 53 57 55 52 65 63 64 70 76 82 85 94 99 99 100 99 100 100 99 99 100 100 100 97 79 71 76

GFSSGP_700_rhum_027.txt.gz
RH
24 26 23 23 15 13 12 10 13 23 35 42 62 55 41 42 45 52 54 53 56 72 78 77 78 64 56 44 41 35 26 24 26 22 11 6 17 20 22 23 23 22 25 28 30 31 32 34 36
27 27 24 20 13 16 11 16 18 41 50 50 63 78 72 68 64 66 58 56 62 76 85 75 77 72 69 53 42 31 26 29 33 33 10 16 20 23 23 25 24 26 30 32 32 34 38 41 43
28 29 22 16 12 13 17 28 49 52 61 57 63 71 68 75 63 62 54 58 68 78 94 81 82 81 72 59 48 32 29 32 47 20 11 22 22 25 26 25 27 32 35 34 39 45 48 52 50
29 26 20 19 13 14 15 15 17 22 20 21 35 62 63 56 47 46 52 64 70 89 100 90 94 90 88 68 56 40 35 44 29 12 16 24 25 28 27 28 31 35 37 38 46 51 54 52 48
29 24 19 17 17 15 16 18 28 25 22 30 53 61 59 54 48 45 52 54 99 95 98 97 100 99 99 85 68 49 47 50 26 33 22 29 32 30 28 29 31 35 38 43 47 53 57 56 53
24 21 20 19 16 36 35 40 46 42 43 47 62 62 60 56 52 52 51 58 87 89 96 99 100 99 98 100 79 59 49 37 41 22 31 34 34 34 30 30 33 38 42 46 50 58 59 63 48
21 20 18 27 46 55 52 58 49 48 57 58 58 57 59 56 56 55 51 54 83 78 98 99 99 99 100 97 85 47 40 52 27 31 36 32 38 35 34 34 38 41 43 45 50 59 63 65 43
20 19 23 46 36 43 59 54 52 42 53 56 60 62 60 56 54 58 57 55 80 87 87 99 99 100 93 95 62 43 59 32 34 41 43 40 40 39 36 39 41 42 44 47 58 68 71 61 28
19 19 22 28 30 36 55 61 62 66 67 66 64 64 62 68 67 61 64 67 90 99 100 100 100 100 100 96 52 53 38 42 61 50 40 39 41 40 41 43 43 43 46 55 71 68 65 37 25
23 22 22 24 26 27 40 63 65 62 72 69 71 74 69 68 67 67 64 62 73 88 98 100 100 100 100 99 60 51 68 77 58 41 38 37 42 43 45 44 42 44 54 73 71 66 41 28 32
23 23 27 27 29 30 57 66 61 68 72 74 70 67 66 66 72 74 66 80 94 99 100 98 98 100 100 99 97 91 89 64 38 39 38 38 41 43 41 42 45 52 70 66 65 37 31 36 35
27 32 24 26 26 29 52 54 59 60 53 78 75 66 58 77 88 75 62 100 81 84 86 100 99 99 99 96 90 79 54 37 42 38 40 40 40 40 42 45 52 70 68 66 39 34 37 34 32
32 29 28 27 24 49 53 50 53 58 76 60 75 55 93 97 92 65 94 63 85 74 77 79 90 90 78 99 98 70 29 31 38 38 36 37 39 46 49 62 67 62 63 37 36 39 35 38 38
31 28 27 24 37 43 50 52 49 47 78 79 64 43 82 90 59 57 60 70 68 52 68 62 76 74 70 59 50 31 24 28 34 35 37 43 54 57 59 58 47 40 33 38 42 38 40 44 49
31 28 27 26 32 43 48 52 46 54 66 73 59 31 49 52 56 48 58 65 62 46 33 30 25 32 18 15 16 15 23 33 37 42 59 68 51 43 38 37 32 34 41 42 42 47 45 43 42
31 29 38 30 38 46 50 52 48 54 57 66 72 46 29 29 29 30 37 50 43 24 23 25 24 24 25 27 28 34 39 44 56 61 57 45 36 35 36 35 36 39 41 44 51 50 47 50 50
28 27 31 40 41 46 50 49 46 45 56 53 61 75 38 30 31 21 28 31 32 33 35 36 40 40 50 55 46 46 51 59 55 52 43 35 36 38 38 36 37 38 44 49 53 55 61 58 64
30 28 26 38 38 40 46 46 45 43 43 53 54 43 49 31 39 33 20 32 35 37 38 41 45 52 56 60 61 55 50 41 51 54 44 36 39 39 39 38 38 40 46 51 56 61 63 67 71
32 30 31 35 41 41 38 40 38 40 39 43 39 43 22 34 38 32 21 26 32 35 36 42 48 54 56 56 53 54 60 59 59 53 44 38 39 40 38 39 42 46 52 58 62 64 66 70 73
33 31 32 34 32 34 34 34 34 35 36 42 34 31 29 30 30 31 25 26 29 31 36 40 44 47 53 59 67 68 70 73 78 68 50 41 40 42 42 44 48 52 57 61 65 68 67 71 83
31 33 34 32 29 28 30 30 30 31 37 37 49 36 36 32 32 31 31 32 32 33 36 41 45 49 54 61 66 67 69 73 71 77 86 55 42 43 46 49 52 56 61 64 67 70 76 83 90
31 31 32 34 31 29 27 28 25 27 29 32 35 47 39 31 32 33 37 35 42 41 38 41 44 49 54 60 66 72 82 80 84 90 94 96 61 46 47 50 54 58 61 64 74 82 94 92 97
31 31 30 33 35 32 33 32 21 21 23 22 25 31 38 46 45 42 42 47 48 51 56 49 48 53 60 68 75 86 88 80 89 97 99 100 98 56 50 53 57 65 75 91 98 99 98 98 100
33 31 32 34 33 40 33 34 28 28 24 24 28 26 29 33 38 46 52 51 50 53 57 64 66 68 68 73 84 83 84 84 88 97 98 97 93 88 74 69 67 80 89 95 86 86 89 97 92
34 33 39 40 47 44 37 41 30 25 23 23 24 27 32 32 35 35 40 44 53 54 56 64 66 68 75 77 75 76 84 82 80 90 88 98 84 89 91 96 93 87 98 100 92 69 85 88 80
34 33 38 44 51 36 41 43 26 24 22 21 27 25 28 28 30 32 34 40 45 54 62 61 63 68 73 80 86 83 80 83 87 92 90 88 96 92 93 94 83 74 95 97 98 86 97 82 76
34 38 35 35 48 54 36 31 26 24 24 26 29 27 28 26 28 30 34 36 40 44 55 64 68 72 77 80 79 80 80 79 74 72 70 80 98 94 84 79 80 94 97 98 91 93 98 87 91
38 36 38 36 51 51 42 36 29 25 24 30 25 20 20 15 21 27 35 35 45 48 57 65 72 70 74 82 81 86 72 76 82 80 81 80 84 94 99 94 86 97 84 82 81 87 96 98 94
38 39 35 33 36 45 45 31 25 26 23 26 21 20 20 16 14 25 29 41 44 38 52 54 55 40 34 47 62 62 72 73 74 78 81 89 97 99 99 96 98 85 83 98 79 98 98 99 88
39 38 36 35 38 39 42 37 30 29 26 28 29 29 26 25 20 17 19 33 15 12 16 19 30 47 57 67 67 69 70 71 75 85 99 98 99 99 100 100 79 80 99 80 99 94 98 95 91

GFSSGP_700_rhum_030.txt.gz
RH
18 23 23 22 27 21 18 15 18 27 36 39 54 48 42 55 58 55 48 46 55 55 56 73 78 62 53 49 48 50 45 33 22 21 15 5 15 20 23 24 24 28 31 32 32 33 35 38 39
20 25 22 29 20 17 15 19 25 47 51 40 55 72 72 66 58 49 48 45 49 63 68 62 83 70 57 55 55 60 45 27 26 28 19 8 18 23 26 25 28 34 35 36 40 44 47 45 44
21 26 29 26 17 15 15 27 28 61 54 46 69 73 84 94 74 67 60 54 56 63 79 73 88 80 67 60 57 54 38 27 27 27 15 14 21 27 27 28 34 37 37 43 46 48 49 44 41
23 28 25 21 17 17 18 18 14 32 27 48 43 75 76 66 89 64 51 46 56 70 90 92 92 91 85 83 63 49 34 31 31 22 14 18 23 29 28 31 38 39 42 43 47 49 50 48 43
26 27 24 19 19 18 16 26 26 23 48 25 40 63 64 61 61 90 74 49 63 71 98 100 96 98 100 88 71 48 37 31 22 15 20 22 28 31 29 34 38 40 42 44 46 51 54 56 44
35 25 21 16 17 26 36 38 47 40 36 38 80 67 63 60 54 54 52 63 97 97 98 99 100 99 100 93 83 50 38 26 17 24 25 28 30 33 32 36 39 41 43 45 48 57 63 61 38
33 27 20 30 35 46 75 56 54 50 60 62 67 88 63 58 56 54 54 69 88 95 98 98 99 98 100 97 85 53 29 22 28 27 28 30 37 33 35 40 41 43 44 46 57 64 63 59 26
26 30 28 34 31 40 59 59 55 56 73 64 67 80 59 55 57 59 57 59 77 77 93 98 99 98 99 98 74 47 24 36 40 33 34 39 38 37 39 44 43 43 45 49 64 64 57 38 25
19 27 28 28 27 34 47 74 62 64 62 62 67 66 63 61 63 65 94 60 63 89 97 98 99 100 100 100 96 85 44 36 41 42 49 49 43 40 43 45 44 43 46 55 69 68 60 28 31
32 27 26 26 29 30 48 62 68 63 72 71 71 74 73 68 67 68 75 68 98 99 99 100 100 100 99 98 99 55 50 46 46 55 63 53 49 48 48 47 42 45 51 73 68 61 29 34 34
32 28 28 31 32 32 54 61 62 88 86 79 72 74 74 71 72 70 71 64 90 93 100 100 100 97 99 99 68 70 75 59 75 64 58 54 48 46 46 43 45 49 73 69 64 34 35 36 35
27 33 30 32 26 43 60 43 52 60 55 74 77 71 66 70 86 81 70 88 98 100 99 99 99 100 100 97 96 96 76 89 64 48 44 46 41 43 42 43 49 72 71 63 40 37 35 36 38
31 36 33 34 30 46 56 58 58 65 68 59 70 66 81 94 87 74 73 98 98 97 99 100 98 99 100 100 100 98 93 87 46 45 41 41 41 40 44 53 72 72 58 43 37 37 39 41 37
34 32 29 28 42 43 44 55 48 45 72 56 51 74 99 98 72 55 64 44 59 83 96 98 100 100 95 87 98 86 60 44 43 43 43 41 40 47 61 73 66 51 37 37 39 45 43 36 34
32 31 32 28 41 44 48 58 37 57 80 68 42 75 74 69 54 63 52 49 58 58 65 67 77 79 77 84 82 49 30 41 42 43 40 45 63 69 51 48 41 33 36 38 44 49 44 48 44
34 30 34 35 38 48 50 54 38 53 67 68 36 48 57 49 43 48 47 51 63 61 64 68 78 79 77 56 44 28 27 36 40 41 53 71 53 43 40 36 34 35 36 35 44 45 48 52 49
29 27 32 39 41 58 53 54 44 49 51 75 64 36 30 29 26 42 27 40 34 36 36 32 29 29 42 27 18 20 27 36 43 60 62 56 44 38 35 35 35 34 36 38 43 47 55 56 61
25 26 27 37 45 49 50 55 47 42 44 52 71 74 39 32 24 28 29 30 32 30 29 27 24 30 31 30 24 33 41 55 62 59 58 49 38 38 36 36 36 36 39 44 51 54 60 65 68
35 28 27 30 37 46 43 43 46 45 42 36 52 42 58 39 34 24 32 33 35 37 39 41 42 44 56 54 50 48 49 53 57 55 54 43 38 40 40 40 40 41 45 50 55 59 63 66 68
38 31 29 32 32 30 35 37 53 36 44 46 32 29 27 47 38 19 27 31 34 38 42 47 51 54 56 57 60 60 61 58 54 60 56 49 42 39 42 41 43 45 48 52 56 60 64 68 71
37 30 34 31 28 27 35 31 38 32 37 40 30 27 26 29 31 25 23 26 30 32 36 41 46 50 55 59 63 62 61 63 67 69 73 87 75 45 41 44 45 48 51 54 60 62 69 93 96
33 34 34 35 30 26 28 22 30 42 28 34 42 25 29 30 29 31 30 30 30 32 34 39 42 46 50 56 60 64 68 71 77 80 86 94 94 83 48 44 45 47 49 52 58 82 99 99 80
31 34 37 35 32 34 34 24 27 20 35 30 28 40 35 35 38 33 35 32 34 36 36 38 41 44 49 52 56 62 69 77 85 85 87 92 93 93 98 84 58 51 54 65 90 99 99 95 68
36 34 36 34 36 32 31 27 22 26 29 30 42 30 32 41 38 39 40 40 41 43 50 50 46 46 50 56 63 71 78 82 90 84 86 92 95 99 100 99 96 71 88 95 94 100 99 98 85
36 33 30 32 34 32 38 39 24 26 27 22 21 30 30 31 39 43 46 47 46 48 50 53 60 63 66 71 76 79 82 91 89 87 86 92 94 90 97 99 99 100 100 99 97 100 99 85 93
36 29 30 39 36 25 44 31 26 27 24 22 21 20 25 30 30 30 35 42 48 52 55 55 56 60 66 71 75 79 85 91 92 92 93 100 99 99 97 99 97 96 99 98 97 99 82 96 80
42 35 32 40 36 35 28 30 23 25 26 24 31 27 24 26 26 28 31 34 40 49 54 62 66 68 79 72 74 82 87 91 89 83 84 73 91 93 83 97 100 100 100 99 100 92 100 90 90
39 35 36 39 41 38 27 28 22 24 25 23 24 23 20 19 22 23 29 33 35 36 42 52 66 71 74 77 75 82 90 71 70 96 92 98 98 96 86 84 96 99 98 99 96 88 98 92 96
40 39 38 38 38 31 31 26 27 27 28 28 28 20 24 22 18 14 22 32 36 39 46 51 54 62 68 73 72 74 57 52 64 80 88 87 92 96 95 100 99 98 99 92 80 100 86 93 100
38 34 38 36 35 45 47 31 28 31 31 25 28 29 29 27 25 21 18 16 34 41 36 35 52 58 64 51 36 34 52 62 63 71 74 76 83 92 100 99 95 98 98 81 94 92 91 89 96

GFSSGP_700_rhum_033.txt.gz
RH
14 18 20 31 25 20 15 14 12 16 18 37 46 50 28 42 59 71 60 53 49 43 52 55 71 66 52 49 56 58 53 42 26 20 8 10 17 20 22 23 28 31 32 33 35 38 41 42 40
16 20 24 27 20 14 13 12 14 15 30 68 65 76 55 78 66 65 59 52 46 46 56 56 70 69 55 53 58 58 57 42 23 16 9 20 21 24 24 29 34 34 38 42 47 45 43 42 41
18 20 31 26 19 13 16 18 21 26 56 54 60 66 68 68 63 65 62 57 46 56 56 57 66 74 59 53 53 57 58 38 25 14 17 23 25 26 27 34 36 42 45 46 49 46 47 47 41
32 38 28 16 14 13 15 16 20 33 40 55 59 87 59 54 60 64 89 86 75 56 56 64 61 80 66 57 60 64 58 30 25 15 22 27 28 28 32 40 41 42 44 47 51 51 50 48 30
29 27 20 18 14 15 16 16 31 43 42 52 64 80 55 51 60 49 61 98 97 92 78 95 91 87 74 64 62 61 47 30 22 19 24 29 33 30 38 40 41 41 44 47 50 52 56 52 22
31 21 18 14 14 16 21 31 44 54 56 67 59 88 62 47 57 75 66 56 86 99 99 100 100 99 95 84 68 56 39 28 19 25 26 33 34 32 37 37 40 41 44 48 56 57 55 39 21
29 22 19 19 24 49 56 56 54 67 65 57 82 83 69 58 55 58 64 69 78 97 94 97 99 100 100 96 73 53 57 31 25 28 31 33 36 37 40 38 40 42 45 50 62 60 48 25 24
29 24 21 24 25 57 46 55 69 59 64 44 81 92 66 64 60 70 73 81 98 98 95 96 99 98 100 97 78 78 28 23 30 35 38 42 39 39 39 40 41 42 46 53 66 58 49 24 28
27 23 27 22 21 27 34 52 73 66 70 89 83 73 71 71 65 62 86 95 91 90 97 98 98 99 99 97 89 30 25 36 46 49 50 50 47 43 44 44 43 43 48 61 66 58 30 29 29
25 20 23 24 27 30 40 53 69 70 90 87 70 71 70 66 63 71 95 98 94 90 96 99 98 100 99 96 88 64 49 73 60 57 59 59 51 49 48 48 44 44 51 72 62 50 29 30 30
26 27 26 27 31 36 42 58 58 74 96 88 73 72 72 74 74 77 86 96 96 98 98 96 96 100 100 100 99 100 98 86 63 61 60 67 52 51 53 50 43 50 62 71 60 32 33 35 38
27 27 28 30 33 46 57 44 40 42 56 54 71 78 74 74 82 92 96 79 68 88 98 97 100 98 100 100 99 99 98 91 74 89 89 64 58 58 56 44 47 57 66 63 48 32 35 40 35
28 29 28 30 35 47 51 66 69 71 66 60 62 60 66 82 90 90 74 70 94 99 100 100 99 100 100 100 99 99 98 89 90 93 75 51 63 59 46 47 53 66 70 56 32 35 40 35 35
33 30 30 31 38 50 54 71 80 51 56 57 49 72 94 97 93 91 94 94 96 100 98 100 100 100 100 100 99 100 89 87 91 57 46 48 52 46 50 54 64 72 54 34 35 40 43 42 42
33 30 30 33 40 44 57 70 78 54 65 55 48 60 74 85 70 52 47 54 100 100 100 99 100 100 100 100 96 99 86 79 64 54 44 46 43 50 58 75 70 56 36 34 38 48 47 48 52
27 26 31 43 42 46 63 90 63 60 95 62 93 77 71 86 55 39 36 44 59 68 81 80 86 97 85 78 86 96 96 93 49 52 48 44 51 71 72 58 42 36 33 36 42 45 47 54 59
23 24 40 39 36 44 49 78 71 50 86 88 84 92 97 82 94 34 25 22 53 58 58 70 76 67 60 67 69 61 40 47 46 43 58 61 77 58 43 34 33 33 34 39 44 46 50 53 61
22 20 24 36 35 38 46 40 71 44 82 80 78 82 82 90 42 80 33 26 28 35 40 56 77 76 76 73 62 31 28 36 51 59 67 75 60 40 36 34 33 36 38 39 44 49 55 59 61
29 24 24 31 46 32 36 40 50 72 79 54 74 89 79 80 55 27 45 30 28 26 25 22 22 46 56 54 22 22 30 38 60 71 72 50 44 40 39 38 37 39 40 42 46 51 55 59 63
27 23 22 28 28 28 27 32 52 59 71 72 73 78 81 79 75 24 31 36 39 39 40 36 34 47 58 50 37 38 42 49 64 69 65 55 48 43 40 42 41 40 42 45 47 51 55 61 64
25 24 28 25 31 26 25 26 30 36 57 71 70 67 72 78 79 19 27 30 36 40 42 45 48 48 51 60 55 51 51 51 52 52 59 57 62 69 54 43 41 42 44 45 48 53 57 58 82
24 24 33 27 26 25 27 28 28 28 41 58 66 67 65 70 74 68 19 24 29 33 38 43 47 49 51 53 54 54 56 59 63 68 74 78 83 87 90 94 64 46 47 46 47 49 50 60 97
27 37 30 29 27 27 24 21 30 23 31 39 51 64 62 65 65 70 32 28 29 30 33 36 40 43 47 50 55 57 61 63 66 68 74 80 78 87 91 99 99 99 98 73 54 52 57 75 99
29 34 32 31 30 30 27 23 32 23 23 28 35 46 60 59 62 59 66 45 29 31 33 33 36 40 42 47 50 53 57 61 65 74 81 85 88 90 95 97 99 100 98 95 99 75 77 94 99
32 30 30 34 34 32 27 25 22 36 23 26 28 32 45 58 59 58 59 67 71 40 45 44 40 39 41 44 49 55 63 67 73 78 89 89 87 83 88 98 98 100 100 99 98 99 99 99 99
32 28 29 58 58 34 33 25 21 22 26 28 26 26 29 42 56 60 60 64 70 51 45 49 53 55 57 68 65 72 78 86 84 87 94 91 85 98 99 94 86 99 98 100 100 99 99 99 99
30 32 26 26 34 35 32 24 23 26 23 25 29 33 33 36 45 56 58 65 74 81 91 49 49 51 57 60 66 83 83 79 87 91 84 77 69 69 84 96 90 92 92 99 100 100 97 99 97
34 35 32 32 51 45 24 22 22 22 20 24 22 29 32 42 40 39 48 64 71 81 89 74 49 59 65 70 80 88 85 83 89 92 76 55 53 74 88 88 92 95 100 99 99 99 94 90 73
35 37 35 32 29 39 34 26 25 24 24 25 26 27 28 35 35 16 20 29 46 76 82 84 41 49 64 71 73 74 80 79 78 61 55 60 69 77 79 84 89 88 100 99 99 93 100 92 98
31 31 32 34 37 39 34 32 27 26 26 29 28 30 32 29 27 26 23 20 18 35 39 42 46 48 51 54 66 69 72 64 37 56 66 59 60 75 76 73 77 82 95 91 99 99 100 98 94

GFSSGP_700_rhum_036.txt.gz
RH
14 14 15 28 31 26 20 16 15 11 15 28 37 54 40 50 41 48 50 48 69 89 46 50 59 64 57 46 52 49 36 24 19 16 6 14 17 19 18 20 24 28 28 28 32 38 40 38 38
14 15 28 30 29 21 14 20 14 14 29 37 34 41 49 45 51 72 54 48 57 66 61 52 56 67 59 50 62 58 44 29 21 12 11 18 21 21 22 26 29 32 36 39 42 41 39 38 37
12 13 34 30 26 20 15 18 22 22 22 40 37 67 70 75 46 60 66 56 68 62 68 69 63 71 60 54 70 63 51 37 23 10 16 20 24 24 28 31 34 39 44 44 43 43 41 32 28
15 38 34 23 14 13 14 16 15 21 28 31 40 64 82 59 54 58 60 80 88 92 76 84 67 60 71 61 72 70 62 42 23 13 19 23 26 28 35 36 38 42 44 46 45 47 45 24 23
31 27 25 19 17 13 13 15 16 27 32 39 46 70 52 57 50 44 46 42 72 96 99 74 79 74 73 66 69 77 70 31 17 20 25 28 29 36 39 40 41 42 43 48 52 52 44 18 19
38 28 19 17 15 25 18 21 25 34 44 42 55 62 61 51 60 54 40 49 49 56 96 95 77 69 73 77 74 79 56 25 16 23 30 32 32 43 43 41 43 43 46 54 54 45 29 19 20
32 25 21 17 25 32 33 36 41 53 45 48 68 60 57 52 60 54 59 55 58 73 99 94 89 92 84 78 82 73 39 20 21 29 37 36 41 43 43 42 42 44 46 56 54 50 25 21 21
27 25 22 23 21 28 38 37 53 47 50 58 82 85 75 68 64 59 65 77 92 79 94 92 96 99 94 86 81 58 23 25 39 37 44 39 44 45 44 44 44 44 48 61 52 43 23 25 24
27 25 24 28 22 25 25 37 42 50 70 60 82 83 83 69 67 59 60 73 86 94 96 88 84 92 97 99 76 41 49 65 54 48 49 49 47 46 47 48 45 46 51 64 54 37 25 27 26
25 23 29 23 26 28 29 37 54 65 59 55 68 86 81 77 69 70 67 68 88 95 92 92 99 100 94 95 92 80 88 59 46 56 58 60 56 53 49 48 46 46 53 66 53 32 28 31 32
23 24 28 24 28 30 37 49 52 64 55 42 52 84 82 80 78 77 72 83 81 83 85 94 99 100 100 98 96 96 78 43 59 75 82 75 58 57 49 47 46 47 60 69 53 28 32 32 36
22 24 24 25 28 33 47 58 56 64 49 51 51 66 76 78 73 71 80 98 97 96 93 99 98 99 98 100 100 100 78 89 84 89 87 94 91 72 56 50 45 53 71 69 50 29 35 37 28
22 24 26 26 29 38 46 56 73 71 44 60 67 53 52 60 58 66 74 80 72 88 100 100 100 100 100 100 100 88 97 99 98 98 93 95 81 65 54 46 48 60 77 58 35 35 40 34 35
30 31 28 26 28 40 48 64 65 86 62 54 37 57 89 93 94 80 77 79 81 93 95 100 99 100 100 100 99 100 99 99 92 96 95 92 78 68 49 44 52 72 77 57 33 38 41 40 40
27 29 25 27 30 40 41 37 63 97 78 49 46 42 52 62 87 37 47 63 91 98 96 98 100 100 100 100 99 99 99 100 98 91 84 78 64 50 44 54 66 83 62 43 34 37 45 41 41
29 24 25 31 37 56 50 46 44 77 87 68 46 41 41 37 30 31 38 40 60 97 96 94 88 98 98 99 100 100 96 89 89 82 70 56 45 43 54 65 79 62 44 36 37 40 45 45 48
25 22 25 32 38 46 52 60 57 66 85 94 76 82 86 79 46 32 26 38 46 50 57 61 64 76 95 98 85 82 76 78 77 62 42 43 43 52 68 80 64 42 36 33 37 40 43 47 55
24 28 26 33 34 33 50 59 55 76 74 74 78 85 93 84 48 31 19 27 47 47 39 40 44 43 36 52 85 74 68 57 44 43 53 54 58 69 74 62 38 38 33 35 37 39 46 51 56
22 28 31 30 38 36 36 65 45 49 70 73 72 76 79 90 35 22 21 23 26 28 38 57 61 61 62 58 36 38 37 37 38 42 60 68 81 52 55 48 36 39 37 38 39 42 46 51 54
21 21 24 26 33 29 22 44 45 39 65 62 69 72 73 80 42 20 28 33 34 34 27 30 48 58 62 57 32 26 29 34 37 58 71 80 94 45 47 45 40 42 41 41 42 43 46 49 52
22 22 20 24 31 29 24 21 53 55 62 62 65 64 68 75 39 18 25 28 34 35 38 42 46 49 54 53 33 30 32 37 46 56 59 59 66 56 52 51 48 46 49 44 44 44 46 48 52
23 21 26 30 28 22 27 28 30 38 44 58 61 64 67 75 74 26 21 25 32 34 37 40 40 42 44 48 43 46 42 45 44 45 48 57 62 64 72 83 94 95 91 85 57 54 55 54 55
23 28 30 28 24 26 29 28 21 28 30 42 54 61 61 64 70 62 19 19 25 30 34 37 39 41 42 45 47 59 50 51 56 60 65 69 74 80 82 95 94 93 97 99 98 98 100 97 86
24 30 34 32 25 32 33 25 23 26 26 28 37 53 59 62 58 66 50 26 26 29 31 34 36 38 40 41 49 52 58 60 62 63 65 68 74 78 74 85 86 91 100 98 100 99 100 99 99
27 28 30 33 33 40 31 26 26 29 27 33 32 39 64 58 62 64 65 58 28 27 29 30 32 34 37 39 41 47 50 52 55 58 65 69 82 83 81 87 84 85 98 99 99 92 100 99 100
29 28 34 45 55 44 53 34 23 23 29 27 26 26 42 51 46 51 60 62 63 35 27 30 36 37 36 37 39 42 60 50 64 65 83 76 82 90 85 90 82 83 90 97 91 90 92 100 99
29 30 27 27 49 65 70 45 23 22 26 24 24 28 29 29 46 52 58 58 59 63 57 38 42 47 51 53 54 64 71 75 79 77 96 85 91 85 85 74 79 77 90 88 96 100 94 98 100
28 28 35 32 44 55 34 30 26 28 23 21 24 24 30 36 37 42 59 56 59 62 66 70 62 52 54 48 48 55 59 66 80 78 97 90 87 81 64 71 75 75 81 86 95 90 99 83 99
28 29 37 44 31 53 47 34 32 34 22 23 24 25 27 32 45 30 30 50 59 62 66 82 65 94 82 88 79 72 66 77 84 84 85 79 73 61 65 61 56 62 68 77 86 88 82 99 98
29 29 30 34 36 35 37 38 30 33 27 26 28 29 28 32 41 38 24 24 22 40 69 77 81 94 94 97 96 98 89 75 80 74 63 49 60 67 62 56 55 66 74 80 97 97 97 96 99

GFSSGP_700_rhum_039.txt.gz
RH
13 14 16 31 32 34 28 24 20 22 26 34 27 33 35 33 50 49 55 47 45 52 90 90 88 82 63 52 49 38 26 19 15 17 8 9 13 15 15 14 17 20 23 24 27 30 32 34 34
13 13 19 30 30 31 25 19 20 19 21 27 34 24 37 32 32 49 42 42 51 50 71 96 92 79 61 54 52 39 27 20 18 13 9 14 16 16 17 20 24 26 28 34 37 36 35 34 32
11 31 30 32 30 29 24 17 20 20 20 31 40 48 50 56 45 43 35 44 73 64 68 81 72 96 96 64 56 46 31 21 20 10 14 17 18 19 21 26 31 35 38 38 38 37 32 27 26
20 29 33 28 21 18 18 20 16 16 16 29 40 54 70 62 58 47 48 48 49 81 94 96 83 80 92 72 66 57 35 23 20 12 18 22 23 23 29 33 37 38 42 42 40 40 26 20 26
25 30 29 28 24 23 25 14 14 21 41 41 34 51 50 54 46 51 43 46 58 77 65 99 84 98 96 89 98 84 51 26 18 15 20 24 27 32 36 37 38 40 42 41 43 40 17 17 18
32 37 36 33 27 28 26 26 20 30 49 65 59 65 60 59 51 51 52 49 63 72 62 62 100 90 96 99 97 94 60 26 17 19 26 28 35 40 40 40 41 44 48 45 38 29 17 19 20
29 29 28 27 24 34 29 31 35 40 46 65 64 68 64 60 63 55 62 68 68 67 82 86 97 99 87 76 91 83 40 21 16 24 30 32 41 47 43 43 43 44 52 47 41 23 20 22 23
33 32 26 26 27 28 30 38 40 44 56 53 49 43 53 69 74 75 68 78 71 75 97 98 100 99 96 99 97 70 24 18 21 27 34 39 44 48 46 46 46 44 52 50 39 24 23 24 22
26 27 27 28 26 27 28 34 36 40 59 57 58 58 67 74 75 81 70 70 81 76 68 90 100 100 99 100 96 64 20 26 34 38 38 40 49 48 49 45 44 48 52 56 40 23 25 25 25
28 26 24 28 27 27 30 38 48 52 59 42 52 62 65 61 76 72 74 76 82 77 79 97 75 89 97 97 94 54 49 31 40 46 44 49 52 54 49 49 45 47 58 59 42 25 28 29 28
26 24 24 25 26 30 31 50 56 60 58 52 49 57 70 70 74 78 77 73 72 76 84 100 94 98 95 85 94 87 73 50 68 56 47 52 55 49 52 54 51 46 51 63 45 28 30 30 23
23 22 23 25 25 28 36 54 63 53 63 48 59 54 54 50 59 72 75 74 69 69 78 91 88 98 100 99 100 100 80 66 80 56 59 59 66 58 64 61 56 46 57 62 44 31 30 27 28
24 24 25 27 26 28 41 48 61 49 72 60 44 37 72 67 60 60 58 65 81 68 70 74 99 87 96 100 99 99 99 96 83 82 78 79 70 76 68 60 46 48 62 65 44 32 32 34 39
30 29 30 29 26 28 35 44 53 50 63 47 37 40 96 97 94 82 76 78 82 98 95 96 100 77 98 100 100 100 99 79 72 95 87 78 74 77 66 59 47 46 67 66 37 34 37 40 40
32 34 29 26 26 31 42 45 45 51 53 75 40 35 42 93 69 40 43 66 99 100 100 99 96 99 100 95 100 99 98 77 98 97 85 78 73 70 62 63 52 51 60 48 37 36 36 42 43
36 30 28 24 30 33 38 43 55 50 52 75 43 41 41 38 26 45 48 55 74 96 96 99 99 99 99 100 98 100 91 92 91 92 87 78 70 67 66 49 46 60 54 48 35 34 37 38 42
31 30 24 25 28 35 35 45 43 50 65 79 78 56 52 26 36 30 37 38 52 53 63 80 93 98 100 90 97 98 99 94 97 99 77 74 73 65 53 45 58 52 44 39 37 36 37 41 47
31 29 28 32 40 44 41 50 46 41 66 60 65 72 60 32 39 31 28 29 27 27 30 40 54 70 85 96 100 100 74 78 75 78 69 66 58 45 45 57 51 37 39 39 35 36 38 42 48
28 26 24 27 33 42 41 46 42 42 70 77 71 70 70 56 27 24 24 38 32 37 44 34 31 36 48 48 58 68 63 64 59 51 48 43 44 50 62 64 42 37 38 38 38 38 40 42 47
31 29 23 21 35 32 38 34 43 43 46 69 68 72 71 54 27 20 24 29 30 32 41 48 48 48 39 42 40 46 42 38 43 43 50 51 60 64 69 60 42 45 44 42 42 42 42 44 46
31 29 22 22 32 33 30 48 52 44 42 70 68 70 71 33 28 19 28 31 34 35 35 37 46 53 48 30 32 35 35 39 39 39 64 93 75 72 60 59 49 48 48 49 47 51 52 48 50
29 23 22 23 27 30 28 36 47 46 51 58 59 60 67 37 32 28 20 25 32 32 33 35 36 36 42 38 38 37 35 36 39 45 56 65 69 76 76 72 69 74 84 87 89 83 83 99 85
27 22 25 30 32 31 27 32 31 45 55 62 57 47 60 46 39 27 15 18 28 33 32 33 35 35 37 37 39 39 39 42 42 44 48 61 59 63 66 79 84 82 81 81 75 99 100 100 99
24 24 26 29 31 41 27 32 32 42 44 51 57 53 49 41 41 36 22 18 22 28 32 33 35 37 38 40 41 42 44 47 50 53 56 61 68 73 86 82 84 89 88 83 83 93 99 98 98
26 27 36 42 50 55 37 39 34 32 27 29 36 48 42 47 42 34 29 20 23 23 23 28 29 30 35 38 40 40 46 53 58 60 60 61 68 85 96 95 90 83 87 82 84 97 96 95 99
27 27 34 48 68 51 39 40 34 38 29 26 36 32 34 40 37 43 38 31 28 21 22 24 26 27 30 33 34 39 41 46 51 51 52 62 82 79 80 97 92 81 74 79 88 90 89 99 97
26 28 27 30 50 55 44 38 33 33 31 28 30 28 28 33 44 51 53 53 48 45 46 32 27 29 32 35 36 40 38 44 46 56 69 80 80 82 99 97 86 78 76 80 85 79 88 91 98
27 28 31 31 68 68 54 42 40 33 27 28 24 28 29 30 39 46 58 52 56 52 56 57 59 60 50 52 50 48 52 53 57 63 84 90 91 89 78 91 82 78 69 77 80 80 83 89 100
28 29 29 34 41 65 63 41 34 35 34 23 23 23 27 34 38 49 52 58 60 62 65 62 60 66 52 60 59 73 74 68 57 69 96 100 100 98 74 73 73 66 64 65 72 86 90 99 99
28 29 28 39 49 41 49 46 33 32 29 27 26 26 27 27 27 30 36 45 49 56 66 74 69 69 70 58 52 81 81 92 98 94 100 100 57 65 58 65 67 67 62 73 82 92 100 100 82

GFSSGP_700_rhum_042.txt.gz
RH
12 13 12 20 28 30 28 18 21 21 28 26 32 37 40 30 42 48 46 45 52 54 81 76 97 99 100 78 56 39 21 18 14 12 12 8 10 13 14 14 15 17 19 21 24 25 25 25 27
12 11 16 29 28 29 23 21 23 22 42 34 39 36 43 40 44 59 60 60 62 57 58 63 87 98 100 97 74 38 22 16 13 16 13 10 11 14 14 16 20 22 22 25 29 30 31 26 24
10 23 29 32 31 27 24 27 28 36 19 21 38 47 50 48 53 59 62 58 63 53 61 51 41 88 100 99 82 68 24 15 18 17 11 13 13 14 15 20 24 29 29 30 30 30 29 26 23
11 24 33 34 29 26 29 30 27 22 16 17 26 37 53 52 49 50 52 62 49 60 83 90 85 80 98 93 95 80 27 17 19 14 13 15 15 16 20 24 29 33 35 33 33 31 25 16 14
26 25 28 29 27 26 35 39 32 24 22 33 40 40 49 52 52 53 52 56 56 66 77 86 84 99 88 72 94 88 26 17 14 14 16 17 19 23 30 31 33 35 35 36 38 30 19 13 14
22 33 34 29 27 31 33 38 35 33 33 39 43 40 38 52 55 53 52 60 58 80 81 69 56 71 98 97 88 79 24 16 15 17 20 21 25 30 32 35 36 38 40 37 36 19 15 12 12
29 31 29 27 30 33 35 38 34 33 32 43 50 52 46 46 47 44 50 66 70 70 72 73 67 83 86 100 99 69 23 16 19 23 24 28 29 34 35 37 40 42 44 39 24 19 22 14 12
29 28 25 29 28 30 30 34 36 38 42 55 38 37 52 51 49 72 66 64 70 80 81 96 92 94 100 100 98 84 62 25 23 26 28 32 38 40 41 42 45 42 46 39 28 20 22 20 16
27 29 25 25 27 27 28 30 40 49 50 53 39 43 59 58 56 59 59 60 65 68 66 59 100 99 100 100 100 90 82 36 28 33 33 38 41 45 42 43 48 43 48 37 25 22 23 22 20
29 27 25 24 28 28 30 34 50 49 49 46 43 52 61 62 62 66 65 66 65 69 68 69 92 99 100 98 98 93 65 26 33 36 39 44 48 46 44 44 45 54 50 41 28 26 27 26 24
27 26 23 24 26 28 29 32 42 52 46 55 40 38 56 76 81 75 72 70 68 70 78 79 79 75 97 100 96 72 36 27 36 36 39 53 51 46 43 47 54 51 49 47 31 28 27 29 25
35 28 23 22 26 27 28 30 46 50 50 44 42 32 44 61 78 86 78 76 76 77 72 90 100 86 88 90 92 87 75 63 38 44 44 52 50 45 50 54 56 49 47 57 36 30 31 31 21
37 35 26 25 29 27 28 34 37 41 44 41 31 32 53 97 71 87 87 76 72 78 74 100 94 98 98 98 100 86 92 87 50 50 52 54 57 52 59 64 60 45 50 64 41 29 32 29 25
36 36 29 30 26 29 31 36 36 41 46 45 39 32 51 95 79 73 93 79 95 97 95 90 100 100 100 97 98 99 99 71 70 57 58 59 63 62 64 61 60 44 50 65 45 30 31 31 34
36 34 28 26 26 27 34 38 39 41 50 48 37 40 35 80 68 44 49 80 98 98 100 97 82 100 89 100 100 100 99 82 96 66 68 75 65 68 64 69 56 51 50 65 49 30 31 36 37
29 30 27 24 26 31 32 41 35 42 38 45 47 38 28 26 35 31 42 53 98 99 97 96 98 99 94 100 88 100 98 98 93 91 82 70 71 70 76 62 67 49 54 64 40 29 33 35 36
21 28 28 27 29 31 37 40 36 42 40 44 43 38 25 30 19 21 29 42 60 67 95 100 100 99 100 99 100 100 100 100 99 97 86 85 74 75 71 64 54 45 59 47 37 31 30 32 37
21 31 31 31 34 33 35 40 38 46 42 58 50 37 24 28 20 18 27 29 32 39 64 94 98 100 98 100 92 99 100 100 100 88 98 81 74 73 64 52 43 52 45 35 30 30 32 35 39
18 29 32 29 31 32 32 36 42 47 43 54 45 28 37 37 16 16 26 30 34 37 29 39 58 75 95 97 89 98 98 100 98 97 98 81 70 66 56 42 48 46 38 36 35 38 41 40 41
26 30 32 33 30 35 37 36 41 50 45 44 35 39 37 52 24 18 26 30 32 39 40 34 31 33 43 57 76 81 66 62 62 62 72 66 70 47 46 45 49 41 42 40 42 42 43 43 43
32 34 33 32 23 32 33 32 32 44 46 46 31 44 60 52 50 19 24 30 29 31 34 38 37 30 29 29 38 40 46 47 48 45 44 53 42 43 51 61 53 46 44 44 45 54 68 75 72
40 35 32 26 24 31 30 38 30 30 41 49 42 37 44 45 50 36 22 22 29 30 32 31 38 32 29 30 31 32 34 34 38 43 48 56 55 67 65 65 58 59 56 62 79 85 87 96 100
40 36 32 24 31 32 30 32 28 32 36 43 51 41 38 40 48 46 18 20 31 29 31 34 35 42 36 36 35 35 34 36 38 41 49 64 81 69 69 71 74 76 75 80 89 92 90 94 92
37 34 28 30 28 42 30 34 31 30 30 38 46 47 45 42 31 30 42 28 21 32 32 34 36 38 41 41 40 39 38 37 38 40 44 49 55 59 62 65 76 84 89 91 93 94 91 89 98
34 34 36 44 52 56 33 37 31 30 35 32 38 34 38 39 38 42 31 24 19 22 29 32 33 35 38 39 39 40 42 43 43 45 48 50 54 60 66 80 98 98 97 90 88 84 86 92 97
33 33 35 54 70 45 38 45 37 33 34 33 43 39 40 38 33 37 32 30 24 21 24 27 28 29 29 32 34 36 38 44 51 54 57 60 60 64 81 98 99 87 96 89 85 72 75 84 85
33 33 32 29 46 55 38 34 32 29 30 33 35 36 43 33 33 32 34 41 43 38 24 23 26 27 27 27 30 32 35 36 38 43 52 66 71 82 90 96 96 96 98 97 80 79 81 83 75
33 32 30 35 55 65 55 44 33 29 32 32 31 33 34 31 31 36 37 42 49 50 52 51 44 46 49 42 32 33 34 34 35 38 45 62 78 92 99 99 95 78 91 76 74 74 86 81 86
33 30 30 29 34 64 66 47 36 31 31 31 33 32 31 33 31 31 35 41 48 56 59 54 54 59 62 61 53 58 62 69 67 52 61 91 94 100 96 80 87 89 79 80 82 84 79 86 97
34 31 30 32 49 43 39 42 35 36 34 31 35 33 27 26 30 34 34 46 52 56 62 61 66 56 55 61 69 82 77 75 81 90 99 78 100 99 48 59 62 53 64 77 72 75 86 97 100

GFSSGP_700_rhum_045.txt.gz
RH
8 10 9 12 28 30 25 24 30 23 28 37 37 28 36 38 44 44 37 41 41 65 69 69 89 83 75 82 91 80 74 13 6 8 8 7 6 6 7 9 11 10 10 12 12 15 17 26 30
8 9 12 24 28 29 26 26 37 22 28 30 31 30 27 37 38 44 41 52 56 66 68 85 88 73 84 61 96 91 77 14 10 10 9 9 10 11 12 12 12 13 14 14 16 19 24 29 30
8 14 22 27 28 28 30 32 32 36 30 33 29 26 26 28 35 41 54 51 55 57 55 65 80 86 80 86 92 94 36 17 14 13 13 11 13 13 14 14 16 17 19 19 22 21 25 26 23
8 20 29 30 30 28 32 37 37 38 40 41 38 40 41 43 42 46 51 54 55 61 64 79 88 85 82 79 99 94 36 14 19 19 17 16 14 14 16 17 19 22 23 24 25 26 24 20 19
16 21 26 29 29 33 33 34 36 35 36 34 34 39 46 46 46 51 53 52 57 55 60 71 95 91 91 97 97 85 58 20 24 22 20 17 16 17 18 19 24 27 28 28 27 27 17 17 18
12 24 29 30 32 33 34 39 35 34 34 35 37 39 46 48 44 52 52 57 62 73 68 70 99 92 92 95 99 77 35 24 32 25 22 19 19 22 23 23 28 30 31 30 29 27 13 12 14
24 29 25 30 30 33 34 30 30 35 47 47 51 45 37 55 53 50 54 61 66 74 74 86 98 93 83 90 100 96 64 24 35 27 25 24 24 29 29 28 31 34 34 31 29 24 14 13 14
30 25 27 27 26 28 30 28 32 40 47 45 42 35 42 57 56 56 66 70 73 80 81 80 95 98 92 76 96 96 68 34 32 28 28 31 34 35 35 33 38 37 37 33 27 18 18 17 15
29 28 26 25 26 30 31 31 32 40 48 44 39 30 32 46 62 60 81 86 73 67 69 82 76 85 99 92 98 93 76 33 33 32 38 36 38 40 37 38 41 40 37 33 28 16 18 21 20
30 27 26 25 25 26 33 31 32 39 46 46 42 33 35 50 72 66 81 81 79 78 73 76 72 100 100 100 100 96 47 42 56 43 37 38 43 41 41 43 50 48 42 36 24 21 20 23 22
30 28 31 25 25 26 30 32 28 36 40 44 40 34 33 49 66 63 76 75 76 84 88 87 79 97 99 100 100 99 97 99 76 46 40 46 47 43 42 42 50 53 46 31 27 24 23 24 22
33 33 37 24 25 30 31 33 29 40 40 44 35 28 28 30 59 67 71 76 76 91 98 99 94 81 96 93 98 98 98 96 62 43 40 47 46 45 43 47 50 46 43 40 26 25 24 27 22
34 35 35 28 30 32 29 32 29 37 40 46 39 27 50 80 69 68 75 96 98 92 98 100 100 92 85 96 94 98 98 94 96 49 44 44 49 45 45 49 52 55 45 52 34 26 28 28 24
32 33 33 31 30 30 29 29 29 32 37 43 34 30 45 80 80 53 50 54 99 99 91 95 97 91 99 99 98 88 72 96 52 46 42 48 53 47 49 55 59 61 44 53 43 28 30 28 25
27 32 32 30 29 28 28 28 30 33 39 41 42 21 24 44 45 44 46 97 97 95 98 98 90 100 100 100 100 99 52 86 47 46 50 56 55 54 55 59 63 58 44 51 50 32 32 32 27
33 34 31 24 25 26 29 31 34 39 39 43 34 18 21 24 26 36 46 56 92 100 100 91 83 99 100 99 100 100 95 96 80 60 56 58 60 62 68 62 62 58 47 51 51 37 33 32 30
22 26 26 26 29 32 30 29 38 38 38 43 46 16 21 27 22 26 30 44 66 92 98 100 98 99 99 100 97 100 100 100 90 82 65 62 63 73 72 64 68 64 45 53 53 39 31 32 33
17 19 20 28 30 34 37 32 37 37 40 44 42 26 21 21 20 19 27 30 37 69 84 100 99 100 100 100 100 99 100 100 83 92 80 81 69 78 70 68 71 64 43 52 35 29 29 33 36
17 24 23 28 29 33 30 43 36 39 41 46 43 27 26 20 17 17 25 29 35 33 47 63 84 98 100 100 99 99 100 100 91 94 95 97 80 77 70 72 69 60 46 46 36 31 32 34 37
20 21 20 30 29 32 32 37 35 35 33 45 46 31 26 25 16 17 20 27 29 34 34 30 43 67 92 99 98 100 100 100 99 95 98 97 85 81 72 74 66 46 48 50 39 38 40 42 44
25 27 28 32 31 32 39 35 34 31 31 40 44 38 23 21 21 16 21 28 24 29 37 35 28 32 62 89 94 95 99 97 100 99 98 93 88 74 74 72 64 44 50 51 46 43 45 49 63
28 23 34 39 40 32 31 42 30 31 30 34 41 38 25 29 19 16 15 20 26 30 28 37 34 26 30 42 48 54 57 50 70 80 73 71 75 75 72 70 53 52 62 51 47 47 60 85 90
30 37 40 40 39 34 34 36 33 30 30 30 34 34 35 28 25 19 16 17 28 28 31 29 31 28 29 31 31 31 36 38 44 46 45 48 54 65 62 56 51 65 65 58 58 76 84 98 96
38 40 40 39 35 48 31 31 31 30 28 25 30 36 36 39 30 34 44 18 18 26 28 32 31 31 31 32 33 33 32 34 38 42 47 51 57 54 57 65 68 74 70 76 79 91 98 97 96
42 42 42 44 52 55 31 39 32 31 26 28 31 30 30 34 38 36 42 22 16 19 24 26 27 27 27 30 31 33 36 37 37 38 41 46 52 57 62 60 68 69 76 94 92 99 98 94 89
36 40 43 53 67 43 33 46 33 30 31 32 33 28 30 35 38 38 42 45 40 20 20 25 25 28 26 28 31 34 37 40 42 41 41 42 43 46 47 46 54 70 87 84 98 100 99 96 93
34 43 36 37 44 56 35 36 30 30 28 28 29 34 30 29 36 34 36 38 51 52 33 22 24 26 27 27 30 33 37 39 41 46 48 46 49 53 59 61 72 99 98 98 100 98 90 85 89
38 36 36 40 54 69 52 48 32 29 28 25 32 32 29 30 33 28 28 36 38 44 50 55 49 28 28 29 30 31 35 40 44 49 53 59 70 82 93 99 86 95 99 99 88 91 79 84 73
39 39 39 37 37 46 48 39 29 29 29 35 33 32 29 27 26 26 29 32 35 38 48 52 53 55 57 54 53 59 61 62 56 69 70 65 78 80 87 87 99 95 95 94 82 85 83 83 74
34 41 37 38 42 42 36 36 33 32 34 34 33 36 30 29 32 31 30 31 34 36 40 50 55 56 54 52 52 53 66 95 98 96 82 100 96 98 80 99 99 68 67 76 63 76 81 81 81

GFSSGP_700_rhum_048.txt.gz
RH
10 8 8 12 23 25 28 26 32 32 32 38 47 38 37 27 33 37 35 30 39 42 44 46 64 86 91 86 79 78 70 50 54 66 64 25 9 6 4 4 8 11 11 14 13 13 14 16 20
10 8 13 19 24 27 32 33 32 31 34 38 39 43 42 35 31 37 35 37 39 43 45 67 76 82 94 88 80 75 68 65 17 11 10 8 7 4 5 9 10 11 13 16 15 15 19 21 24
9 8 20 22 25 28 33 37 34 34 37 41 42 42 42 43 47 50 50 48 50 52 56 71 75 95 92 92 82 81 73 77 46 11 9 7 5 8 12 13 12 14 16 16 17 20 21 23 25
9 9 24 27 28 32 32 34 38 34 33 31 32 32 38 42 50 48 51 57 59 60 62 61 73 98 98 96 92 93 90 83 51 10 9 6 12 17 16 15 16 18 19 20 20 23 26 26 22
10 16 20 27 32 34 33 33 32 29 30 36 42 43 44 47 52 51 54 56 57 61 70 73 90 100 95 87 99 97 100 75 51 12 11 17 20 22 19 20 21 21 24 25 25 25 20 18 20
14 20 25 32 32 34 31 29 28 29 32 42 46 46 45 43 53 54 54 54 62 66 69 76 98 97 92 89 96 95 90 42 64 21 21 22 26 26 27 27 24 27 27 26 27 21 16 18 18
12 13 26 32 32 32 29 32 30 31 38 48 47 49 35 38 51 58 60 59 64 74 79 78 85 98 99 100 86 88 93 54 33 25 27 29 32 34 37 32 29 31 29 27 28 15 12 12 12
19 21 25 28 27 28 30 32 35 36 40 47 47 45 33 37 52 68 63 61 67 70 76 81 87 82 80 92 89 96 92 79 46 29 32 36 43 47 44 38 32 31 29 29 24 15 13 14 13
27 23 26 26 26 26 26 30 40 40 39 41 44 45 38 34 43 69 70 88 87 78 78 91 90 84 98 82 96 100 93 91 46 37 42 45 53 52 48 40 36 36 34 27 21 19 15 17 18
24 22 26 28 31 28 27 27 33 41 44 40 47 41 30 28 57 76 79 90 92 81 70 83 95 88 92 99 98 100 100 84 67 48 49 55 58 54 51 45 44 40 36 34 30 26 19 21 21
27 22 29 27 33 25 26 29 32 39 40 39 49 43 30 28 42 65 78 73 70 76 86 100 83 80 94 99 100 98 100 97 91 55 61 65 59 55 50 46 47 46 40 34 26 21 21 23 18
30 28 34 25 30 26 30 31 33 37 36 42 49 38 33 54 50 70 85 93 77 87 99 93 89 90 98 100 100 100 100 100 94 77 60 74 60 54 50 52 56 52 45 34 25 22 24 26 19
30 28 32 32 29 28 31 30 34 30 31 43 46 39 33 86 99 86 76 88 94 100 100 100 99 97 96 100 100 100 100 99 98 91 76 86 62 53 47 51 51 50 49 45 29 25 25 28 23
30 30 26 30 30 30 30 30 28 28 31 40 45 31 27 57 67 60 58 63 78 100 98 99 93 100 99 100 100 99 100 99 97 97 87 77 63 52 48 52 52 53 51 47 41 26 29 30 26
28 30 29 29 26 30 30 28 26 30 34 42 46 26 20 26 29 38 40 52 62 98 97 97 99 100 99 99 100 100 100 100 100 94 80 76 61 52 50 55 55 55 53 47 49 32 30 32 32
29 26 25 24 29 29 30 26 28 31 38 44 48 43 19 22 19 28 35 45 63 100 100 100 99 100 99 98 100 98 100 100 99 89 78 71 65 59 59 58 58 58 60 46 50 40 28 30 32
26 23 23 24 28 30 33 30 30 32 38 42 49 48 20 22 19 20 28 37 58 87 100 100 100 96 100 100 97 99 99 99 98 89 74 76 81 62 63 60 62 70 62 54 53 45 33 29 29
19 19 19 20 27 29 31 29 31 35 40 43 43 48 25 20 20 16 25 32 39 74 99 93 99 99 100 100 99 99 81 86 96 92 82 89 90 70 65 74 76 68 70 66 52 48 39 33 30
22 26 26 18 27 30 30 29 31 38 39 36 39 48 32 23 20 14 20 28 36 34 57 85 97 95 98 100 100 100 98 95 98 99 98 97 97 83 74 83 78 72 73 66 53 56 44 37 32
28 29 18 25 25 34 30 30 29 29 34 32 36 45 42 34 23 16 19 27 30 39 33 49 88 97 100 100 99 100 100 100 99 99 96 96 98 94 83 84 86 77 75 66 52 47 42 36 38
29 28 15 18 26 34 37 28 33 27 32 30 31 37 44 32 29 20 18 22 28 31 38 32 41 71 98 100 100 100 100 100 99 98 97 90 96 96 89 99 82 71 74 69 51 46 41 42 45
23 19 17 18 32 43 41 45 26 28 27 27 30 33 40 27 22 19 15 19 27 28 28 37 27 35 62 78 93 83 98 99 99 98 94 90 91 94 94 82 78 74 77 66 49 50 47 47 48
23 21 23 31 43 45 41 47 36 27 25 27 26 26 34 36 30 25 19 18 26 26 28 28 33 28 29 35 39 48 48 64 88 90 96 98 98 96 90 84 74 77 77 64 51 54 56 53 61
25 32 39 44 44 57 39 39 34 32 29 26 27 25 31 36 36 26 18 18 19 24 25 25 27 29 29 30 30 31 36 40 50 49 56 62 71 70 60 59 66 72 72 52 55 64 68 77 92
34 37 48 49 60 64 35 38 34 28 27 24 27 24 26 31 39 35 27 16 15 17 25 25 24 25 29 30 31 32 33 35 38 42 44 45 45 46 47 50 52 51 52 58 75 81 87 89 96
46 43 47 58 69 45 38 46 30 27 28 29 30 31 27 28 31 40 34 33 25 19 17 23 25 27 25 28 30 32 34 35 36 37 39 42 47 52 57 60 64 68 69 73 97 98 91 99 100
39 48 42 44 49 60 39 35 33 30 29 28 27 30 28 28 28 31 40 42 42 30 27 22 20 26 26 27 31 32 34 36 39 40 39 39 40 42 44 47 48 51 51 50 59 59 90 96 99
42 38 44 45 54 64 51 49 33 29 29 28 30 27 31 32 30 30 31 34 43 34 35 40 46 41 26 26 29 32 34 35 38 41 44 44 42 39 39 39 61 74 78 77 82 85 100 99 95
42 47 44 43 42 58 58 42 32 29 28 30 34 26 32 31 29 29 27 27 35 38 39 43 50 48 51 47 36 33 36 36 42 44 47 53 63 62 63 59 55 71 100 100 100 99 98 90 96
43 44 44 43 45 50 47 42 33 31 33 32 32 29 32 30 28 25 25 28 32 32 34 35 39 48 51 52 55 53 58 64 60 65 74 91 81 94 96 85 93 95 96 100 99 94 84 83 85

GFSSGP_700_rhum_051.txt.gz
RH
10 8 8 13 21 26 30 30 30 30 28 36 41 49 51 45 43 35 34 35 39 35 47 55 56 54 68 76 78 88 76 73 61 45 30 83 86 82 13 5 4 9 12 14 14 14 13 17 21
11 8 10 20 25 28 34 34 32 31 30 30 33 35 38 40 38 41 37 43 46 52 53 72 58 64 75 84 81 85 80 77 61 40 32 79 82 40 11 5 11 14 15 15 15 14 17 21 24
11 7 17 21 26 29 34 33 31 29 28 28 29 31 32 31 40 44 43 52 48 56 68 70 58 73 87 91 88 89 77 77 55 33 29 32 20 10 10 9 16 17 19 17 16 20 23 25 27
12 8 21 25 28 31 30 31 28 28 29 32 37 39 40 42 45 52 52 56 51 62 72 70 58 74 82 95 91 88 78 72 57 34 14 13 10 9 6 16 19 20 22 20 23 24 26 26 26
12 9 18 24 30 30 31 30 27 26 32 37 44 45 43 45 48 45 54 57 60 63 75 70 54 82 89 98 88 83 79 77 68 47 34 10 8 6 17 18 22 23 22 28 28 30 29 26 26
13 13 22 27 32 32 30 28 28 29 34 40 48 46 43 37 38 43 56 58 60 64 70 76 81 98 100 99 93 94 92 85 82 90 14 8 6 16 20 24 27 31 30 30 30 27 23 23 28
13 14 17 31 32 33 31 30 31 35 38 45 51 48 41 39 33 32 46 58 62 70 73 91 90 93 98 98 100 100 100 98 97 40 55 7 15 22 25 30 37 36 35 33 27 22 21 24 20
14 13 21 31 29 29 29 30 31 34 39 46 49 49 47 40 34 34 42 63 61 65 75 98 97 73 98 99 99 99 96 97 97 53 27 18 23 27 32 40 41 39 38 32 22 16 16 13 12
15 24 21 29 26 26 26 26 27 29 34 44 52 49 48 37 31 35 60 65 62 68 72 98 96 91 95 96 98 100 98 98 99 93 27 27 29 34 38 48 44 41 36 24 17 15 16 14 13
16 24 17 28 28 27 27 26 28 30 32 38 51 49 46 35 27 32 67 67 80 88 76 86 98 94 96 99 99 96 98 99 98 43 29 33 33 40 50 51 44 35 26 22 20 17 17 18 18
14 14 22 28 29 30 25 26 29 30 31 39 50 51 40 32 42 39 75 72 86 89 92 88 91 78 89 84 86 93 99 100 98 51 39 36 43 53 54 48 43 35 31 29 32 26 20 23 17
22 24 25 28 32 30 25 26 29 29 30 34 46 48 29 62 85 85 83 68 69 80 87 95 94 97 91 98 99 98 99 100 99 61 46 44 49 61 55 50 44 46 34 26 28 44 24 24 17
29 28 28 28 29 29 26 26 29 27 30 34 42 48 23 39 70 74 76 68 64 65 97 99 99 98 93 99 100 100 100 100 97 61 63 60 64 61 58 55 52 48 38 37 39 29 25 25 19
26 28 28 26 27 28 27 24 26 27 31 36 40 48 23 23 36 50 58 62 59 72 90 96 95 100 97 100 100 100 100 100 99 75 74 80 74 65 63 58 52 46 46 46 48 27 25 26 22
28 30 29 28 27 30 30 25 26 28 31 36 43 49 28 21 24 32 41 42 59 66 95 95 90 97 98 100 99 100 100 100 100 88 89 99 76 77 62 64 53 53 53 52 49 37 29 30 27
27 28 27 26 26 26 31 25 28 30 32 39 47 52 43 22 19 25 30 36 49 81 86 98 91 100 100 98 99 100 100 99 100 98 98 85 98 79 63 67 66 58 58 58 55 53 30 32 33
22 29 26 22 28 30 28 30 31 32 33 36 44 51 50 20 21 18 27 34 46 76 99 96 91 99 98 100 100 100 100 100 100 99 93 99 88 67 61 67 63 59 64 70 57 59 45 32 36
22 20 21 19 20 25 30 30 29 28 35 39 40 45 49 32 20 19 24 29 37 69 96 96 99 100 100 100 100 100 100 100 100 96 96 99 83 68 69 67 67 70 73 80 66 55 58 39 35
22 20 21 19 22 26 28 30 27 31 35 33 34 39 49 45 23 18 20 28 34 37 73 100 99 99 99 100 99 100 98 100 100 99 90 95 93 81 79 75 76 80 81 94 80 62 62 49 42
23 22 20 17 22 24 27 31 27 29 28 32 34 32 46 48 29 20 20 27 30 37 37 63 94 100 97 100 100 99 99 100 100 97 92 94 88 85 86 80 79 84 89 89 79 63 55 56 43
25 31 22 19 21 26 26 33 26 26 30 28 30 31 36 43 42 25 20 23 29 30 34 31 60 93 99 98 100 100 100 100 99 98 91 86 90 93 94 88 83 88 94 88 79 74 52 56 48
30 27 27 25 25 29 37 40 35 25 23 25 25 28 31 37 43 21 17 20 27 29 29 29 29 54 99 98 100 98 100 98 98 100 99 94 86 93 96 90 86 91 97 90 77 75 64 54 46
27 31 27 25 28 37 45 45 37 27 23 24 24 27 28 29 40 33 22 17 25 26 27 29 27 29 49 72 83 100 99 100 100 99 100 100 100 98 97 88 90 89 91 80 74 76 72 58 57
35 32 32 41 47 53 49 43 37 32 22 22 25 23 24 26 37 39 25 15 15 22 22 23 26 27 28 34 49 68 86 83 92 97 100 99 100 86 89 90 96 94 83 70 68 76 78 67 61
45 43 44 50 56 48 39 44 35 31 26 22 23 24 28 32 36 40 31 19 13 16 20 17 20 24 27 28 30 34 43 53 58 70 73 77 82 84 87 93 95 92 78 71 72 76 75 71 65
35 47 42 48 54 40 46 44 32 26 26 26 24 29 30 31 32 38 40 33 25 16 18 21 17 19 22 24 29 31 32 34 36 40 44 47 50 65 81 82 73 64 62 67 70 74 76 68 65
51 54 37 48 51 54 43 38 32 31 29 29 26 25 25 28 30 32 39 35 36 32 21 18 21 22 20 24 25 26 29 31 34 36 38 41 46 48 50 51 51 54 59 66 67 71 79 75 71
46 39 49 49 48 50 47 44 36 30 27 22 27 28 26 29 30 32 33 38 43 43 38 34 28 22 23 25 27 27 30 32 35 37 39 39 39 40 45 49 53 56 56 58 63 66 62 54 52
51 53 46 46 44 45 49 43 32 30 32 31 31 34 32 29 33 34 32 36 40 49 50 40 39 44 47 37 26 25 26 28 32 36 39 42 44 46 48 45 44 45 48 49 50 58 66 70 82
48 48 48 52 48 53 52 45 34 33 34 34 32 28 28 27 30 31 31 32 30 38 41 34 41 42 46 50 53 51 49 43 44 49 49 51 53 54 64 64 67 80 76 70 72 62 70 98 100

GFSSGP_700_rhum_054.txt.gz
RH
9 10 6 9 30 23 20 23 27 27 33 25 28 30 51 41 56 51 26 32 35 33 35 36 64 62 57 52 67 50 86 72 68 76 73 68 32 64 68 16 3 9 12 13 14 14 14 18 20
9 10 8 21 23 17 20 27 27 28 29 27 27 28 30 57 27 31 30 40 41 36 42 45 63 63 64 69 76 84 69 71 77 82 82 73 46 59 85 15 6 13 14 16 16 16 19 22 23
10 11 20 26 21 16 20 27 29 29 27 29 37 31 39 47 38 39 37 45 40 41 48 57 69 76 80 88 87 83 78 76 78 73 66 65 54 40 50 14 10 15 18 18 18 19 23 24 25
11 11 16 23 19 23 23 27 29 29 32 34 40 51 39 43 44 46 43 53 45 47 48 63 74 84 92 90 94 87 83 83 78 70 55 50 41 31 13 12 16 18 20 22 21 23 25 27 27
11 12 22 22 22 27 29 30 27 29 33 37 42 58 45 39 40 36 43 47 57 56 58 66 82 89 98 98 92 88 88 87 82 77 60 35 16 11 11 11 19 26 27 24 25 27 26 27 27
19 17 20 15 22 28 30 30 27 30 34 47 42 49 48 44 41 33 30 40 57 53 59 66 77 88 96 81 90 89 85 85 82 79 51 30 12 9 7 18 22 32 42 32 32 30 26 26 27
24 26 18 19 23 28 30 29 30 39 43 51 40 48 46 43 46 39 34 35 51 55 58 66 78 89 82 97 95 93 89 90 86 80 54 30 10 7 11 21 30 31 40 35 32 26 24 27 31
19 25 20 18 24 24 30 29 28 27 35 30 34 50 61 43 45 38 33 36 41 62 64 71 80 96 95 100 99 97 90 95 90 93 87 74 11 8 22 28 34 38 38 34 30 26 29 27 19
12 23 19 17 27 24 30 28 31 26 28 30 32 38 48 47 40 33 31 38 61 69 74 85 83 98 99 97 96 97 97 97 95 98 96 72 11 26 29 33 43 44 39 33 28 20 17 16 14
19 23 20 21 28 28 30 30 30 27 32 29 32 42 45 47 30 43 32 51 70 75 80 94 92 78 78 87 100 99 99 100 98 100 97 71 29 30 34 45 49 45 37 25 20 18 16 16 14
23 23 22 26 29 32 32 27 25 26 28 38 33 45 47 34 32 63 51 62 72 90 92 92 89 98 99 96 95 100 100 99 100 100 97 81 41 41 48 49 50 42 27 22 20 18 17 21 19
21 14 22 24 32 32 31 27 25 22 26 28 32 40 48 26 30 61 48 72 80 78 84 84 81 96 93 99 99 100 97 99 100 100 100 43 48 46 53 50 44 33 25 25 25 30 26 22 17
18 24 19 29 31 31 30 27 36 25 24 29 34 41 49 24 25 40 46 60 61 66 79 93 91 94 92 96 95 98 97 100 100 100 86 53 46 51 53 49 38 31 34 29 30 34 30 24 17
28 26 27 30 34 35 29 32 26 31 26 29 36 44 48 24 20 30 41 53 57 66 81 97 100 99 99 98 98 100 100 100 100 98 51 50 44 65 53 48 44 42 30 30 34 39 30 27 21
28 30 30 30 30 30 30 33 32 40 28 31 40 44 48 33 20 23 28 34 37 44 74 95 98 96 98 94 100 100 100 100 99 94 56 66 77 64 56 50 54 38 35 39 40 34 28 30 25
30 32 28 24 28 30 29 28 29 30 30 33 35 42 47 46 21 18 26 28 34 40 67 99 99 93 99 84 99 100 100 100 99 82 68 86 87 76 78 58 50 46 49 49 48 41 37 34 31
35 27 28 25 30 30 34 30 34 31 30 33 38 38 45 50 21 19 20 27 34 41 83 95 97 99 98 96 99 100 100 100 99 85 89 96 86 87 89 67 64 61 61 65 62 57 46 38 36
27 30 24 24 24 21 35 37 33 32 28 32 35 36 41 50 34 17 16 27 32 35 86 90 95 96 100 98 99 100 100 100 99 98 93 94 90 95 87 73 77 68 61 68 71 61 59 53 40
26 27 23 20 26 27 30 29 29 34 29 32 32 34 36 49 46 18 15 23 29 32 41 76 99 98 98 100 95 96 98 98 100 100 100 93 92 93 85 77 77 63 63 71 79 71 61 64 57
30 29 25 23 32 28 22 27 28 32 28 29 31 32 33 39 46 29 14 19 26 32 29 35 80 93 99 96 100 100 98 99 100 100 98 91 94 100 72 66 65 63 72 77 79 80 79 68 66
34 30 29 28 32 32 30 28 27 28 26 28 27 28 29 31 41 44 20 17 23 26 33 28 49 96 99 100 99 99 99 100 100 98 94 95 97 95 78 72 73 72 76 80 80 87 92 66 58
33 34 37 34 33 21 30 25 23 28 27 28 24 26 26 30 36 36 18 15 23 25 26 28 32 73 91 97 98 98 99 99 98 99 97 98 96 88 82 82 79 77 78 81 79 86 90 83 76
34 36 41 36 35 29 28 29 22 24 29 25 25 28 25 28 28 38 27 16 18 22 22 26 26 40 66 96 96 98 100 99 99 100 99 96 92 96 91 90 90 80 82 82 85 88 89 83 84
41 42 42 42 34 34 26 26 21 20 26 25 24 29 25 24 26 35 37 25 14 19 18 23 26 27 34 52 84 84 99 99 98 98 98 99 98 93 90 94 92 96 90 85 89 92 90 82 78
39 39 34 35 36 33 28 32 25 30 29 28 27 26 30 26 33 36 36 32 19 14 17 16 22 25 27 28 34 43 52 85 96 95 99 100 99 98 98 93 90 91 86 89 92 96 83 79 76
44 37 30 35 36 26 41 35 31 31 26 27 28 26 30 31 31 30 38 39 30 15 18 16 16 20 23 25 28 30 33 36 44 60 64 77 88 95 99 97 98 88 92 95 95 93 85 78 74
44 47 40 34 48 40 34 35 33 30 29 28 27 28 31 35 28 29 31 37 39 30 15 18 17 17 21 23 23 26 29 29 30 33 36 42 48 51 56 67 73 80 81 82 86 86 79 77 71
49 43 47 44 41 41 28 32 30 30 30 30 29 33 32 35 30 29 30 33 38 34 34 18 19 22 21 23 23 25 26 29 32 33 34 35 37 38 39 42 45 46 48 52 62 65 64 65 63
52 49 44 40 37 36 34 30 34 35 41 35 37 34 37 30 32 34 33 32 33 39 41 39 26 20 21 22 22 23 25 27 30 31 34 36 38 40 40 41 41 44 49 55 62 60 61 65 64
46 43 44 40 40 43 46 33 36 36 36 36 34 35 32 29 31 33 34 34 35 40 45 43 42 40 37 33 26 24 25 26 27 28 32 36 34 37 39 40 43 43 52 67 49 48 52 50 50

GFSSGP_700_rhum_057.txt.gz
RH
9 8 8 11 32 22 16 16 18 18 21 32 43 40 44 48 39 48 53 26 24 35 31 35 45 73 57 72 67 64 60 68 90 85 78 76 50 71 29 11 5 4 11 15 14 14 14 14 16
9 9 9 35 22 16 13 18 19 20 24 40 42 42 38 44 59 62 27 24 26 42 34 33 43 66 68 66 69 60 58 53 71 71 80 82 70 58 63 35 5 6 10 16 15 16 16 18 19
9 10 36 25 20 15 13 20 20 23 28 33 37 52 53 45 65 34 31 34 30 39 34 42 47 62 67 59 67 68 64 82 67 73 96 88 91 70 66 49 8 10 15 16 17 18 20 22 23
10 15 31 21 15 15 17 17 22 22 26 38 41 43 57 46 38 36 36 38 37 46 46 44 56 66 80 70 72 80 86 88 82 85 89 85 73 59 54 28 8 14 16 17 21 21 24 27 27
11 31 25 20 18 16 21 18 23 23 26 38 46 48 53 63 39 42 38 29 37 46 56 52 54 76 89 86 90 88 94 90 83 85 75 79 60 42 30 18 10 15 18 21 23 28 28 31 31
29 25 21 16 12 16 22 22 24 25 29 36 48 48 49 58 42 41 39 32 27 38 52 65 55 78 97 94 98 88 96 94 89 78 81 74 45 33 24 21 12 18 21 24 31 30 31 33 32
31 24 21 16 14 16 23 28 27 28 31 34 49 41 49 62 38 46 41 35 28 26 44 60 72 75 99 93 98 97 91 87 87 80 82 78 72 23 34 13 18 28 39 30 34 30 31 31 31
30 25 21 17 15 16 22 29 27 31 29 36 29 38 43 51 42 46 36 30 30 28 29 44 63 77 86 92 99 98 100 98 89 91 86 59 48 52 29 24 23 28 36 33 31 27 32 30 29
31 26 20 16 15 17 23 26 23 32 34 38 46 30 32 37 47 37 28 35 32 28 45 47 60 68 82 84 98 97 96 99 99 98 97 69 24 36 28 33 28 35 38 34 29 30 31 28 17
29 22 18 16 15 20 21 25 24 25 30 36 45 59 35 40 45 24 61 66 60 53 70 60 65 78 80 91 92 99 85 100 98 98 99 95 78 63 38 35 37 46 38 34 28 22 18 17 14
28 23 20 19 19 21 23 24 25 26 27 33 42 48 40 45 31 25 72 83 48 78 79 73 80 89 82 82 96 100 93 88 98 96 98 97 98 43 43 41 48 46 41 31 22 18 17 16 17
26 24 22 18 20 24 26 26 27 28 31 41 26 29 39 45 23 28 47 66 51 71 83 82 82 91 83 75 88 94 100 98 100 99 100 100 98 58 50 47 53 44 37 25 20 20 19 20 20
23 24 21 20 19 24 28 29 28 28 31 41 27 33 39 46 24 20 40 49 52 62 75 82 82 85 73 78 79 84 98 100 99 98 100 100 88 49 52 59 55 43 31 25 21 24 25 23 20
21 27 24 22 22 23 28 30 28 32 36 48 28 34 38 43 28 17 24 32 46 57 60 72 85 79 80 92 85 90 96 97 98 100 100 98 83 61 73 67 52 38 26 28 26 31 30 24 20
26 26 26 23 24 24 27 26 27 26 35 49 37 35 37 40 35 19 18 22 30 33 42 84 88 88 97 99 99 91 100 99 99 100 100 97 54 67 67 60 47 31 46 34 31 36 31 27 23
31 27 25 23 24 24 24 24 24 28 44 44 59 65 34 41 43 20 17 16 20 30 34 60 92 99 99 99 91 94 100 100 100 100 98 59 54 78 68 51 38 42 45 31 34 36 30 30 26
33 28 25 26 22 23 26 27 24 36 45 37 49 65 42 38 42 34 18 15 17 24 37 66 98 90 90 97 93 99 100 100 100 100 96 64 86 89 65 44 47 47 32 36 38 36 38 36 32
28 27 27 23 23 24 21 26 27 31 38 42 43 55 70 55 43 42 20 16 18 22 37 73 91 97 99 88 88 98 100 100 100 100 93 87 93 94 61 48 70 44 41 46 50 47 51 42 37
29 25 23 24 20 22 23 22 23 25 26 32 46 49 62 67 47 44 26 15 18 19 26 54 67 85 91 89 93 98 100 100 99 99 88 98 95 93 82 86 86 53 56 66 68 67 62 58 56
28 28 26 24 21 25 21 18 20 21 25 29 39 48 55 68 49 41 40 20 17 18 25 26 62 82 96 99 87 98 100 99 100 100 98 94 94 95 94 93 84 95 86 80 73 72 67 64 66
30 30 27 26 23 29 23 19 20 20 22 27 35 38 44 61 63 36 37 28 16 18 18 26 37 86 95 98 95 98 99 100 100 100 99 99 99 93 91 94 92 97 89 74 75 77 77 72 73
34 31 30 28 27 25 21 19 18 20 22 27 32 32 40 49 57 35 34 22 15 17 16 21 26 56 93 94 99 98 92 91 97 99 100 99 99 94 98 91 89 99 92 66 80 78 77 81 81
35 33 30 31 30 28 25 22 22 20 20 22 23 27 36 47 57 28 33 29 21 13 16 16 22 32 68 97 90 98 93 95 100 100 100 100 91 94 90 98 80 79 70 68 76 78 78 78 88
32 33 33 35 32 32 29 24 20 20 18 22 21 21 26 44 55 43 27 35 31 17 14 13 18 24 37 63 86 94 93 99 98 98 99 98 91 96 99 98 81 70 74 75 77 81 80 81 85
34 34 33 35 35 35 28 26 23 22 24 24 23 22 26 36 47 51 32 35 34 23 13 15 15 18 22 31 55 73 89 98 100 99 99 99 90 88 91 93 82 74 77 80 88 90 94 91 84
35 35 32 39 40 28 27 26 22 26 28 28 27 24 28 39 47 32 31 35 38 32 14 13 12 17 18 21 28 38 57 66 86 100 99 100 100 100 97 88 83 79 78 80 81 92 99 93 92
40 38 32 32 37 38 26 29 27 30 27 27 26 26 28 35 47 34 29 29 32 38 30 15 13 14 18 21 21 22 23 29 33 49 72 66 74 88 97 99 98 91 85 81 85 83 79 83 84
42 38 32 36 44 46 29 31 34 27 27 29 28 28 28 30 36 46 39 30 30 34 38 27 16 14 15 20 22 23 26 27 29 32 30 35 45 57 62 73 81 89 90 88 92 84 76 77 79
43 47 45 36 35 38 40 29 27 35 40 40 39 31 37 41 43 44 51 57 33 33 37 34 24 18 15 13 19 22 25 28 30 32 34 35 38 41 47 50 55 58 58 63 72 68 70 75 74
44 44 50 40 46 36 41 38 38 41 41 40 40 39 39 37 38 43 44 35 37 36 36 38 38 28 22 19 17 17 20 24 27 28 30 33 35 38 39 42 43 43 46 50 55 59 53 52 54

GFSSGP_700_rhum_060.txt.gz
RH
12 9 8 9 39 32 21 16 16 16 16 23 32 36 36 36 35 57 64 54 38 21 19 27 22 35 52 56 83 70 73 71 79 68 76 74 60 60 42 14 8 8 6 11 9 13 13 13 14
12 9 9 36 38 25 16 16 18 17 22 31 33 32 34 39 48 67 68 31 23 24 19 34 33 39 60 56 66 67 61 75 90 90 68 71 70 66 60 36 5 4 9 12 11 13 15 17 17
11 10 36 37 28 23 17 17 18 20 22 25 29 34 47 44 63 54 41 31 26 30 24 25 37 44 72 73 70 66 63 75 93 100 76 72 88 78 66 61 16 5 11 13 14 15 17 21 20
11 13 28 28 23 19 15 15 18 20 21 28 35 36 48 59 48 37 37 37 27 33 36 27 37 52 67 88 72 68 61 70 80 99 90 82 95 78 69 47 17 8 13 15 17 20 21 23 22
11 30 29 26 22 19 16 18 18 21 21 24 34 40 47 60 54 46 36 39 34 23 38 34 41 48 65 92 83 74 66 65 77 91 99 100 94 80 48 37 16 13 16 18 20 26 26 26 27
26 29 28 23 17 14 14 19 20 21 23 24 31 42 44 45 50 50 38 42 32 26 27 33 43 50 66 99 98 94 93 96 88 87 97 100 74 66 37 21 14 17 20 23 24 24 25 29 30
37 29 26 20 17 16 15 21 23 23 24 28 44 46 41 65 64 50 38 40 30 25 27 25 36 58 68 97 98 98 93 100 99 95 92 84 74 69 27 23 16 21 23 26 31 26 28 30 30
32 30 27 23 20 17 14 23 27 24 26 34 39 36 36 47 34 36 38 24 23 26 28 30 34 52 78 68 89 97 83 87 100 96 81 85 83 60 32 23 25 30 30 29 30 30 28 27 32
31 30 27 23 19 15 18 22 25 22 30 31 36 40 50 35 37 38 21 26 56 62 37 29 29 40 66 79 86 78 92 72 100 99 86 94 81 88 32 28 27 32 53 35 32 27 24 30 24
31 30 26 23 18 16 16 22 23 21 25 30 33 39 52 48 39 29 20 36 70 68 36 49 64 54 54 66 78 82 83 81 100 99 94 93 49 78 85 42 40 37 40 38 32 27 26 26 17
30 29 26 21 18 18 18 19 21 23 23 24 33 39 45 30 38 20 19 37 63 55 61 71 72 67 63 69 78 85 81 93 100 100 98 95 60 67 42 45 46 40 43 36 30 22 20 17 16
28 26 27 23 21 19 19 21 22 23 25 27 34 32 28 33 35 17 16 36 29 40 53 65 71 76 69 78 72 87 92 86 98 100 100 99 97 97 95 50 47 44 44 39 24 17 16 17 16
27 24 24 23 21 19 19 22 24 26 26 27 37 36 29 36 42 20 14 19 42 42 47 50 66 70 78 82 89 100 98 81 84 95 100 100 98 98 94 50 59 52 45 33 21 17 17 19 19
25 22 22 21 22 21 19 21 24 26 26 29 45 37 30 36 40 27 13 13 18 25 36 44 57 72 83 82 88 92 92 88 89 98 93 100 98 99 96 48 56 52 44 26 22 23 25 24 21
26 23 22 23 25 22 22 22 24 25 25 28 40 56 42 34 38 36 14 14 12 15 20 30 37 73 83 91 90 86 89 88 92 100 100 98 100 99 82 62 68 52 39 27 24 30 31 26 22
29 28 26 24 24 23 22 23 23 22 24 27 42 51 69 52 34 40 24 13 11 14 18 30 44 66 78 90 93 99 99 96 96 99 100 99 100 97 90 74 68 60 39 29 28 35 34 27 23
35 30 28 26 23 22 22 23 23 23 30 37 36 43 59 64 37 41 38 15 11 16 18 30 61 73 95 88 94 100 100 94 98 100 98 99 99 75 97 87 87 49 73 35 32 38 33 28 26
34 30 30 26 23 24 22 22 23 27 30 37 38 36 50 63 68 48 42 22 10 16 17 24 68 84 75 98 90 88 92 99 99 100 98 100 99 78 100 98 100 86 98 83 36 38 34 34 33
34 29 27 25 25 23 23 23 20 19 24 29 32 41 43 57 72 69 38 37 14 14 17 23 48 71 77 77 80 84 89 95 100 100 100 99 96 76 95 93 72 55 52 34 35 38 38 44 41
40 36 31 28 24 23 21 22 20 19 21 23 25 31 43 52 66 68 33 42 19 12 17 20 25 54 72 81 78 68 90 100 100 99 98 97 80 82 87 90 60 57 46 40 45 76 52 54 53
36 35 30 28 26 24 24 26 25 18 18 20 25 28 39 48 61 63 32 37 21 12 17 17 23 40 74 88 81 79 98 98 98 99 100 99 96 86 93 90 80 84 71 78 90 90 67 62 61
34 31 28 29 28 26 24 25 21 19 19 19 22 26 33 37 53 62 31 32 26 17 14 14 20 28 59 83 84 86 85 90 91 97 98 98 97 92 93 94 85 87 91 86 90 86 72 73 70
40 34 36 33 31 30 27 26 23 20 19 19 21 25 30 32 40 59 44 26 33 29 12 13 15 24 40 75 81 88 91 86 100 99 99 99 99 92 89 93 95 95 98 91 97 86 77 74 76
39 37 40 37 34 36 31 29 26 22 19 19 20 21 24 30 40 54 66 32 27 33 14 11 12 19 25 48 77 88 89 90 92 99 100 100 100 99 97 94 93 92 93 87 82 77 74 78 78
41 38 36 43 44 44 32 29 28 24 21 22 22 22 22 29 39 52 66 46 32 34 22 10 9 14 19 25 47 78 86 91 94 95 97 99 99 99 98 93 91 83 86 81 84 72 73 77 78
45 42 37 56 56 36 30 28 26 24 22 23 26 25 26 32 40 46 59 56 34 35 36 15 12 10 16 18 25 45 70 88 91 100 100 100 99 100 88 87 87 92 89 84 78 75 71 73 74
53 55 37 37 43 49 45 28 25 24 27 25 25 25 25 27 35 46 60 60 31 29 34 37 16 12 12 17 18 19 27 46 60 79 90 100 100 100 96 90 97 99 99 99 75 71 73 74 78
54 53 47 40 53 62 38 29 27 27 28 26 26 25 27 30 36 45 50 62 47 34 29 38 33 16 13 15 17 19 20 20 27 33 39 49 74 90 95 99 98 100 100 94 89 82 80 81 88
51 56 67 59 38 52 54 47 48 38 35 34 37 37 36 37 39 44 48 52 56 56 33 32 39 32 18 15 16 19 21 25 27 26 25 26 32 38 50 62 78 85 86 89 94 89 92 90 89
44 46 49 59 62 45 44 45 48 48 39 36 39 39 39 38 38 41 39 42 60 67 51 36 36 40 32 20 18 16 20 23 26 29 31 33 34 36 36 39 43 46 48 56 57 57 60 68 72

GFSSGP_700_rhum_063.txt.gz
RH
13 11 9 10 23 31 29 19 20 17 18 19 20 22 30 33 36 40 56 57 54 50 32 20 22 19 40 57 43 86 70 75 76 76 74 70 60 52 23 8 17 16 6 10 10 11 11 11 12
13 11 10 28 33 34 27 21 21 18 21 25 26 25 25 40 46 52 46 44 41 29 22 21 22 28 26 68 80 79 73 73 82 88 86 79 66 63 35 10 12 10 7 12 12 12 12 13 14
13 11 12 31 32 26 24 18 18 19 20 21 21 29 36 40 39 38 37 34 30 26 21 22 24 29 37 52 91 88 76 75 76 91 95 82 70 58 48 20 7 12 11 11 14 14 15 16 16
13 12 16 30 26 15 24 20 19 19 20 22 33 31 38 52 51 48 48 42 32 34 26 25 28 32 42 51 90 96 73 76 72 87 97 97 88 75 58 45 8 6 12 13 16 16 19 19 19
13 16 27 29 24 17 18 18 18 20 21 28 29 35 46 48 45 48 45 48 37 31 31 22 27 42 44 60 88 99 73 74 85 99 99 98 98 90 66 40 12 8 14 17 19 20 21 23 25
16 18 31 30 23 20 20 19 19 19 20 21 22 26 37 44 43 40 50 50 37 35 27 28 24 39 55 62 83 98 90 78 92 99 99 100 100 94 76 42 13 14 18 20 22 22 26 27 26
17 21 30 27 25 23 21 20 19 20 22 23 26 37 45 45 43 41 34 35 37 24 23 25 27 29 48 59 72 92 91 97 99 99 96 97 99 92 71 58 26 19 20 23 28 30 30 30 28
18 38 37 33 30 26 19 20 20 21 23 26 31 35 38 38 36 33 35 33 19 30 44 26 30 30 36 61 67 78 88 99 96 100 100 100 97 72 69 32 44 19 25 26 33 36 33 30 32
27 48 36 30 28 20 21 22 23 24 22 24 26 27 26 33 35 40 33 20 27 50 61 36 31 30 36 50 77 73 77 90 91 92 100 98 90 75 86 32 20 22 26 32 34 38 34 32 32
40 40 35 25 24 25 22 22 22 22 23 25 26 31 37 46 49 34 32 15 33 53 55 47 27 24 30 36 58 69 84 92 100 96 97 98 94 83 49 40 22 34 35 38 37 33 33 30 29
28 35 30 24 28 29 23 20 21 23 22 23 26 37 43 42 38 32 31 13 31 32 47 60 58 64 66 64 59 49 76 77 96 84 86 99 99 86 40 30 31 38 43 34 36 34 32 28 20
42 31 30 24 26 26 23 21 19 22 22 25 25 29 32 32 32 28 29 11 17 35 44 53 53 56 69 68 71 75 74 82 83 78 97 98 98 69 91 81 56 34 38 38 34 30 27 19 16
42 36 31 28 27 25 23 21 19 21 23 25 27 33 37 35 31 29 28 13 13 14 23 41 51 55 64 74 84 86 86 76 84 100 100 98 98 92 80 97 93 59 44 37 29 22 19 17 18
42 38 31 26 25 23 23 22 19 19 24 25 26 28 31 37 32 31 28 15 14 13 14 20 39 51 67 76 80 85 93 96 90 92 96 100 99 88 99 94 52 43 46 38 25 20 18 17 20
39 34 31 28 24 22 21 22 22 20 20 25 26 36 40 34 37 30 28 29 12 12 15 18 30 41 69 86 75 78 83 88 92 87 89 94 100 96 98 98 58 56 50 38 24 22 21 20 23
40 36 33 26 22 23 24 24 22 23 23 24 25 28 40 34 46 35 29 29 16 12 15 22 34 57 84 95 84 85 79 84 82 88 97 95 98 98 100 100 78 64 54 34 22 22 26 27 24
41 41 30 29 24 24 24 24 23 22 23 23 23 33 36 42 43 45 29 30 25 11 15 19 33 66 77 77 94 98 92 88 93 94 100 100 99 98 100 100 56 62 56 33 24 26 39 32 24
48 38 33 33 25 28 24 23 23 23 24 28 29 31 37 48 49 51 40 31 32 13 13 17 25 61 83 94 88 92 100 100 100 98 100 100 99 99 100 95 58 67 68 39 26 31 38 31 26
49 41 42 36 33 34 34 25 25 23 22 26 30 32 34 37 52 56 46 33 25 16 12 16 20 38 81 90 92 93 89 94 99 99 100 100 99 100 100 96 75 81 94 56 31 32 39 33 30
46 48 44 35 33 39 31 29 25 23 22 22 24 29 32 36 51 51 46 35 26 18 12 16 17 23 52 77 91 90 95 89 99 99 100 98 99 100 100 97 97 99 98 90 88 42 42 37 38
51 45 39 41 33 33 31 26 24 22 21 19 22 23 28 36 44 46 51 36 28 24 12 14 13 20 31 66 83 77 67 77 89 96 100 98 98 100 99 98 99 99 86 100 95 44 42 48 79
32 35 39 34 33 32 29 31 25 25 24 18 18 20 26 35 44 48 50 44 29 30 14 11 11 17 26 51 77 75 69 64 92 99 100 100 100 99 100 99 100 99 100 80 53 40 44 85 90
58 38 38 41 44 33 32 31 29 26 26 22 18 19 25 26 31 40 39 43 32 30 22 10 9 14 19 36 69 77 74 69 93 98 100 99 98 100 99 96 100 100 90 71 44 45 54 97 88
71 73 68 54 46 48 41 37 31 28 25 24 21 19 20 24 29 35 38 44 41 28 29 11 8 10 15 20 44 66 74 76 82 98 98 99 100 100 99 99 94 98 74 77 57 72 82 95 80
76 92 64 59 60 60 39 36 34 26 24 25 22 20 21 26 31 35 39 40 40 31 34 13 10 8 12 15 28 56 73 81 81 84 84 96 100 99 100 99 96 99 97 72 82 90 90 95 81
78 85 77 64 67 48 36 37 33 26 22 24 24 22 22 27 32 38 46 46 30 31 37 31 13 10 10 13 16 28 52 74 80 83 86 87 95 100 100 100 99 96 98 84 98 98 93 93 93
80 71 62 67 85 66 52 46 33 28 26 26 24 26 25 32 40 39 34 47 37 27 28 40 33 16 10 12 14 16 21 36 57 75 77 93 95 99 100 100 100 100 90 88 92 98 97 92 86
81 64 77 98 91 95 49 49 44 31 26 25 25 26 28 28 30 36 41 48 48 37 28 29 40 31 16 12 14 16 18 20 27 40 42 54 70 74 89 98 94 83 88 88 93 97 92 98 94
71 75 97 97 77 71 69 56 49 40 36 32 31 35 36 41 44 50 52 54 56 54 35 39 41 42 29 17 13 14 18 21 22 22 24 29 42 44 44 58 72 84 89 91 91 96 96 99 99
66 61 77 99 86 65 54 62 53 46 41 40 40 39 40 40 41 42 49 72 70 60 51 50 44 44 42 28 18 16 15 18 22 26 28 26 26 27 27 30 39 43 53 58 67 69 83 88 88

GFSSGP_700_rhum_066.txt.gz
RH
14 13 12 10 16 19 23 16 23 21 23 17 17 18 20 23 21 23 32 48 50 50 51 43 22 20 19 22 64 85 67 66 70 72 68 60 49 26 15 21 36 22 16 6 7 8 11 11 10
14 13 12 15 25 27 15 20 21 20 21 17 18 20 22 24 26 23 30 34 31 34 29 23 25 20 23 22 51 88 86 74 79 78 76 73 66 58 31 10 19 17 11 6 10 10 11 10 11
14 14 12 18 18 13 13 20 20 25 26 24 22 20 21 22 36 38 37 36 32 34 28 26 27 26 29 30 42 74 93 77 81 86 82 79 73 68 50 16 7 13 6 13 11 11 10 12 13
15 14 14 21 16 9 12 18 22 23 23 20 19 22 30 27 36 44 41 36 40 36 34 27 27 30 30 38 52 82 96 84 81 89 92 88 78 67 55 19 8 29 11 12 13 12 12 14 15
16 15 16 20 12 7 11 19 23 23 24 20 20 22 28 25 30 46 40 40 44 41 37 34 26 26 33 36 61 89 99 93 84 82 98 97 87 68 62 48 6 40 18 15 16 17 13 16 18
16 16 22 20 12 9 13 22 22 24 22 21 23 22 29 29 37 41 43 41 32 33 35 31 24 22 28 40 58 70 99 98 84 86 96 85 94 87 76 58 15 33 17 18 18 18 18 20 20
19 16 17 17 15 10 13 21 22 22 22 22 22 22 25 27 37 45 40 33 30 32 22 23 26 26 25 39 53 83 98 97 95 97 97 97 100 90 83 44 15 16 17 21 21 22 25 24 20
19 18 18 18 15 10 16 24 26 21 20 21 21 24 28 38 41 36 34 31 31 24 24 47 62 31 26 26 44 66 73 96 96 91 100 100 99 99 80 78 59 19 20 24 25 28 28 21 22
22 22 21 18 18 10 21 23 26 25 24 23 23 27 24 27 30 35 38 38 33 19 37 55 58 43 30 28 30 51 72 84 88 99 97 98 99 96 88 50 72 59 24 26 30 32 32 27 28
28 23 19 12 14 11 20 27 26 25 24 23 23 25 26 29 34 37 38 35 29 17 36 45 48 36 30 28 30 46 60 83 84 94 100 97 100 96 87 50 60 32 27 31 39 38 35 32 28
24 23 15 14 13 15 22 25 27 24 23 24 24 25 26 30 36 40 33 30 28 13 36 47 54 54 47 47 49 39 52 77 75 77 95 96 98 98 60 59 26 51 42 37 39 39 39 32 26
25 22 22 16 17 22 24 26 26 25 23 23 24 26 30 35 36 34 31 30 23 12 20 36 45 46 52 60 65 65 60 60 63 76 75 90 98 94 68 79 45 24 34 38 41 39 37 31 25
36 21 30 26 26 26 26 26 26 24 23 22 25 26 28 31 31 28 30 30 22 12 12 14 22 33 45 60 69 73 74 78 88 82 82 82 96 95 78 36 26 30 43 44 40 37 37 40 24
35 47 40 38 33 32 32 26 26 24 22 20 25 26 27 28 29 34 30 28 31 12 11 11 14 20 33 63 70 81 88 93 90 81 93 98 97 95 84 42 48 35 40 44 38 37 34 26 19
50 49 47 44 38 34 29 26 24 22 22 22 19 23 25 26 34 37 30 27 33 20 10 11 15 21 33 55 77 76 86 94 96 97 98 96 98 99 92 80 83 93 74 41 35 28 23 20 15
47 47 46 40 37 30 29 27 22 21 22 22 22 24 26 26 33 35 35 26 32 27 11 12 16 22 58 60 80 78 72 98 97 92 98 100 99 98 91 93 92 90 80 45 33 24 20 20 18
52 49 45 39 29 29 28 28 22 26 23 22 23 23 24 25 31 35 38 44 31 36 15 12 16 22 63 65 84 86 77 88 97 98 98 98 99 100 98 99 86 54 50 46 32 23 21 21 22
59 53 46 34 24 29 28 26 31 28 25 24 22 23 24 28 26 37 39 48 44 37 21 13 16 21 52 64 75 90 89 86 90 92 96 99 99 100 100 100 99 75 63 51 30 24 24 27 28
60 52 46 38 30 37 36 36 36 31 25 23 23 25 26 26 30 35 47 46 46 32 20 13 16 22 32 59 75 83 87 90 81 94 94 98 100 100 99 100 100 88 77 53 31 27 29 34 32
64 56 53 38 31 39 41 42 40 33 28 26 23 30 30 32 32 33 38 42 47 30 22 12 15 20 27 55 73 82 86 100 100 100 100 99 100 100 99 100 99 88 86 56 37 28 28 48 49
51 60 51 46 35 38 43 43 33 29 24 24 23 22 27 31 30 32 39 44 49 31 26 12 14 16 24 52 70 78 82 83 99 99 100 99 100 99 100 100 99 71 83 64 55 38 34 58 58
63 51 48 43 42 48 47 50 39 31 27 23 22 21 20 31 29 32 40 46 49 32 32 14 11 14 19 43 74 85 80 71 76 86 100 100 100 100 100 100 100 91 91 96 90 67 45 48 56
66 57 50 57 55 47 45 48 39 33 30 26 25 24 19 20 26 29 25 40 50 45 35 28 9 10 16 24 56 76 80 81 78 80 97 97 100 98 100 100 99 100 99 98 99 100 92 57 56
86 73 64 50 48 65 47 50 45 36 29 25 25 25 20 19 25 28 30 44 42 45 41 34 11 8 13 16 30 55 75 81 72 75 80 97 98 100 100 100 100 100 100 100 100 99 95 67 66
88 85 67 66 67 72 50 49 46 30 27 24 24 25 25 19 24 27 29 36 38 42 35 34 13 9 10 14 17 34 56 72 74 74 80 92 98 98 100 100 100 99 100 100 99 99 96 71 46
82 92 83 91 92 66 47 42 38 29 23 23 25 25 21 21 20 24 30 34 41 36 37 36 23 14 9 12 14 16 27 53 72 78 86 99 98 99 97 98 100 99 100 99 99 98 93 62 66
97 99 73 92 78 94 60 43 37 36 29 27 26 26 22 22 21 27 33 42 49 33 31 38 38 26 16 10 13 16 19 27 51 77 85 93 95 100 99 99 99 100 99 97 98 92 82 72 68
87 98 99 98 97 94 59 48 49 44 30 29 29 27 24 24 26 32 37 44 46 42 35 41 39 42 25 17 12 15 18 21 29 51 71 77 87 97 100 100 100 100 100 99 98 99 98 82 76
93 99 98 93 94 96 77 74 81 52 46 34 28 30 29 32 36 36 42 50 51 55 54 60 63 54 47 29 18 14 16 20 22 23 32 52 65 80 81 91 99 100 100 100 100 96 87 83 95
84 92 98 98 89 94 97 97 87 56 54 56 50 47 44 43 44 48 50 57 56 61 65 70 80 66 61 55 36 19 16 16 19 23 26 26 26 40 49 60 71 76 76 87 85 85 83 83 87

GFSSGP_700_rhum_069.txt.gz
RH
13 14 13 12 11 11 11 12 20 22 22 21 21 20 20 20 18 20 24 27 40 48 50 51 49 38 22 20 25 38 52 69 60 57 51 46 43 32 25 22 20 33 44 22 10 6 6 11 17
14 15 13 12 14 16 10 15 22 22 24 24 20 20 18 17 18 20 24 29 32 32 31 26 24 23 24 21 20 36 81 76 65 69 70 58 44 34 28 18 15 30 32 15 6 7 8 10 11
14 15 13 13 15 12 9 17 22 29 30 34 29 21 21 19 18 18 16 28 34 30 28 30 28 23 26 24 24 35 84 85 71 72 74 71 66 61 52 31 14 18 18 10 7 10 10 10 9
14 14 14 18 14 8 8 17 23 22 30 32 26 22 21 18 19 19 20 26 30 34 32 32 31 30 26 28 30 38 87 93 82 80 77 78 74 72 63 45 16 10 16 8 12 12 11 10 9
17 15 14 16 14 8 8 9 12 21 25 26 27 25 21 19 20 21 18 25 36 35 30 33 30 24 26 25 31 46 88 98 94 85 88 82 78 74 69 44 18 11 32 11 13 13 11 11 12
23 16 16 16 14 10 9 9 14 23 22 23 28 32 21 20 22 30 27 22 34 34 31 31 22 20 23 25 34 48 77 98 97 94 90 94 85 78 71 56 22 16 43 17 13 14 13 14 15
17 19 15 15 14 12 8 10 18 26 22 21 25 29 21 21 26 33 40 39 38 30 32 26 20 34 57 54 36 46 74 98 98 94 99 99 90 92 82 62 29 17 42 18 15 17 15 17 19
22 26 18 17 17 10 8 10 24 28 23 25 30 24 22 24 30 41 38 31 31 34 32 22 26 51 55 65 46 48 66 80 100 94 94 99 96 96 98 81 24 29 30 16 17 18 18 20 23
17 26 22 20 14 8 8 11 25 27 28 38 28 25 25 26 28 26 27 33 34 33 31 19 39 45 57 51 31 32 51 67 82 88 99 98 90 98 95 68 31 18 18 19 20 20 20 23 26
14 17 18 12 10 9 10 12 21 25 25 31 41 24 24 24 27 28 28 36 34 31 30 15 40 45 39 32 29 32 40 52 69 87 85 99 95 99 98 94 62 23 24 24 25 23 23 28 28
18 16 13 12 10 14 14 14 18 25 24 24 30 31 25 26 28 29 32 34 30 31 25 13 36 42 44 47 34 28 33 51 65 79 96 99 99 97 100 95 68 67 59 31 29 28 27 29 30
24 17 15 13 12 19 18 19 18 24 23 25 25 29 25 27 29 31 31 28 31 30 16 12 13 24 38 46 56 68 66 54 53 69 89 92 80 99 98 96 50 55 68 40 33 28 30 33 32
24 23 18 14 16 19 21 25 22 23 23 25 25 27 25 28 30 30 27 29 32 29 20 12 12 12 16 32 52 63 66 64 68 75 78 81 77 95 97 92 41 52 41 34 35 31 32 30 31
20 25 21 18 22 33 32 24 34 23 22 24 24 27 23 26 27 28 26 34 32 29 31 14 10 12 13 19 39 64 72 74 74 77 84 86 95 88 98 90 48 34 45 48 48 34 29 30 33
20 28 29 24 26 35 42 42 34 23 24 24 23 25 23 20 24 25 26 35 32 28 33 21 10 11 13 22 33 64 72 82 91 92 92 86 100 98 99 59 66 52 31 36 48 39 34 32 48
54 48 49 32 37 40 45 38 28 26 26 24 22 24 23 20 23 25 27 33 42 35 33 33 11 12 14 38 50 64 74 74 87 95 97 99 100 100 98 58 34 36 60 57 50 47 36 29 29
48 55 52 46 34 40 40 36 28 26 25 23 25 24 23 22 24 24 27 29 39 52 41 34 12 13 14 49 51 72 80 72 90 94 100 100 100 99 100 87 46 48 54 47 49 43 33 24 20
55 59 52 50 40 41 39 35 27 27 25 23 25 25 25 24 24 24 25 31 42 52 47 26 12 12 15 40 50 72 78 76 78 89 99 100 98 100 100 86 79 79 89 96 93 50 32 22 19
53 56 59 56 49 42 35 33 28 28 31 26 36 23 25 24 24 26 28 37 44 48 39 25 12 12 14 22 54 50 66 83 82 84 98 97 99 100 100 97 97 99 82 92 82 50 28 22 22
50 52 64 61 51 54 45 38 31 35 36 34 28 23 24 23 25 27 30 35 40 50 42 30 13 12 15 21 54 61 74 81 88 84 89 95 92 98 99 100 99 95 67 62 61 46 28 27 25
69 53 48 60 57 53 47 40 32 34 38 33 28 26 24 24 26 30 33 33 42 50 42 32 15 11 14 22 39 70 83 86 84 87 99 98 99 99 99 98 100 99 98 94 78 52 30 30 31
80 63 49 58 54 48 47 58 40 35 37 29 25 25 24 23 26 33 33 32 45 50 37 33 27 11 13 20 47 61 72 71 76 90 98 100 98 98 100 100 99 99 100 99 96 62 36 38 42
85 66 68 62 60 62 47 48 42 38 39 28 27 29 26 26 22 22 27 32 44 54 53 44 34 12 11 16 36 63 68 76 75 82 98 98 100 99 98 100 100 100 98 100 100 97 56 43 39
81 81 83 68 65 71 46 47 47 43 37 28 25 26 25 26 23 21 23 31 43 55 52 51 35 15 10 16 23 45 66 73 73 70 74 90 99 99 100 100 100 100 99 99 99 98 85 61 53
88 99 88 80 78 69 42 46 44 42 38 32 26 25 25 27 24 22 20 30 43 50 49 48 34 15 10 15 21 34 58 67 70 69 80 86 84 96 98 100 98 99 100 100 99 99 99 97 93
76 97 97 89 88 76 50 54 44 40 38 33 28 26 24 26 24 20 20 33 41 41 49 48 37 18 14 11 17 24 35 56 67 72 75 94 91 100 100 100 100 100 100 100 100 98 99 100 100
96 99 97 96 95 89 64 49 42 43 36 27 27 24 24 23 23 21 20 34 37 47 41 46 41 36 21 14 12 18 23 30 53 66 73 76 94 99 100 99 99 99 100 100 100 99 100 100 100
97 99 99 99 98 95 67 69 83 57 40 33 28 28 26 23 20 20 26 41 41 56 55 55 60 52 47 25 16 16 20 25 30 45 59 77 88 95 92 98 93 97 100 100 100 100 100 100 100
98 99 99 98 97 93 87 90 81 82 73 47 31 29 27 22 21 26 37 45 55 58 60 69 78 81 72 62 35 21 20 23 25 29 41 54 78 93 95 100 97 98 97 97 99 97 96 98 97
64 84 99 98 99 94 99 93 92 81 90 92 55 31 28 25 26 37 43 53 57 62 66 71 80 82 72 68 65 41 21 21 24 28 32 39 50 63 79 99 100 99 99 100 98 98 98 100 99

GFSSGP_700_rhum_072.txt.gz
RH
10 13 14 13 12 11 9 9 18 20 23 24 21 20 20 20 19 20 18 20 27 38 44 46 48 50 40 37 29 22 19 32 56 65 53 50 58 55 64 45 33 30 34 40 34 17 11 8 43
9 13 15 13 13 12 8 10 23 21 23 25 26 24 22 21 20 18 18 20 25 31 32 29 29 27 24 24 24 22 24 42 65 70 56 50 41 37 40 33 30 27 34 41 24 12 6 6 44
7 12 15 14 14 13 8 8 24 29 27 28 27 24 25 20 19 19 19 18 20 30 29 29 28 28 27 23 27 26 31 56 78 75 63 62 60 52 34 27 25 24 35 43 19 7 6 7 10
6 13 15 14 13 10 8 13 21 22 25 36 33 30 27 23 21 20 20 20 25 25 31 30 29 30 22 27 28 33 34 58 91 79 69 70 73 64 52 49 33 30 39 38 32 6 8 10 10
8 14 14 15 14 11 7 9 16 13 13 25 31 29 28 23 23 20 21 22 24 27 24 29 30 28 18 19 26 32 49 79 97 85 80 86 78 71 68 61 48 23 29 25 40 9 11 11 11
14 16 15 14 14 11 8 8 10 11 16 22 26 27 23 25 26 22 22 28 31 31 34 28 28 24 20 26 28 38 59 91 100 94 87 86 84 89 74 68 59 38 14 20 14 10 12 12 13
15 18 13 14 15 14 7 9 11 13 27 22 22 23 23 23 26 22 27 34 41 41 31 29 26 21 29 58 62 53 59 86 98 96 98 99 90 87 89 80 57 41 27 38 31 12 12 14 16
16 21 24 21 19 12 9 9 11 14 27 27 24 24 22 25 24 26 34 26 31 33 33 30 26 19 40 57 75 70 55 57 83 96 85 100 99 98 95 98 80 40 32 44 31 14 15 15 20
18 30 24 24 18 14 12 10 11 13 28 32 41 28 28 29 30 26 27 26 28 32 32 31 28 17 42 44 64 76 68 61 70 90 94 95 99 97 95 97 97 47 44 46 25 17 18 19 21
24 24 25 21 19 16 14 13 12 18 26 26 36 36 35 36 28 25 27 28 32 34 30 31 26 15 38 40 36 48 43 44 49 64 85 97 95 100 99 99 97 94 51 33 20 18 19 22 24
27 25 23 22 19 16 15 12 13 16 16 24 27 42 43 44 34 26 28 29 33 32 33 30 19 12 24 40 47 38 32 37 48 66 84 83 92 94 99 99 99 95 37 21 21 21 23 26 27
28 27 27 25 22 19 16 16 15 16 15 22 26 26 31 34 36 31 30 28 29 33 33 29 19 12 12 16 37 45 55 42 41 54 66 77 96 100 99 98 99 96 35 22 22 23 26 28 30
25 26 27 28 26 21 16 16 15 17 16 20 26 25 26 27 27 32 29 28 29 35 33 29 30 14 11 13 16 28 48 61 70 68 63 74 96 95 100 97 100 99 56 60 29 29 30 33 35
29 30 24 22 23 24 22 15 26 13 13 19 27 24 22 26 23 27 26 27 28 35 32 28 31 21 10 13 16 22 42 63 67 71 71 80 91 83 90 97 100 97 64 68 73 37 31 36 37
35 32 26 23 22 30 29 24 18 8 16 20 26 24 22 23 24 21 22 26 27 36 33 33 31 31 11 14 16 27 43 67 76 79 84 76 79 85 91 100 100 74 50 44 38 37 40 40 36
44 49 50 32 23 31 41 31 18 15 26 23 27 24 23 23 23 21 22 26 27 35 46 50 42 34 12 14 15 49 53 74 73 86 97 96 90 94 96 99 100 54 44 46 42 49 46 37 36
56 57 54 54 48 41 44 37 23 25 32 26 26 25 23 23 24 22 22 24 26 34 47 53 42 25 12 14 17 55 59 80 76 89 97 100 99 97 99 100 99 52 42 39 39 40 44 40 34
56 59 58 55 50 46 47 41 31 30 33 29 26 24 26 24 23 23 24 24 26 32 48 54 34 20 12 13 19 49 61 78 82 95 98 100 100 98 100 100 98 50 44 40 43 50 48 41 42
47 52 53 55 56 55 50 46 40 34 31 26 27 25 23 26 23 23 24 25 32 35 47 53 37 21 12 13 20 44 57 79 86 91 93 100 100 100 100 96 72 44 48 63 65 58 50 40 32
52 52 49 46 38 54 56 54 43 40 35 27 30 32 26 27 23 23 24 24 27 33 45 56 35 20 10 12 20 38 63 84 84 94 91 97 100 100 99 91 74 50 69 77 87 95 83 55 38
75 69 68 65 46 44 59 57 48 44 38 28 38 36 33 28 23 24 24 27 30 38 48 57 35 25 9 12 21 38 63 75 80 87 92 96 97 98 100 100 97 84 96 97 100 98 97 77 70
87 80 83 75 54 54 53 57 53 46 36 29 39 34 28 26 24 24 25 29 32 38 49 47 36 34 9 12 21 49 66 75 76 89 95 94 96 98 100 99 100 99 99 98 90 94 72 53 34
73 86 83 70 72 75 65 59 53 41 33 28 36 33 28 26 25 24 23 26 34 39 49 53 50 37 11 12 18 51 64 72 78 85 95 100 99 99 98 100 100 99 100 100 98 99 63 56 36
72 86 83 82 78 85 67 64 51 34 29 28 33 35 30 26 24 23 23 25 35 40 52 58 56 43 13 11 16 31 64 70 71 73 84 98 100 100 98 95 100 100 100 100 100 99 97 92 48
65 95 91 90 90 86 52 63 53 39 41 40 34 32 28 31 27 27 25 23 23 35 48 58 60 48 16 11 16 23 43 63 70 71 71 78 97 100 98 100 99 99 100 100 100 100 99 99 84
59 93 90 89 88 78 50 61 46 53 49 39 37 30 28 27 28 26 25 22 21 33 45 56 54 46 18 13 16 20 28 50 64 70 69 70 87 91 99 100 98 100 99 100 100 99 99 99 96
86 97 92 98 91 98 62 48 46 49 42 35 29 29 28 27 26 26 25 20 21 35 46 61 54 49 24 17 15 19 22 32 53 61 65 71 76 91 95 100 100 100 100 100 100 100 99 99 100
87 98 99 98 98 89 67 74 96 69 54 41 29 25 27 25 24 25 24 23 26 38 50 66 54 48 42 22 17 19 22 25 30 42 57 72 80 88 98 99 99 99 100 100 99 99 100 99 99
86 94 96 98 86 98 94 97 100 100 85 51 37 26 26 26 26 24 22 23 34 43 60 69 64 62 50 46 25 18 19 23 28 36 45 48 53 67 88 94 98 100 98 98 100 100 100 100 100
70 70 73 98 99 94 99 98 100 100 98 96 57 41 29 28 26 27 23 31 40 49 67 72 82 90 79 55 45 30 18 18 23 27 35 49 58 56 64 79 71 80 96 99 96 98 99 100 99

GFSSGP_700_rhum_075.txt.gz
RH
6 9 12 13 12 12 10 9 10 14 23 25 22 21 19 20 20 20 20 18 18 23 38 40 42 46 46 46 41 34 25 23 29 54 60 57 51 50 52 55 74 66 73 62 52 34 34 32 21
6 8 11 14 12 15 11 8 10 16 19 24 24 22 24 23 22 22 20 20 19 25 35 38 33 28 25 23 23 26 24 25 28 47 64 61 52 50 46 43 52 53 61 60 61 38 18 11 16
6 7 11 16 14 17 10 8 12 22 23 22 26 26 30 26 23 21 21 21 19 20 24 30 27 27 27 21 24 27 28 28 29 53 72 63 53 48 42 50 36 36 42 43 46 39 15 7 26
6 9 13 14 13 10 7 10 19 25 25 27 33 31 27 24 22 22 22 21 20 21 28 29 28 27 26 17 18 22 29 37 40 63 78 68 58 55 49 54 35 29 31 35 44 48 9 9 12
6 11 15 14 12 11 7 11 16 24 22 14 22 31 28 25 24 23 23 22 24 25 24 26 29 29 26 20 21 22 27 42 45 68 86 74 67 66 60 58 41 44 34 42 33 46 8 11 12
10 9 14 14 13 9 8 7 10 13 11 12 15 26 30 24 23 23 26 23 28 31 30 32 30 30 27 22 36 31 37 48 62 82 92 85 79 76 69 60 57 57 41 27 26 36 10 12 14
23 15 12 12 16 12 7 8 10 11 12 21 23 24 26 25 24 24 25 26 27 36 38 32 32 31 27 26 51 54 57 63 78 86 90 98 98 99 91 79 77 66 66 40 22 23 15 14 15
27 26 25 23 24 14 9 9 10 12 13 24 29 29 23 23 24 25 24 30 26 27 29 29 29 30 27 26 45 61 64 67 77 90 87 94 99 97 99 94 93 84 61 54 32 31 16 14 16
29 31 33 30 24 20 17 12 10 12 12 15 31 36 37 30 25 26 28 27 27 28 30 30 30 29 22 25 42 48 74 65 59 78 96 98 92 82 95 97 94 96 84 66 59 41 16 18 18
30 30 32 29 26 24 23 18 14 16 20 19 26 32 40 45 30 28 30 27 28 29 30 33 32 29 16 19 36 37 61 79 71 60 67 81 97 91 84 98 97 96 94 76 58 34 20 23 19
26 28 28 29 28 27 26 22 18 16 15 14 21 28 32 39 33 33 30 30 32 30 30 34 31 29 16 12 14 28 38 48 48 52 57 85 88 96 78 97 98 98 100 83 50 25 27 20 20
21 22 24 27 28 28 27 24 22 18 15 10 14 23 30 39 35 32 35 31 33 31 33 35 30 28 28 13 12 12 28 44 37 34 40 51 78 92 83 98 98 100 100 82 40 23 24 22 25
26 24 26 26 27 27 28 27 25 21 16 10 13 20 26 32 32 30 33 34 35 30 34 36 31 29 32 15 11 13 14 24 51 54 54 64 76 86 100 97 95 99 100 84 26 23 24 27 28
25 30 30 31 28 28 26 27 27 24 16 10 14 17 26 26 28 27 27 28 30 30 33 34 30 32 34 25 12 14 15 19 42 67 78 68 70 79 98 99 99 100 99 72 25 25 29 29 32
29 32 36 30 30 29 25 30 27 26 18 14 13 16 25 24 25 24 22 24 28 37 35 43 46 46 38 31 14 15 16 24 51 64 72 73 73 92 100 100 99 100 100 43 28 30 32 31 36
37 37 38 32 30 31 27 34 27 29 30 23 12 14 24 24 23 23 22 22 30 36 41 46 51 52 34 23 14 14 16 50 60 74 75 78 86 98 88 94 94 99 100 91 57 59 40 36 40
41 45 41 33 32 39 50 50 36 35 33 26 19 19 21 25 23 22 22 22 25 33 42 48 52 53 32 17 13 15 31 57 69 76 76 99 99 90 86 94 99 100 99 97 58 49 39 44 43
38 45 48 52 48 52 54 52 50 46 41 35 28 25 23 25 22 22 23 23 23 28 37 43 52 50 36 16 14 18 39 60 75 79 84 97 99 99 89 99 100 100 99 58 39 38 46 51 44
44 45 52 43 42 44 39 54 52 46 43 39 30 24 23 24 23 24 23 24 24 27 30 38 50 58 38 15 14 19 43 62 81 79 86 93 99 100 99 98 100 100 97 52 45 44 48 48 45
49 52 43 50 46 48 46 48 42 42 39 38 35 29 22 25 24 25 23 24 24 25 28 35 47 60 36 15 14 20 48 76 88 86 91 85 98 99 100 99 100 99 91 50 42 37 49 52 50
61 66 64 76 69 64 60 52 45 33 38 37 37 30 24 25 25 23 23 23 24 25 28 39 49 62 40 14 15 24 48 78 85 88 93 87 98 100 100 99 100 99 72 46 41 56 51 49 47
60 55 74 82 83 65 57 48 51 52 47 37 38 28 28 25 33 22 23 23 25 26 34 43 52 56 43 15 16 30 54 79 83 91 94 100 97 97 100 100 98 96 53 42 57 67 68 79 87
61 45 82 90 90 84 76 68 55 50 46 35 36 25 31 36 29 28 23 24 26 29 35 44 56 50 44 16 17 28 59 75 92 98 97 96 100 99 96 98 98 97 60 52 68 74 91 97 99
59 46 69 87 90 81 69 66 57 44 35 34 24 26 34 35 29 26 24 24 24 32 37 46 55 59 54 17 16 25 55 72 83 90 93 93 92 100 100 100 100 99 99 86 89 92 94 88 85
47 77 76 79 84 63 55 68 59 49 48 38 37 28 33 35 29 27 25 24 23 30 40 48 55 65 62 20 16 21 40 66 79 84 86 90 89 92 99 99 99 99 100 100 99 98 99 96 92
59 73 80 78 74 66 65 59 58 61 44 37 34 35 36 33 30 27 25 24 24 25 35 46 56 66 58 21 15 19 28 49 67 76 80 80 82 92 100 99 99 99 100 100 100 100 100 98 99
82 98 80 97 91 96 62 58 70 73 65 53 44 34 32 32 31 31 28 27 25 24 34 40 51 64 63 20 14 19 22 30 52 63 70 74 80 93 99 99 99 100 99 99 100 100 100 99 98
75 79 99 96 87 78 55 65 90 70 52 41 33 26 19 27 29 28 28 26 26 23 33 41 60 65 61 24 16 14 19 23 30 48 53 66 73 80 85 92 98 98 100 100 99 100 100 100 99
81 87 96 98 96 78 85 94 99 99 90 60 54 43 27 23 28 28 26 25 27 24 35 47 68 66 58 45 21 15 15 19 24 28 38 43 65 76 89 93 98 100 100 100 98 99 100 98 100
75 87 88 98 93 97 98 84 91 100 98 97 79 56 40 38 29 26 28 27 26 26 39 54 72 60 58 56 46 24 16 17 21 24 26 30 39 51 74 85 86 80 89 91 98 99 100 100 100

GFSSGP_700_rhum_081.txt.gz
RH
6 5 6 9 22 19 11 10 8 9 13 16 22 19 16 16 25 33 36 23 20 18 18 18 22 28 35 34 35 38 42 37 32 28 28 43 47 52 58 76 81 74 58 47 42 46 66 60 51
14 6 6 23 22 14 11 10 8 12 10 23 20 20 24 24 29 44 26 21 21 19 19 18 19 24 32 33 33 30 24 31 30 28 30 39 51 54 64 77 85 80 76 59 50 40 42 61 59
26 8 26 23 19 19 10 8 8 10 16 18 17 28 32 29 33 42 49 23 22 20 20 20 19 19 20 21 21 18 16 19 25 27 29 34 48 58 69 74 91 93 82 69 69 52 49 43 29
30 25 32 23 17 13 13 12 8 10 21 20 17 24 30 39 57 56 36 24 22 21 22 21 20 24 24 22 20 18 15 14 20 29 33 39 43 60 71 81 92 99 92 73 66 59 57 46 21
35 32 27 20 18 15 12 13 11 14 18 20 19 17 22 34 42 42 26 24 24 23 24 22 20 22 21 23 22 18 16 18 18 30 42 46 46 62 73 88 92 94 91 77 63 54 66 55 19
45 36 26 20 16 14 14 12 13 14 18 23 22 21 22 26 43 44 28 26 27 25 25 22 20 21 23 22 21 18 17 27 24 30 50 53 61 75 82 88 94 88 95 84 70 61 63 58 15
42 31 26 21 17 14 12 15 17 14 16 15 15 18 24 29 48 62 44 32 30 28 26 23 22 22 24 26 24 18 16 34 37 42 56 65 86 84 99 97 96 92 95 87 71 70 56 50 16
43 37 29 23 20 17 14 17 16 15 16 14 15 22 22 29 45 22 26 30 28 29 26 24 24 25 29 28 24 13 14 37 45 48 55 65 72 94 84 95 100 97 89 97 87 75 56 42 24
47 40 31 26 22 19 19 20 17 18 17 16 21 25 26 37 37 12 20 28 29 28 27 26 26 28 31 27 24 11 16 30 47 55 56 64 77 85 90 92 98 99 97 98 98 78 63 50 39
41 36 29 25 22 21 22 22 22 20 22 24 20 20 25 30 16 18 26 26 27 27 28 27 28 30 33 28 25 15 11 14 32 58 62 64 73 87 95 97 83 84 91 83 94 86 80 71 60
36 33 27 22 22 25 28 26 25 23 22 23 27 26 26 33 37 25 37 76 31 28 30 28 30 32 35 29 26 25 13 11 16 38 61 68 69 88 92 94 94 82 85 89 90 99 87 85 55
35 36 33 29 27 30 32 30 26 24 25 25 27 27 26 27 34 37 34 59 87 47 31 30 30 34 36 31 27 28 22 12 12 24 36 55 69 70 74 96 97 88 90 94 99 97 95 86 70
25 27 28 32 28 28 30 31 29 27 27 28 28 30 30 27 29 32 39 49 79 86 31 31 32 35 38 31 28 31 27 18 13 18 25 42 50 72 90 95 96 98 97 96 98 97 97 96 75
26 28 30 30 26 28 30 30 30 28 28 28 29 30 30 30 28 28 35 41 47 76 37 31 31 34 37 32 41 38 29 19 12 14 23 29 37 50 59 82 85 94 98 98 99 99 98 93 78
41 38 32 29 29 31 34 32 31 31 32 31 30 32 32 32 28 25 32 37 44 61 44 32 32 32 38 41 48 39 27 16 11 12 17 36 36 53 63 87 81 96 96 97 99 100 99 89 88
36 34 28 23 26 32 38 30 28 26 27 30 33 34 33 33 27 22 30 36 43 63 36 28 30 32 41 46 53 38 30 16 11 12 16 34 46 59 69 87 84 100 100 99 100 100 98 95 89
34 28 23 23 28 33 34 33 30 32 34 29 30 32 33 31 25 22 28 32 46 66 26 26 27 31 42 49 57 43 31 15 11 14 19 46 44 76 91 87 90 99 98 97 100 100 99 94 64
20 24 27 26 28 38 40 35 33 34 34 35 36 34 33 30 26 23 28 37 57 60 26 24 27 31 38 46 57 52 30 11 11 15 31 66 77 76 99 85 82 92 97 98 100 99 98 63 66
33 30 28 29 28 30 30 29 29 28 28 31 38 39 37 35 30 27 30 40 63 52 22 22 27 30 33 46 56 56 33 10 11 16 36 56 59 82 85 88 95 99 99 98 100 99 97 83 54
38 38 36 32 32 44 43 39 33 32 30 29 29 34 38 38 34 30 30 42 31 26 23 22 26 30 31 44 52 59 39 12 13 23 45 54 73 93 90 93 98 100 99 98 98 100 98 75 68
38 37 36 39 40 40 36 32 31 31 35 36 31 28 30 38 36 31 29 41 26 24 22 23 24 25 32 40 51 59 46 12 15 36 45 67 80 78 88 97 98 99 99 99 99 100 99 97 94
41 41 46 54 46 34 32 32 29 25 26 30 31 34 32 38 38 33 27 37 26 23 23 24 24 24 30 40 50 57 40 12 23 43 56 73 83 89 96 99 97 100 100 100 99 98 100 98 86
49 52 64 58 48 39 34 32 26 27 30 32 33 34 34 37 38 33 30 29 33 23 23 24 24 25 33 44 51 49 29 12 23 44 64 71 81 88 99 98 100 99 98 99 99 100 97 97 74
51 62 62 48 40 41 36 31 24 25 38 41 42 41 37 38 37 35 28 28 49 27 24 24 25 25 38 46 52 51 19 12 23 48 57 71 81 93 98 100 98 100 100 99 100 100 97 91 75
65 59 37 27 40 42 31 35 28 34 56 63 65 63 71 67 60 47 38 38 50 40 23 23 23 25 40 46 53 57 22 13 21 50 57 74 81 90 91 99 100 99 100 100 100 99 96 82 71
50 54 39 44 38 45 53 35 44 58 64 71 75 90 94 94 92 72 52 50 70 34 22 22 23 26 41 46 56 59 27 13 18 39 61 70 80 88 92 99 98 99 100 100 99 98 85 60 52
56 54 47 48 44 41 33 27 47 70 74 80 94 100 74 54 65 74 66 69 39 31 27 23 26 32 41 51 60 60 27 12 17 29 54 64 70 77 88 95 99 100 99 100 100 100 79 48 50
60 73 79 62 62 49 29 30 89 96 96 88 76 55 51 48 46 40 90 95 40 30 26 26 31 37 46 52 60 60 25 13 18 20 36 57 71 75 80 86 100 99 100 100 100 98 99 100 98
64 68 72 80 74 60 55 81 100 81 76 92 86 70 54 43 40 42 76 100 66 27 29 29 33 41 47 57 53 56 29 14 17 20 21 34 50 69 78 93 88 100 99 100 100 100 100 100 100
47 60 69 76 50 63 67 70 100 91 97 94 90 90 85 69 42 40 37 36 34 32 31 30 37 43 52 58 53 56 36 16 16 22 24 26 37 64 76 87 90 93 99 99 98 100 98 100 100

GFSSGP_700_rhum_084.txt.gz
RH
22 9 6 6 25 25 18 14 12 10 8 9 13 17 15 13 23 33 58 44 35 31 19 18 18 18 17 19 28 33 33 33 33 35 28 26 37 42 47 61 72 69 58 49 51 61 70 66 57
26 18 7 20 27 21 16 13 11 9 9 12 17 18 13 16 22 31 38 33 27 19 19 19 18 19 19 18 20 26 30 32 31 34 30 28 32 46 48 60 69 83 68 60 50 48 62 64 56
27 26 20 34 26 22 18 15 12 8 10 12 18 15 20 23 22 34 43 39 20 20 20 19 20 20 19 18 20 19 18 17 19 26 28 30 33 44 51 60 87 90 81 70 60 54 49 53 58
31 21 40 31 23 18 16 15 13 11 10 15 16 14 26 31 38 47 53 44 31 22 21 20 21 20 18 15 18 20 19 16 13 19 27 30 33 38 48 64 85 90 92 78 70 71 59 57 41
33 45 40 30 24 20 18 16 14 12 11 15 19 16 20 29 33 46 46 39 28 23 22 22 21 19 17 15 15 17 19 17 16 16 21 34 37 39 45 63 82 96 93 88 70 74 66 63 39
34 39 33 26 23 20 17 14 13 11 12 15 19 19 20 20 29 44 45 33 26 25 24 23 21 21 20 18 18 18 18 16 16 20 21 28 40 49 57 61 87 98 96 92 85 78 63 68 37
52 43 36 29 24 20 17 15 13 13 13 13 15 21 19 20 29 54 63 49 28 27 27 24 22 22 22 21 19 21 19 14 16 30 28 32 57 66 72 71 74 100 99 94 92 84 63 64 45
61 48 38 31 26 22 20 17 14 14 15 15 14 15 14 17 27 42 72 41 34 27 28 27 24 23 24 22 24 21 15 11 18 36 42 44 52 72 83 85 84 81 100 98 97 91 77 60 50
56 51 44 34 29 25 22 19 17 17 16 15 16 16 17 26 38 36 35 42 28 28 28 27 25 25 25 24 24 21 14 10 16 34 47 51 53 67 66 84 96 94 91 99 87 92 86 73 56
48 53 41 36 30 26 22 20 21 20 19 18 18 16 19 25 29 35 33 26 22 15 28 27 26 27 26 26 24 22 22 12 11 18 41 58 58 63 69 78 99 98 83 97 98 95 91 78 72
33 39 37 33 28 25 23 23 23 24 21 20 21 22 20 22 23 24 26 18 35 31 24 27 28 28 28 29 25 23 21 22 12 12 36 50 61 67 71 83 93 91 87 80 96 96 95 85 78
32 30 29 28 30 29 27 26 27 28 26 23 23 24 26 25 26 31 33 12 60 90 41 27 29 29 30 31 28 28 23 21 21 11 26 35 50 62 73 81 92 93 83 74 75 92 94 94 83
26 25 26 29 29 29 28 27 27 28 27 26 25 25 25 27 26 26 31 31 39 93 92 53 28 29 31 33 30 28 28 26 23 24 24 22 35 49 58 73 76 74 92 87 86 92 93 100 91
26 25 23 22 23 23 24 24 23 21 24 25 25 25 26 27 29 28 28 30 38 56 94 88 37 29 31 33 31 32 41 36 24 17 28 24 25 41 52 65 63 80 80 86 94 90 98 98 97
38 36 35 33 31 29 27 26 26 26 26 24 28 28 26 27 28 30 28 28 35 41 75 98 55 30 31 32 31 39 46 37 28 16 14 20 26 26 40 47 66 61 88 85 85 98 98 99 99
38 33 29 25 23 22 24 25 26 24 26 26 29 28 30 29 30 32 32 27 31 37 43 92 48 29 32 31 30 40 50 40 31 17 13 21 27 32 51 51 64 73 99 83 95 96 98 100 99
38 37 30 26 23 22 22 28 29 29 30 30 30 26 29 32 32 32 32 26 30 35 41 60 38 28 34 31 27 42 54 46 33 14 12 15 33 33 57 60 76 74 79 91 94 98 99 100 100
30 28 26 24 23 26 26 27 31 32 30 30 32 32 32 31 33 33 30 23 27 32 43 53 45 29 31 28 29 38 54 55 37 13 10 13 46 49 65 64 80 86 100 99 98 99 100 100 100
35 36 34 30 26 26 27 27 27 27 25 26 25 32 35 34 34 31 26 22 25 32 46 58 46 32 28 24 31 38 50 60 42 20 10 14 28 70 83 82 81 98 82 94 99 100 98 100 100
33 31 31 30 29 31 29 28 32 36 35 31 28 26 28 37 35 34 27 24 27 38 52 62 36 25 25 27 33 38 45 58 48 25 11 25 40 62 80 87 88 89 100 99 98 100 97 100 99
35 33 33 32 31 35 40 35 29 30 22 28 30 30 28 29 37 37 33 27 32 42 59 57 30 21 25 31 30 33 44 58 55 21 16 38 52 67 78 79 86 90 96 100 99 99 100 100 99
40 34 34 40 38 45 38 40 30 24 29 29 32 32 34 30 29 37 35 29 35 37 43 60 29 22 25 26 27 31 46 56 53 15 25 40 57 87 93 80 86 86 100 100 99 100 100 99 100
33 37 42 46 53 52 48 36 29 23 24 24 26 30 32 36 29 32 37 32 29 34 34 33 25 24 24 24 26 32 48 49 43 13 28 48 62 76 86 88 92 100 100 98 99 100 100 100 100
50 51 45 51 51 54 46 32 30 28 43 56 46 48 45 35 34 36 38 34 36 33 31 30 23 26 24 25 26 39 49 41 27 14 31 54 70 76 80 91 94 97 100 99 98 100 100 100 100
57 56 43 42 36 46 65 68 37 55 72 65 56 60 62 68 61 51 42 33 31 45 42 32 25 25 25 26 30 44 40 47 28 14 27 59 68 77 83 92 92 99 98 100 99 100 100 100 98
47 54 51 46 51 43 46 88 53 65 71 72 68 76 69 70 68 63 52 40 34 38 49 42 33 25 24 26 34 46 42 48 30 15 28 63 69 79 86 91 92 98 100 100 98 98 100 100 100
45 42 44 48 44 46 40 38 70 96 97 90 84 84 69 56 64 61 64 48 48 54 56 49 39 29 25 27 36 47 48 52 26 15 24 49 64 78 91 86 99 97 99 100 100 100 100 99 100
48 50 66 80 70 52 30 42 91 88 97 75 60 65 55 51 64 73 66 75 71 80 70 46 38 26 28 31 38 51 52 57 21 16 24 36 46 55 76 91 99 98 100 100 100 98 100 100 98
46 54 53 67 68 69 84 95 99 91 89 90 89 84 78 59 50 55 67 68 77 77 74 71 61 37 39 37 43 51 56 56 20 16 23 36 36 48 68 80 96 100 100 98 99 100 100 99 99
47 39 56 68 58 59 59 70 97 89 79 75 75 74 72 77 59 59 65 66 60 50 71 82 71 56 42 44 46 53 56 49 22 15 23 28 32 38 64 77 96 100 99 100 98 99 100 100 100

GFSSGP_700_rhum_087.txt.gz
RH
25 22 10 7 10 16 22 19 14 10 10 11 10 9 11 15 21 26 37 52 45 31 26 23 18 18 18 17 15 16 29 32 32 30 34 33 26 36 40 47 56 59 55 49 53 59 65 70 64
25 26 15 12 19 21 16 9 12 13 15 14 10 10 10 12 19 25 29 35 50 23 20 20 19 19 18 18 16 15 18 26 31 30 31 34 28 34 42 46 57 65 62 55 46 52 67 70 60
29 28 17 12 18 18 13 8 11 14 14 14 12 13 12 11 13 20 33 38 28 21 20 20 20 19 19 19 18 16 17 18 18 20 24 32 30 34 45 48 59 63 62 60 57 47 51 66 61
32 27 23 29 25 14 15 11 15 15 16 14 13 13 14 23 14 20 46 42 42 25 21 21 20 20 20 19 18 17 12 18 18 15 18 25 29 32 37 52 58 73 74 70 68 60 58 59 62
33 28 22 24 19 16 16 15 14 16 16 13 14 17 18 26 27 29 40 43 35 36 34 23 20 21 21 20 19 18 13 14 18 16 15 19 29 32 32 44 63 78 88 83 80 71 66 62 60
32 29 45 35 26 20 19 19 17 15 14 13 13 18 16 23 26 29 28 30 34 34 27 23 22 22 22 21 20 17 13 13 14 16 17 18 25 30 36 41 54 84 97 94 97 83 78 70 61
21 29 33 38 37 29 23 22 21 18 17 14 12 15 20 20 18 34 48 45 30 36 26 24 23 22 22 21 20 18 14 13 14 14 18 24 24 26 40 46 49 64 86 100 98 94 83 77 71
19 31 43 49 45 38 26 23 23 21 17 13 13 13 14 19 20 23 31 50 35 34 30 27 25 24 23 22 22 20 17 14 12 11 18 33 34 32 51 56 67 69 80 89 100 99 95 84 72
43 63 60 51 39 33 30 27 22 23 20 17 15 15 15 15 16 19 30 48 46 31 34 29 28 26 24 24 24 22 19 17 13 10 16 30 42 46 49 65 82 86 88 81 78 100 99 90 78
37 57 57 43 38 32 32 31 28 24 22 21 17 16 16 16 16 21 28 42 47 31 23 30 30 28 26 25 25 23 21 18 18 12 11 17 42 53 53 65 74 88 86 94 86 100 99 92 77
9 32 23 36 37 38 39 32 28 26 24 24 21 21 18 19 19 22 22 27 40 35 27 16 30 32 27 27 26 25 23 21 20 20 12 11 29 51 60 66 72 79 87 95 82 100 98 95 79
42 33 33 31 30 29 30 29 29 30 27 27 25 23 23 24 23 21 23 23 23 23 29 21 22 34 30 28 28 27 24 24 23 21 20 13 22 49 60 68 73 82 88 91 81 98 99 95 92
38 36 36 34 30 28 27 30 31 31 28 28 26 23 23 24 26 26 26 26 28 25 26 15 17 38 33 29 29 28 25 25 27 28 21 22 18 26 43 54 71 83 81 82 84 82 89 91 93
31 27 28 25 27 23 24 23 23 22 22 24 26 24 21 22 24 26 27 28 31 24 66 79 39 41 41 31 30 30 27 30 34 34 27 18 18 18 32 45 49 78 72 89 85 90 87 93 97
36 36 34 31 29 25 26 25 23 21 21 22 18 15 17 15 23 26 27 27 29 25 34 58 96 71 55 35 33 31 29 33 37 40 33 24 14 16 24 28 42 62 69 88 90 91 88 90 96
46 44 42 25 20 18 22 24 22 21 25 26 25 25 26 28 25 24 26 28 27 27 32 40 56 81 65 43 35 32 30 36 44 46 36 24 14 12 23 28 39 49 72 75 100 94 84 91 98
46 40 31 25 29 28 26 26 24 24 26 30 30 30 32 32 28 29 29 28 30 29 33 35 40 45 44 55 35 33 30 37 48 51 41 21 10 12 18 33 58 57 74 80 100 89 94 90 100
49 40 35 35 33 31 30 27 29 28 28 28 31 29 31 32 33 32 32 32 32 32 28 31 38 40 52 57 36 36 30 35 50 55 49 29 9 13 20 51 59 70 81 81 78 79 97 94 99
35 35 35 34 33 32 28 26 26 27 25 25 23 18 24 28 28 32 34 35 33 32 27 28 40 42 45 46 38 38 30 34 45 56 55 39 12 13 24 68 69 74 89 88 85 98 99 99 99
38 35 33 32 30 31 32 30 30 29 26 30 30 26 26 31 29 32 32 34 32 25 25 28 34 40 46 47 35 37 32 35 41 49 57 44 14 24 44 82 81 81 81 82 83 98 100 100 99
37 40 39 36 36 35 37 36 35 36 21 30 31 28 27 32 28 31 35 34 30 23 23 24 37 45 40 46 39 34 31 30 34 46 54 37 15 36 43 73 83 83 89 88 87 89 99 100 99
43 42 38 35 35 47 46 57 49 28 22 20 27 34 30 29 31 27 33 35 32 27 24 37 45 49 36 43 33 31 29 31 37 47 48 22 18 40 45 62 80 89 95 87 94 99 98 100 98
40 41 37 36 42 49 50 53 45 40 37 27 39 47 29 30 34 31 36 33 34 33 41 39 41 39 34 36 30 28 29 32 37 48 43 14 26 44 52 77 85 85 93 92 93 100 100 99 100
40 46 51 52 49 56 43 57 60 59 41 39 45 68 49 32 35 31 31 32 37 35 33 39 37 34 34 36 32 26 30 33 41 48 40 15 38 54 71 83 87 99 99 98 99 100 100 100 100
43 53 68 58 61 60 44 54 55 64 77 78 74 77 58 44 41 36 32 38 38 47 44 32 29 30 30 35 27 26 28 34 46 51 31 16 39 53 71 82 91 100 99 99 100 99 100 100 98
50 50 64 73 70 59 46 51 62 82 100 95 98 88 61 55 46 45 40 39 39 39 57 44 41 34 34 32 30 27 28 41 52 50 25 18 39 60 73 85 97 100 96 100 100 100 100 100 100
51 50 47 55 54 60 48 38 83 88 89 99 80 68 60 59 57 65 59 51 45 43 44 52 43 44 41 40 33 30 32 44 55 60 23 18 33 59 79 88 98 100 99 99 100 100 98 100 100
48 37 52 59 91 81 47 70 95 94 76 93 90 77 64 48 54 59 60 60 62 44 72 72 66 58 51 48 36 31 36 52 60 63 20 17 29 52 69 87 99 99 99 99 100 100 98 100 100
49 52 50 52 65 87 86 76 98 74 73 80 90 72 72 60 52 51 57 63 73 68 95 99 96 88 57 50 38 34 40 52 60 60 18 18 24 40 64 76 92 96 100 100 100 100 100 100 100
69 60 58 60 65 65 67 86 88 78 82 86 79 64 69 71 57 51 66 72 72 72 79 86 83 93 90 70 46 40 40 53 58 55 18 17 24 33 48 70 82 100 99 99 98 100 100 100 100

GFSSGP_700_rhum_093.txt.gz
RH
15 19 23 16 11 10 10 9 8 8 10 16 19 16 13 15 14 12 13 16 29 32 32 22 16 21 20 18 18 16 16 14 15 18 26 30 28 30 26 28 41 50 57 52 46 44 55 65 61
14 18 23 16 14 12 10 9 9 9 13 13 18 17 17 16 14 13 13 17 30 39 35 26 26 25 20 19 18 18 17 16 14 15 19 28 26 26 30 28 38 46 58 55 51 49 60 64 66
13 19 25 20 17 14 12 11 10 12 16 14 19 19 18 18 16 14 14 18 23 25 42 30 26 25 21 19 19 18 18 18 15 14 14 16 19 19 24 28 33 49 60 58 56 53 64 66 70
15 21 27 20 16 14 13 12 12 13 17 18 21 19 17 16 14 14 14 14 17 20 36 29 20 20 20 20 20 19 19 19 15 13 13 15 16 18 19 28 31 46 59 63 66 65 63 70 76
15 22 27 22 19 16 15 13 15 14 13 18 23 20 17 19 17 14 13 14 21 29 30 22 21 21 21 21 20 20 20 20 19 16 15 14 16 16 19 22 30 44 54 62 66 74 75 69 64
18 22 27 24 21 18 17 16 18 18 25 24 24 23 17 17 18 17 15 17 27 32 33 33 37 38 33 26 22 21 20 20 18 16 16 14 13 16 16 19 25 36 46 57 67 72 84 80 70
18 20 23 23 24 22 18 19 20 29 31 28 29 21 17 17 18 22 27 24 27 28 29 26 27 36 32 23 22 22 20 20 18 18 16 14 11 12 15 17 19 30 39 51 67 92 96 95 83
16 17 22 25 26 25 19 21 21 24 26 32 33 26 18 24 22 19 27 23 22 21 20 19 20 20 28 24 23 22 21 20 19 18 17 14 11 10 13 18 21 26 40 50 68 97 99 95 94
14 18 21 24 22 20 19 20 20 26 34 31 29 28 28 18 18 24 21 29 29 30 31 24 22 26 25 28 26 23 23 22 20 20 18 16 14 10 14 23 28 29 39 56 66 74 77 90 89
13 13 17 18 18 18 20 22 21 25 27 29 29 28 37 42 46 43 39 29 30 37 32 33 31 33 31 27 27 24 24 23 22 21 20 18 17 15 12 18 30 37 44 62 68 80 83 88 86
15 17 17 17 18 18 20 16 14 18 23 30 29 28 27 28 72 76 68 77 51 47 50 43 40 37 34 31 31 29 26 25 24 23 22 20 19 18 14 12 22 44 53 57 72 84 94 90 88
17 15 15 15 18 17 13 19 27 25 28 30 31 29 29 27 29 43 77 65 77 56 43 32 30 38 39 37 33 34 28 27 26 25 23 22 21 20 20 16 19 42 57 63 73 83 85 91 99
18 18 21 27 31 32 35 35 34 29 24 26 28 28 28 29 27 28 30 64 78 62 82 42 30 29 27 29 28 35 37 29 28 27 25 26 28 27 23 21 20 32 59 66 73 89 96 97 92
21 28 24 27 22 19 20 22 29 27 26 26 24 24 25 24 24 26 27 28 32 61 56 47 28 26 24 22 22 25 32 36 30 29 28 28 34 33 32 26 17 21 51 68 74 92 93 87 95
27 27 32 26 27 34 31 31 28 29 27 24 23 22 21 21 17 20 23 24 27 27 33 42 34 31 28 27 37 52 50 48 32 30 31 32 39 38 39 29 18 16 34 54 75 83 88 92 94
39 40 40 30 32 33 34 30 25 24 25 23 25 20 15 16 20 23 18 15 18 25 24 28 32 34 32 30 30 50 98 56 35 32 33 34 43 39 43 35 12 13 21 39 58 71 85 94 98
38 42 37 31 20 29 29 29 30 30 29 29 29 28 26 23 22 26 30 31 29 26 24 20 30 35 31 31 29 44 90 81 39 35 35 35 43 40 46 43 15 10 14 28 36 70 71 94 96
33 35 27 23 27 35 37 30 28 25 25 25 24 25 27 26 26 28 29 29 31 31 28 26 22 29 34 34 40 29 68 90 78 41 40 36 40 40 47 49 26 10 12 20 32 61 71 91 94
20 22 23 35 36 38 36 35 31 30 31 27 22 25 25 22 23 26 26 23 28 32 32 32 26 25 31 33 34 33 29 63 82 61 46 40 38 39 46 50 39 15 13 21 42 61 73 82 93
37 39 40 39 39 44 45 41 30 31 26 28 33 33 35 31 24 20 25 23 26 30 34 34 31 28 27 28 29 29 32 56 77 83 54 43 41 38 44 49 42 18 18 23 49 62 72 81 93
45 46 46 46 48 46 42 35 16 18 31 37 35 56 57 45 30 23 22 20 26 24 31 33 34 30 30 29 31 31 36 61 92 76 51 48 42 40 42 45 33 17 32 50 56 73 82 84 94
52 44 43 47 45 45 49 50 11 34 40 35 61 56 62 58 32 22 21 20 25 28 25 30 37 34 32 32 32 32 31 50 54 50 51 51 44 41 44 38 23 18 56 60 72 76 85 91 88
43 40 40 41 44 37 46 53 35 37 43 50 50 55 65 60 81 41 31 35 31 30 28 30 36 36 36 33 34 32 30 50 70 73 60 47 46 39 42 36 16 26 67 68 81 84 88 92 94
38 38 41 40 40 59 36 49 46 50 51 57 72 71 63 48 51 72 54 50 33 31 30 32 34 37 35 34 32 30 29 50 64 66 51 50 46 40 39 31 17 31 46 64 82 84 88 88 87
26 38 54 57 69 69 35 52 47 42 63 60 48 53 66 94 96 77 76 54 42 35 30 31 32 36 32 28 26 26 40 56 74 60 49 47 45 40 40 22 19 41 51 60 70 80 88 88 87
44 43 49 68 77 50 48 56 42 46 58 63 59 65 90 93 99 83 81 71 51 38 34 39 39 41 28 27 32 56 57 70 53 51 42 47 45 42 39 17 23 50 72 79 84 88 91 86 89
54 48 40 44 52 65 56 53 52 59 73 67 59 78 90 98 100 99 96 76 58 53 46 42 46 43 49 35 68 78 72 54 52 47 41 44 44 43 41 17 33 57 65 79 92 99 98 98 100
55 66 70 78 92 86 62 58 53 53 67 60 62 65 94 97 100 91 74 67 62 57 57 47 50 47 50 55 70 90 72 58 58 43 36 45 45 45 37 18 30 50 70 81 92 93 100 98 100
34 45 78 87 90 91 86 62 50 50 59 60 61 60 97 91 95 83 76 72 68 61 56 58 58 57 72 70 90 89 74 67 62 43 41 47 51 49 29 20 24 34 61 91 87 100 100 100 100
13 51 86 95 96 93 94 76 68 80 84 73 75 72 98 94 93 93 90 95 95 72 69 66 67 77 84 94 95 98 87 71 66 45 45 48 57 53 25 20 23 33 60 95 96 100 100 100 99

GFSSGP_700_rhum_096.txt.gz
RH
13 15 19 21 14 12 11 10 9 9 9 16 14 19 19 19 17 13 13 16 16 21 30 28 13 13 18 25 23 18 17 16 15 13 13 14 15 21 23 21 19 23 36 49 51 46 45 52 63
14 15 20 22 16 13 12 11 10 10 10 18 18 15 18 17 18 18 18 16 18 32 28 22 13 16 20 24 23 18 18 18 17 14 13 12 14 15 16 17 19 20 31 47 54 50 48 57 62
16 16 20 23 20 16 14 12 12 11 13 14 12 16 19 19 20 18 18 20 29 27 31 21 19 20 23 25 20 19 18 18 18 14 13 14 14 14 16 17 20 22 28 41 54 54 52 56 61
18 20 24 21 17 16 14 14 14 14 14 16 21 18 21 19 18 23 17 16 23 26 25 32 31 22 22 21 20 19 19 19 19 16 14 14 15 15 16 17 21 26 28 40 51 62 59 58 60
19 21 27 22 19 18 17 16 15 14 15 15 25 20 19 18 18 19 20 16 19 22 26 26 29 21 20 20 20 20 20 20 20 18 15 14 15 15 16 17 20 26 31 34 43 57 67 65 60
21 22 27 23 20 19 19 18 18 17 17 17 28 29 21 18 17 17 19 21 20 24 26 28 25 21 22 22 23 22 22 21 20 19 16 16 15 13 13 16 21 22 28 33 48 61 70 77 73
22 24 26 23 22 21 20 20 20 19 20 18 27 28 23 18 17 17 18 32 30 29 32 26 30 36 38 33 31 28 22 21 20 19 17 18 15 13 13 14 19 20 31 37 41 56 71 84 87
20 18 20 20 21 21 20 21 22 22 20 23 26 30 24 19 19 20 26 43 40 39 36 38 30 27 27 26 25 24 23 23 22 20 19 19 16 12 11 13 16 21 29 38 41 46 59 78 94
20 16 17 18 20 20 20 21 21 22 25 22 21 29 31 26 22 34 57 54 47 43 40 40 28 25 27 29 27 26 24 24 23 22 20 20 17 14 12 14 20 25 31 37 40 47 53 58 90
22 18 18 19 19 19 19 19 18 21 26 24 21 27 32 33 34 43 58 67 57 51 52 38 34 31 32 30 29 27 25 25 24 24 22 22 19 18 16 14 17 24 36 36 38 49 53 63 74
22 22 20 17 17 18 18 18 19 18 17 16 20 22 30 30 29 49 76 87 83 59 58 57 53 43 34 29 31 30 27 25 25 26 24 23 21 20 18 16 14 17 36 42 42 51 58 72 85
24 23 23 21 17 15 15 16 17 16 16 17 20 21 27 31 29 29 39 70 85 84 75 68 58 57 50 40 30 30 31 30 28 27 26 25 23 21 21 20 19 18 36 49 53 58 67 78 96
8 11 13 17 22 20 21 22 29 27 23 24 27 25 25 29 29 29 29 29 31 58 90 88 75 57 50 46 45 38 38 37 34 28 28 26 24 25 26 25 22 20 37 53 59 62 68 79 99
21 24 22 19 16 18 19 22 27 22 21 22 24 24 25 25 25 26 26 26 27 28 36 63 88 81 65 48 42 30 30 29 38 36 30 28 26 28 31 30 29 24 22 42 60 68 68 85 92
20 23 25 22 21 28 32 34 30 26 30 27 24 24 22 22 22 22 23 23 22 22 26 28 38 72 84 51 30 28 29 34 35 38 36 30 29 30 36 37 36 24 18 25 46 58 56 71 80
39 42 40 34 32 33 33 31 27 25 29 30 29 26 20 18 20 21 22 23 22 23 19 21 26 29 43 64 38 39 43 47 54 58 44 34 32 32 38 42 40 28 12 17 27 48 56 64 83
39 35 37 33 29 21 26 36 31 29 30 29 27 26 25 26 25 25 23 26 27 29 31 29 25 23 27 38 43 40 49 48 51 76 54 39 36 36 37 47 45 40 14 12 19 32 53 65 91
39 43 41 34 20 20 31 32 31 28 28 23 21 19 18 18 18 17 24 25 28 29 32 31 29 29 23 25 38 41 42 41 52 71 53 43 42 39 40 49 50 48 29 11 13 23 43 59 97
37 38 30 18 26 37 32 30 32 24 20 18 17 14 15 21 26 30 22 25 25 27 28 28 30 29 30 23 36 35 34 35 35 53 71 50 47 46 42 48 53 50 41 19 13 21 32 98 90
32 34 33 38 38 48 46 30 23 16 16 13 12 15 23 37 49 40 37 26 21 24 26 23 26 28 32 31 26 38 39 36 36 37 52 84 64 52 44 48 52 52 43 30 16 17 33 65 92
48 52 46 47 46 48 46 33 18 15 18 18 31 35 38 54 46 50 56 32 26 21 22 24 25 28 32 34 31 27 38 37 41 45 45 89 86 57 48 48 49 51 44 28 19 23 46 62 78
54 46 45 44 50 50 45 49 27 20 24 25 29 38 46 44 45 47 51 45 23 20 19 23 24 25 31 35 32 28 28 35 36 35 48 98 95 59 53 51 47 48 41 20 22 54 58 66 76
48 42 40 41 48 50 45 50 29 24 25 36 42 43 46 52 56 52 50 50 31 32 24 20 26 24 30 33 34 31 30 30 32 34 64 77 76 74 60 55 44 45 32 17 32 68 64 73 90
41 41 39 42 44 57 39 43 35 30 32 40 48 54 62 79 79 74 88 84 56 46 29 33 31 28 26 30 37 34 32 32 32 36 58 87 68 82 62 48 48 45 30 18 38 74 72 79 84
29 36 50 52 64 60 48 52 39 37 39 45 60 67 71 76 89 89 88 90 69 47 42 33 32 30 30 34 37 36 34 34 34 35 67 64 56 68 53 48 50 44 26 22 41 71 71 85 88
50 49 45 64 71 59 46 54 45 41 43 56 63 61 67 74 83 99 99 77 73 63 47 36 34 31 32 34 36 35 34 33 35 53 59 75 57 58 52 56 50 47 21 27 41 53 70 91 89
54 54 52 52 49 60 50 49 49 48 57 67 63 65 68 67 78 99 99 98 78 68 54 42 38 36 39 44 41 38 34 33 42 58 86 76 53 56 56 54 51 45 20 34 46 63 74 81 86
51 61 73 70 86 75 62 59 56 65 81 79 71 73 72 75 77 92 92 99 79 68 54 58 54 48 51 58 59 40 36 44 55 68 97 65 56 51 53 54 53 34 20 29 55 76 88 90 94
24 26 46 77 90 97 93 67 87 85 80 78 85 85 76 72 72 72 76 85 82 81 63 56 61 61 60 67 72 71 65 68 83 92 75 64 53 49 55 55 56 22 21 31 63 84 90 89 93
15 65 69 66 94 94 96 80 85 74 68 65 72 98 86 77 72 66 66 79 84 99 72 63 62 71 68 70 70 68 79 83 72 93 87 69 51 48 60 58 52 20 21 32 61 53 84 91 94

GFSSGP_700_rhum_099.txt.gz
RH
15 14 17 19 16 14 12 11 10 9 10 11 14 14 16 18 19 14 16 17 19 17 26 24 22 14 13 20 26 21 17 17 16 15 15 14 19 21 23 16 16 16 19 28 41 47 46 43 46
18 15 18 21 17 15 14 12 12 10 11 12 17 19 17 18 20 20 18 24 26 22 23 27 24 14 13 18 23 21 18 18 18 16 15 14 14 20 23 20 18 18 21 28 39 47 48 46 47
21 17 20 23 19 17 14 13 13 12 12 13 13 16 14 18 19 19 18 28 27 28 26 28 19 14 15 20 23 22 18 18 19 16 16 15 14 15 19 20 22 21 23 28 38 48 52 49 50
24 22 23 22 19 18 16 14 14 15 14 14 15 16 16 18 18 19 19 27 32 30 22 22 21 21 19 21 22 20 19 19 19 18 16 15 15 16 17 19 22 23 26 27 37 51 55 54 55
25 23 26 23 21 20 19 18 17 16 16 16 16 15 17 22 19 18 18 26 32 27 25 23 24 23 21 20 21 20 20 20 21 20 18 15 15 15 14 16 22 26 28 32 35 44 55 61 59
27 24 27 24 21 20 20 20 20 19 19 18 20 16 16 21 20 18 19 24 36 30 33 30 28 23 20 20 21 24 26 23 22 20 19 16 16 16 14 13 18 26 30 33 36 49 62 67 69
28 25 26 24 23 22 21 21 21 21 21 20 24 25 19 23 20 17 17 18 33 32 38 38 36 28 20 21 25 26 29 28 22 21 20 17 17 17 15 13 14 22 27 32 35 45 60 67 79
27 24 24 23 22 21 21 21 22 22 22 22 22 26 24 25 22 18 16 17 21 40 42 49 53 23 25 37 32 30 26 23 23 22 21 20 19 18 15 13 12 16 29 29 36 40 44 59 74
30 24 23 23 23 22 20 20 20 22 24 23 22 23 23 23 24 19 18 18 36 46 48 49 26 29 41 30 29 27 25 23 23 23 23 22 20 20 16 14 12 16 25 27 37 35 41 53 71
28 27 25 24 23 21 20 20 20 20 21 20 19 21 25 25 28 25 22 36 57 54 51 50 26 48 38 33 31 28 24 25 24 24 23 23 22 22 19 18 15 14 23 31 39 36 46 52 55
25 24 24 22 22 19 18 18 18 19 19 19 19 18 21 26 31 29 26 51 76 66 54 35 36 50 42 36 30 25 26 27 26 24 24 25 24 24 21 19 17 16 18 31 39 40 46 55 64
22 23 25 26 25 21 20 18 21 19 20 20 17 17 16 20 29 32 28 38 51 73 72 54 44 54 49 36 31 27 26 27 26 25 25 26 25 25 24 21 20 18 18 22 37 48 55 64 70
22 19 15 11 12 16 16 18 23 21 21 23 25 27 23 25 26 29 30 28 54 71 90 95 74 65 62 45 38 33 30 30 30 31 28 27 27 27 26 23 24 22 21 22 34 50 60 67 77
24 24 24 23 21 20 18 19 25 20 19 20 22 22 25 25 25 25 26 28 29 34 53 59 57 83 62 75 77 65 52 37 36 40 39 34 29 29 28 25 28 28 26 21 25 45 61 70 82
22 21 22 21 20 21 26 32 28 30 26 27 29 27 24 24 25 23 22 22 24 27 28 32 38 48 71 89 80 56 72 61 45 36 38 42 38 31 31 28 32 33 32 24 26 31 56 69 85
30 34 35 32 31 35 40 42 30 24 27 30 26 25 27 23 23 21 21 22 22 21 21 23 25 27 32 60 82 81 60 42 43 52 36 34 44 42 34 31 36 38 37 28 15 28 39 69 88
36 39 37 34 28 29 29 32 27 29 33 32 30 27 25 22 20 20 21 22 24 25 25 26 24 20 21 28 32 54 74 43 48 46 38 39 36 52 40 35 39 39 42 36 14 14 23 64 83
37 38 37 36 29 28 25 22 26 29 30 28 25 21 14 12 12 13 14 14 14 16 24 27 30 30 28 23 24 28 37 53 48 47 39 41 59 52 46 38 41 43 43 43 25 10 14 38 95
40 41 42 33 23 20 27 36 33 28 26 19 13 10 10 11 14 15 15 14 14 19 19 23 27 32 32 30 29 23 28 37 38 42 39 42 62 66 47 43 42 48 43 50 36 15 12 21 85
39 35 28 21 31 46 40 40 30 21 16 15 16 20 19 20 24 27 30 31 30 29 29 28 23 28 30 31 31 30 25 26 33 41 41 40 50 58 55 50 44 51 50 53 45 28 16 18 62
36 40 36 42 46 44 42 35 23 18 18 19 26 22 29 39 39 36 38 36 35 36 41 29 24 23 27 25 26 28 30 26 35 46 38 35 60 77 79 59 52 48 51 54 49 39 20 20 32
51 43 47 49 47 45 44 36 35 23 23 28 30 35 40 41 35 38 35 44 50 44 43 30 23 22 22 25 25 26 32 28 27 43 38 38 47 59 76 81 72 57 55 56 52 48 20 23 32
47 47 46 43 42 47 50 47 40 31 28 35 30 42 40 40 33 42 41 46 56 60 52 40 26 20 19 22 24 27 32 33 31 29 38 40 46 50 50 56 98 74 61 60 52 44 20 31 46
38 47 45 42 48 53 46 42 39 33 37 37 39 40 45 39 38 52 55 60 64 74 81 56 36 28 25 21 24 26 32 34 30 28 34 37 45 57 59 66 70 60 67 60 55 40 24 56 67
47 45 40 48 57 41 36 48 36 31 43 42 48 52 48 44 61 59 67 78 97 97 88 64 50 32 25 24 26 27 28 35 31 30 30 31 39 61 69 66 78 62 63 60 59 30 29 72 72
36 36 37 46 49 44 52 50 47 47 47 51 55 61 48 62 58 67 73 80 92 97 80 63 53 35 36 32 29 31 36 37 32 32 37 34 47 71 74 80 79 66 61 61 56 26 57 56 80
57 57 48 50 55 50 42 44 48 56 65 67 69 58 60 62 52 70 73 71 89 98 82 66 52 36 34 37 37 40 43 45 40 33 35 50 61 65 71 80 81 66 65 56 49 26 40 60 88
55 58 67 64 55 45 46 56 58 65 81 76 65 68 60 45 40 63 67 68 85 98 99 69 57 49 41 42 46 51 55 54 52 50 54 58 71 86 98 86 79 66 60 56 37 24 46 52 59
38 44 56 66 86 69 56 60 89 79 74 68 63 58 53 43 39 65 63 64 71 88 98 81 63 60 56 56 59 63 60 61 55 49 52 54 65 81 95 93 75 64 60 58 25 23 39 54 68
20 23 28 42 72 98 97 74 98 85 75 66 56 52 53 54 59 56 64 68 76 80 100 91 63 66 73 72 70 76 69 90 74 67 62 51 61 68 99 90 74 66 64 50 21 30 41 57 67

GFSSGP_700_rhum_102.txt.gz
RH
17 16 15 15 20 17 14 12 12 14 14 10 11 11 19 19 20 18 18 17 18 18 20 25 24 16 14 16 23 23 17 17 16 17 17 20 25 26 25 22 18 17 19 26 34 44 48 44 41
24 21 17 18 19 15 12 13 13 14 12 10 11 14 18 24 17 16 15 17 19 25 22 24 26 19 14 13 20 24 19 18 17 17 15 15 20 24 26 23 21 19 20 24 32 43 45 47 44
26 24 21 26 21 17 14 16 16 14 12 12 14 12 17 21 17 17 16 17 20 26 25 27 29 19 16 13 18 24 21 18 19 18 15 14 15 19 24 23 23 24 23 25 33 41 48 50 49
28 25 23 24 21 20 18 20 16 15 15 14 14 19 15 14 15 15 18 17 24 28 25 24 29 20 15 13 18 23 20 19 19 21 18 16 16 17 20 24 26 26 25 30 32 41 51 53 54
29 26 27 26 23 22 22 21 20 19 18 16 17 21 18 22 18 17 17 17 26 26 26 21 21 17 15 16 19 20 20 20 20 21 20 18 16 16 17 19 22 26 28 32 35 44 51 58 59
30 29 28 24 22 23 23 21 21 21 22 23 22 25 23 19 18 19 18 18 27 27 26 22 21 20 18 19 20 20 20 25 22 21 20 19 16 16 16 15 18 22 28 29 35 44 49 64 66
30 35 28 26 24 26 26 21 21 22 23 29 36 22 31 32 17 18 18 18 20 30 28 28 28 25 20 22 20 20 21 25 25 23 20 20 17 16 17 16 15 19 25 31 29 41 48 68 71
30 34 28 29 26 25 27 22 21 21 28 27 23 31 36 27 20 21 20 18 18 28 26 35 36 32 26 22 21 22 25 27 26 23 21 20 19 17 18 16 14 14 17 24 28 34 50 58 66
30 31 27 25 26 27 28 23 32 22 20 31 23 25 24 21 20 23 23 18 17 21 24 38 44 43 37 26 21 31 30 29 26 22 22 21 20 19 19 18 16 14 14 22 30 30 35 47 57
29 32 28 26 29 29 28 25 27 29 26 31 21 24 21 20 20 20 25 22 20 20 29 47 56 56 58 27 27 33 30 28 25 24 24 22 21 21 21 20 19 18 15 14 20 30 32 48 57
30 33 33 34 26 27 27 26 26 28 31 22 24 19 19 19 21 22 25 26 26 31 52 65 77 74 52 28 30 33 31 29 25 24 24 23 22 24 24 23 22 20 18 16 18 25 33 42 53
29 24 24 26 24 24 30 31 23 29 21 21 20 20 20 18 18 23 25 30 33 61 67 68 80 83 44 37 37 37 31 28 24 24 26 25 24 25 26 25 24 22 20 18 17 19 25 40 54
24 24 23 22 20 20 17 18 17 26 18 20 24 22 22 23 22 23 26 32 30 47 78 70 73 68 45 42 40 40 36 30 26 25 25 25 25 26 27 27 27 24 24 22 20 20 25 37 53
31 31 29 31 27 24 23 27 33 22 20 21 21 20 22 22 23 24 25 26 31 30 55 70 68 64 46 41 48 47 38 35 30 28 28 28 29 28 28 29 29 27 28 27 24 21 22 34 47
33 34 36 38 31 32 30 35 34 24 23 23 27 32 32 29 26 24 24 23 24 29 29 37 64 72 73 72 62 55 48 42 42 36 33 35 36 37 34 30 31 29 31 32 31 26 22 31 39
35 41 36 35 36 37 34 30 36 34 27 30 33 36 31 28 25 25 24 23 21 20 23 28 28 37 59 74 75 78 68 71 76 60 50 41 46 42 40 41 36 33 33 35 35 31 19 21 32
41 35 33 34 41 39 38 32 34 33 28 32 34 35 34 26 25 22 18 17 19 21 22 20 20 22 27 28 37 47 60 75 65 64 73 64 49 38 29 37 49 38 36 37 38 37 25 14 26
36 36 34 34 33 30 35 34 34 28 31 38 37 38 25 21 17 14 14 13 13 14 15 15 18 22 21 20 22 23 27 63 76 72 58 41 44 33 34 40 49 46 40 41 40 41 34 12 13
42 36 34 35 36 38 34 29 27 33 37 38 37 24 14 12 14 17 18 16 14 12 12 15 16 16 21 27 25 20 19 22 36 62 67 37 33 36 39 60 80 57 41 45 46 48 43 20 11
45 40 36 34 33 30 31 33 35 36 35 35 37 21 22 22 23 25 28 29 31 29 19 14 17 24 27 22 29 30 29 25 22 25 41 59 43 41 42 54 87 67 44 46 50 52 50 37 16
46 38 34 29 36 44 42 36 32 34 32 19 19 22 27 38 38 31 24 20 21 26 30 26 28 25 26 29 25 29 29 29 29 25 24 42 48 44 38 50 87 71 51 47 51 52 56 49 33
40 37 35 39 44 32 40 22 29 30 42 24 28 32 43 43 31 27 24 22 24 25 29 41 37 33 35 36 27 25 27 28 30 30 29 25 48 44 42 55 61 86 58 53 52 52 57 58 42
42 44 50 45 47 42 37 35 21 32 40 58 68 41 45 32 30 32 31 28 46 38 40 44 50 47 40 38 25 24 25 26 25 27 31 29 32 43 39 44 58 99 84 64 54 59 58 63 56
54 56 54 53 46 42 33 31 21 32 36 56 82 45 42 37 36 36 37 43 52 62 61 53 60 58 61 43 25 24 22 23 25 27 33 31 25 36 44 58 54 60 48 53 69 62 67 69 64
80 52 51 52 48 36 28 28 22 36 59 73 73 49 46 39 42 35 39 51 51 60 60 61 66 54 54 41 25 28 20 22 23 27 31 37 30 39 44 48 45 48 61 60 54 50 64 69 64
64 47 50 52 35 26 42 31 46 64 51 48 50 54 54 46 46 39 28 47 51 55 62 72 69 51 52 48 36 29 23 21 23 27 34 36 33 31 40 50 57 59 78 83 51 62 68 73 59
50 49 39 39 40 36 29 40 89 97 58 59 60 65 62 58 46 32 27 37 47 50 63 76 72 67 54 41 36 33 29 24 27 29 42 40 31 31 40 59 63 67 69 60 64 72 71 72 44
61 50 55 50 46 40 24 26 33 99 95 85 79 64 57 48 38 34 34 43 46 42 55 75 89 59 61 44 45 41 39 34 34 45 50 48 35 33 38 56 77 75 100 99 100 78 73 73 42
48 56 63 65 57 44 38 35 61 94 72 68 64 60 56 49 42 37 38 47 48 54 69 81 79 73 65 53 57 51 48 46 48 53 55 55 48 41 45 85 87 97 99 97 95 68 71 53 40
42 58 55 44 39 52 65 45 69 63 69 78 72 61 52 51 47 39 22 39 43 59 73 69 86 72 79 69 68 67 61 54 62 63 64 58 58 53 54 75 91 97 78 93 79 75 69 32 42

GFSSGP_700_rhum_105.txt.gz
RH
22 19 16 16 26 19 13 11 10 12 13 16 11 10 16 17 16 19 32 26 15 14 14 19 22 22 15 15 19 21 19 18 17 17 18 15 16 16 18 19 18 15 17 22 31 41 48 47 42
26 25 22 29 23 15 12 11 12 12 14 14 11 10 16 18 19 20 26 19 18 18 19 21 25 26 16 14 16 21 20 18 17 17 17 17 22 24 25 23 21 20 19 23 30 39 47 48 46
26 26 31 26 22 16 12 14 14 14 14 18 18 20 21 23 27 12 11 14 16 17 20 21 27 28 18 15 15 19 20 18 18 18 17 15 17 19 22 25 26 28 24 24 27 36 46 50 48
29 27 30 27 20 17 16 16 18 17 19 19 18 20 22 20 13 13 14 16 17 17 23 17 27 30 20 16 15 18 20 19 19 19 19 18 17 18 20 23 26 27 27 25 30 30 45 48 50
31 33 30 24 21 20 18 20 21 20 19 20 21 22 22 27 25 14 12 13 17 20 24 20 26 29 22 16 16 18 20 19 19 20 21 21 19 18 18 19 19 23 33 32 33 30 40 45 51
36 33 28 22 19 18 18 22 25 23 23 23 23 25 24 28 33 22 13 13 18 25 27 20 22 25 22 16 17 20 20 20 21 21 21 21 20 20 18 18 18 21 28 33 30 30 39 42 51
32 31 28 26 22 20 20 23 28 25 24 25 24 30 31 32 36 26 16 13 17 21 24 23 20 20 19 16 18 21 22 20 23 25 22 22 20 19 17 17 17 18 23 29 35 32 30 39 50
32 32 29 26 23 21 21 23 28 27 25 27 31 32 29 31 37 27 19 17 16 18 29 27 23 22 22 21 20 21 21 21 22 25 26 22 20 19 17 17 18 16 20 24 25 30 28 36 50
36 31 28 26 23 22 22 25 26 26 33 32 35 35 36 31 26 21 22 26 41 18 19 28 28 26 30 24 22 22 21 21 24 27 26 23 22 21 19 18 19 16 22 21 26 36 33 29 35
41 35 30 26 25 23 23 25 26 28 29 32 29 33 36 35 27 23 20 30 34 34 18 31 26 31 35 27 25 25 22 23 28 28 26 23 22 22 20 20 22 21 19 18 18 23 27 31 32
39 38 33 28 28 30 28 25 24 25 27 28 30 31 35 34 35 31 21 30 37 35 38 20 44 33 50 35 33 31 26 26 30 29 26 23 23 23 21 22 23 24 22 20 19 18 19 25 31
41 37 31 30 30 29 30 31 29 28 27 27 28 29 29 32 34 35 28 31 32 38 56 51 41 44 56 61 52 49 39 28 30 30 28 24 24 24 23 24 26 25 25 22 20 19 17 25 29
36 34 33 27 27 28 26 25 24 24 25 26 28 30 32 32 33 34 31 33 35 32 34 59 72 73 71 81 77 63 45 36 31 31 29 25 23 25 24 26 27 26 27 26 24 23 22 23 30
34 30 31 32 29 30 29 28 28 29 28 28 28 29 32 32 33 34 35 36 34 26 29 30 67 78 84 85 87 69 46 45 37 36 31 27 25 25 26 26 27 30 29 28 27 28 30 23 29
43 38 36 33 34 35 34 32 32 30 28 30 29 34 32 31 35 35 39 25 26 23 29 30 33 56 73 78 74 60 46 43 41 40 34 30 28 27 27 28 29 31 34 31 29 30 30 32 35
48 45 40 39 34 33 35 32 29 28 29 31 30 30 32 34 37 45 33 22 21 21 23 26 30 29 38 55 72 74 59 48 47 45 36 34 30 31 32 33 35 37 41 35 32 33 33 32 27
56 48 40 36 34 33 33 33 31 30 32 30 28 30 32 34 42 75 25 23 21 21 21 20 22 27 28 29 38 59 72 78 73 64 47 42 37 35 35 38 40 41 44 43 37 36 36 35 33
56 51 42 38 33 34 33 36 31 29 30 28 30 30 32 36 52 78 41 17 15 13 13 14 16 17 20 24 26 27 32 49 60 70 77 68 58 62 51 41 44 34 40 49 47 38 39 38 38
55 55 53 35 31 34 33 31 28 29 28 25 29 34 35 45 70 81 33 14 13 12 10 8 8 8 9 10 14 19 22 23 28 34 46 59 71 67 75 58 48 30 34 42 61 41 41 43 41
69 53 53 52 41 34 33 30 26 24 24 28 30 32 44 68 72 78 26 25 21 19 15 13 10 8 9 6 6 8 9 14 21 28 23 24 42 60 75 64 52 35 36 50 85 46 42 44 47
92 78 54 66 65 41 32 28 28 28 29 30 32 38 66 75 83 38 32 26 20 17 14 12 13 17 21 22 15 12 18 21 27 30 24 21 24 28 68 62 66 34 40 48 90 58 43 46 49
97 81 62 73 52 36 31 31 27 26 30 33 46 68 71 88 40 28 19 20 22 19 16 19 22 27 33 37 29 28 31 29 27 28 81 24 26 38 24 56 77 39 40 48 81 74 46 48 50
95 82 85 79 49 37 37 34 27 26 29 41 55 66 88 64 32 28 32 24 28 29 31 34 35 35 39 42 43 44 41 34 33 31 62 39 28 29 29 25 45 72 45 48 71 90 56 48 51
93 95 79 68 52 49 56 40 29 29 27 39 60 84 97 42 36 34 37 28 23 36 40 38 38 47 46 51 57 54 49 39 32 28 35 40 32 31 30 30 26 41 60 56 49 65 79 63 55
96 97 85 80 73 62 36 36 38 35 29 42 84 94 83 50 44 45 39 27 21 24 32 37 38 50 54 66 54 54 49 44 36 25 27 55 40 29 29 37 30 39 64 52 49 46 99 86 66
92 94 69 75 66 51 41 42 68 69 71 92 94 53 62 60 52 49 40 30 21 31 42 40 42 52 58 74 63 42 41 25 21 25 25 40 46 26 28 39 32 46 65 59 73 66 61 72 68
96 87 60 58 55 46 64 67 78 78 58 53 78 93 78 63 54 45 39 32 25 25 48 37 37 51 75 69 64 50 42 42 36 34 23 37 38 33 34 41 34 45 67 71 71 55 72 85 81
63 68 54 64 68 46 36 44 55 100 93 91 94 86 67 56 51 48 46 41 34 10 37 43 49 55 68 64 61 46 43 40 38 48 32 36 38 42 39 51 35 41 64 67 57 66 88 98 74
50 89 74 89 65 54 48 60 99 98 95 90 97 71 62 60 57 54 51 43 17 6 31 40 50 55 63 71 72 56 51 50 65 73 64 46 58 53 63 47 48 48 64 72 61 82 100 78 70
54 45 69 86 56 82 49 60 99 94 94 83 63 62 62 52 32 24 15 6 7 31 46 50 44 52 56 71 71 72 64 57 56 60 54 53 50 62 64 47 42 40 56 76 72 79 98 91 84

GFSSGP_700_rhum_108.txt.gz
RH
25 23 21 18 30 28 19 13 11 11 11 13 12 11 14 14 16 28 42 25 32 23 12 13 15 20 17 14 18 23 22 19 19 22 22 14 13 16 20 24 23 18 17 21 27 34 45 47 43
24 24 24 25 31 23 15 12 11 12 14 13 12 12 11 13 15 22 31 24 23 18 14 15 17 21 21 15 16 20 20 18 18 20 20 18 15 17 19 20 21 22 18 19 22 28 39 46 46
27 26 25 33 26 23 17 14 14 14 13 12 13 18 19 23 23 19 11 12 17 19 16 17 20 22 24 16 15 17 20 18 18 18 18 18 16 17 18 18 18 20 22 22 24 27 36 43 47
30 28 27 28 25 20 18 17 16 16 16 16 16 18 19 20 22 20 14 12 12 16 16 15 17 22 26 18 15 16 19 19 19 19 20 21 17 18 19 19 17 17 20 22 26 29 33 45 44
33 33 33 28 24 22 20 18 18 19 18 18 19 19 21 22 24 22 16 12 11 16 18 18 19 19 28 22 16 16 18 20 19 19 20 22 21 18 18 19 18 17 25 30 26 27 31 41 44
41 36 32 27 23 20 18 18 20 21 22 22 21 21 22 24 28 33 24 16 12 14 18 20 20 25 29 27 18 17 18 21 20 20 20 21 22 20 19 18 18 17 18 28 31 29 30 35 37
35 36 31 27 25 23 22 20 21 23 24 23 22 23 23 28 31 32 30 22 16 13 18 24 23 24 33 31 20 18 18 21 22 21 22 22 23 21 20 17 18 18 17 21 25 29 35 35 35
38 36 33 30 27 24 22 20 21 23 25 24 24 28 26 31 33 32 32 27 19 15 16 24 26 26 22 27 22 19 19 21 23 22 25 26 25 22 20 19 17 18 17 19 20 22 26 32 32
39 35 33 29 26 24 22 21 22 23 24 27 29 30 28 30 36 33 31 26 25 26 15 18 27 26 24 21 21 20 21 21 22 22 25 26 27 23 22 21 19 19 18 20 22 22 25 33 30
40 36 36 33 28 26 24 23 22 24 26 28 30 30 30 32 31 27 26 23 36 42 26 16 18 29 27 25 24 23 25 24 23 22 23 26 27 24 22 22 20 20 22 21 20 18 18 22 25
39 39 39 37 34 31 29 27 26 25 23 23 26 28 29 32 36 33 30 27 36 40 68 20 18 22 30 33 29 29 28 28 26 23 24 27 27 25 23 23 22 22 23 24 23 20 19 18 18
42 38 38 37 36 31 29 28 28 30 27 26 27 27 27 30 29 31 28 28 34 38 48 71 20 20 38 36 36 36 37 39 34 28 26 28 28 27 23 23 23 23 25 25 25 23 20 19 17
47 42 38 36 34 32 28 27 28 27 26 25 24 26 27 29 31 32 34 31 33 37 40 61 64 46 26 51 55 52 44 44 43 38 33 29 30 29 24 23 24 24 26 26 27 26 24 23 23
50 46 42 38 30 30 31 30 29 29 26 25 25 26 27 28 29 33 33 33 34 38 39 37 35 40 45 38 68 60 60 60 57 52 40 31 31 30 27 24 25 25 25 27 28 28 27 26 29
52 48 44 43 42 38 34 34 32 35 33 30 28 28 28 30 32 32 34 36 39 39 37 33 24 32 37 52 74 79 75 77 75 67 47 40 35 32 30 26 25 26 26 28 30 30 30 30 31
58 57 56 49 44 39 36 35 34 32 30 30 28 29 30 33 31 35 37 37 37 48 34 22 22 21 30 30 44 70 82 82 80 78 49 38 38 39 34 29 27 27 28 30 32 34 32 31 31
60 60 57 53 48 41 36 35 34 32 31 28 28 30 30 31 34 36 45 42 38 29 22 20 20 22 22 28 29 30 42 57 73 69 57 45 39 42 38 33 29 31 32 35 37 38 36 34 34
50 47 46 48 49 44 38 36 32 32 29 30 30 28 29 30 34 45 72 68 33 22 20 18 17 18 19 20 23 26 27 28 31 47 68 72 58 45 44 38 35 32 31 39 41 40 41 41 36
51 50 52 50 48 52 52 60 35 32 32 29 30 29 28 30 37 62 80 70 37 15 13 12 11 10 9 10 12 17 20 22 25 26 26 32 50 68 66 55 44 41 35 37 38 45 45 41 42
62 67 68 72 62 55 54 63 57 33 30 29 29 25 30 33 49 72 92 53 22 21 14 13 11 10 10 8 6 4 4 5 11 17 22 25 24 40 60 68 73 79 76 50 44 42 33 39 46
57 58 70 73 71 68 68 76 50 40 31 27 27 25 31 39 63 83 85 54 33 23 18 14 11 9 8 7 8 7 9 10 7 5 7 10 15 20 24 29 61 68 78 98 80 64 39 44 52
62 67 72 80 86 92 81 85 54 43 33 27 26 28 44 62 81 91 72 33 27 21 19 18 18 16 13 16 20 20 20 24 25 20 18 16 23 27 16 20 28 35 54 82 83 96 57 51 57
76 93 98 98 98 95 76 80 58 41 41 40 34 47 67 84 87 66 41 34 28 21 18 19 22 23 22 20 22 22 26 28 31 34 36 33 29 49 30 18 22 29 45 49 62 59 71 66 50
94 96 90 98 98 96 71 68 71 63 46 39 43 67 93 96 61 54 34 35 30 19 14 13 13 20 26 30 33 34 36 38 37 38 43 44 35 39 99 50 29 30 30 31 35 62 60 70 59
97 90 94 94 94 69 51 66 79 70 70 39 72 99 99 58 32 49 40 37 33 27 23 13 19 30 34 36 42 48 55 54 34 29 34 43 37 55 65 81 40 35 31 35 34 47 99 92 81
88 78 80 90 85 57 60 94 92 96 82 78 85 99 100 34 37 49 46 41 37 34 31 26 10 39 39 37 49 67 68 56 35 37 32 29 38 48 53 89 56 35 31 30 48 43 96 79 83
94 97 52 82 87 96 82 80 78 99 96 99 98 98 97 44 54 55 49 42 40 41 38 32 4 33 42 43 47 65 67 55 45 40 43 36 24 25 48 47 54 35 29 32 50 50 80 82 66
69 81 98 98 88 87 48 65 91 98 87 99 98 98 90 75 57 54 51 47 46 45 36 7 4 20 39 42 47 53 67 58 50 50 46 38 45 34 29 48 60 40 40 41 45 55 57 53 68
61 57 97 97 69 78 60 96 99 99 99 98 95 69 56 62 63 60 57 52 42 37 7 4 18 36 41 40 49 46 64 69 56 63 65 66 57 50 40 56 59 45 43 41 43 51 82 94 88
54 60 89 98 94 97 93 83 96 94 89 85 55 55 54 56 57 43 33 21 10 6 6 21 56 53 42 41 46 45 50 66 69 70 69 74 69 85 67 61 68 65 65 58 54 48 58 61 61

GFSSGP_700_rhum_114.txt.gz
RH
25 26 25 23 19 18 18 16 18 14 17 12 11 10 9 8 8 10 11 14 18 31 31 20 15 16 21 12 18 26 28 26 26 29 27 22 18 14 11 11 11 10 10 13 20 30 36 39 42
25 25 26 25 24 23 18 20 17 16 13 12 12 10 11 10 10 9 9 15 21 27 33 28 15 15 20 14 14 21 25 27 26 28 29 26 18 16 14 13 13 12 12 12 15 20 28 37 44
28 27 27 27 25 21 21 21 22 22 15 15 13 12 13 13 14 13 10 12 14 20 24 24 18 17 22 17 13 16 21 23 21 24 27 25 21 17 16 16 15 14 14 14 15 19 24 34 42
30 30 29 27 22 20 21 23 24 25 20 18 17 17 17 16 15 17 17 19 15 15 13 16 18 18 20 20 16 14 16 21 20 20 22 23 23 18 17 17 16 15 14 15 17 20 23 28 36
34 33 32 29 23 20 22 27 28 25 19 18 18 18 18 17 17 16 16 17 17 17 15 11 18 21 21 24 22 15 15 18 20 19 18 20 23 22 18 17 18 16 15 18 23 24 24 25 35
39 36 33 30 24 22 20 26 29 24 22 20 20 20 19 20 20 19 17 18 18 19 17 13 12 17 24 26 26 21 16 17 19 20 19 19 21 24 22 19 18 18 18 17 19 26 27 27 26
45 40 34 32 30 23 20 28 28 26 24 23 23 22 22 22 22 21 20 19 20 19 21 20 15 14 18 24 29 28 20 17 18 20 20 20 20 22 24 23 21 19 19 20 18 19 22 23 28
52 44 40 37 32 27 25 29 30 29 25 25 24 24 24 23 24 25 22 22 23 22 22 20 19 12 16 24 31 33 26 20 19 20 21 21 21 21 22 25 23 21 20 20 21 20 21 22 22
50 47 43 39 35 32 30 31 31 34 30 26 27 25 24 24 26 26 26 25 26 31 29 26 21 18 14 19 27 31 36 26 22 23 22 22 22 22 24 26 25 22 22 22 21 22 22 22 20
53 48 43 42 41 38 33 30 28 34 32 28 27 27 29 28 25 25 26 28 27 31 31 28 25 21 18 15 24 30 32 38 28 25 25 23 24 23 26 26 26 22 22 22 22 23 24 24 20
42 45 48 48 48 44 39 34 34 32 33 34 30 27 25 27 30 28 28 25 25 28 28 25 36 27 18 18 18 29 33 38 38 31 29 27 27 26 24 26 26 23 21 21 23 23 24 25 23
32 32 44 49 51 46 43 41 34 35 36 32 32 30 28 27 28 28 28 28 28 29 29 26 24 42 22 20 19 21 34 41 36 34 32 33 30 28 27 24 27 27 24 21 22 24 25 26 26
18 16 26 37 48 50 47 42 42 38 32 33 32 32 30 29 28 27 26 27 28 28 28 34 29 47 38 22 27 25 25 35 40 40 37 36 37 34 35 31 28 28 27 24 21 23 25 26 25
18 14 14 22 36 36 34 22 41 33 30 24 28 30 32 33 31 28 24 24 24 26 29 32 34 30 31 31 44 50 56 43 43 41 44 40 40 39 39 40 35 31 30 28 24 23 24 26 27
18 15 17 24 21 33 31 10 21 22 29 30 33 33 36 32 34 28 25 25 26 26 27 33 34 34 32 32 31 41 72 59 48 42 52 57 56 49 46 42 39 37 32 33 28 24 25 25 26
19 17 13 29 24 21 38 10 34 42 52 52 51 46 39 40 32 30 28 28 27 28 29 31 34 35 35 34 31 29 33 58 69 66 69 61 53 56 66 63 65 67 47 37 34 29 25 26 26
38 20 14 38 39 50 54 32 44 50 49 51 53 51 46 40 38 33 31 28 29 29 33 33 33 33 35 39 38 34 30 36 40 65 68 70 74 74 70 77 84 91 74 55 40 36 31 27 28
21 34 35 48 51 56 55 43 27 33 35 34 41 49 48 44 39 34 32 29 30 32 33 34 34 33 33 34 34 25 27 30 29 29 34 59 78 80 77 74 77 89 90 80 73 45 39 34 31
45 50 50 50 54 52 52 48 37 32 45 34 24 31 38 49 44 39 32 30 31 32 33 34 34 35 35 23 22 20 22 24 25 25 25 28 30 32 51 72 74 70 77 81 72 71 70 65 40
61 63 58 50 51 56 57 52 43 26 31 26 21 26 50 76 55 41 35 32 33 33 35 37 37 37 40 19 14 12 11 11 13 16 19 21 22 24 25 27 29 35 51 69 74 79 80 74 82
65 62 57 54 54 58 64 59 32 31 25 26 28 32 66 77 84 54 43 35 34 40 49 52 40 43 36 14 12 10 8 7 7 7 7 7 8 11 14 16 18 21 24 25 31 55 73 81 90
68 65 63 61 64 72 82 80 19 37 29 40 45 50 55 93 97 80 64 40 56 75 70 60 48 29 17 17 17 17 16 13 12 8 6 5 6 5 4 4 4 3 3 6 14 45 53 59 65
70 67 65 67 68 68 68 86 40 42 40 55 66 71 80 81 94 92 62 50 80 71 59 35 25 21 18 15 12 11 11 11 11 10 8 6 7 9 10 10 12 13 14 12 7 5 39 53 53
70 72 73 73 77 95 61 67 58 58 71 82 94 98 94 88 94 91 72 83 71 60 45 30 35 32 18 19 17 14 14 6 7 7 8 10 10 13 17 16 18 20 26 28 26 21 19 45 57
86 88 87 83 90 87 62 71 64 97 81 76 87 82 98 99 99 99 90 79 50 40 53 48 60 30 23 19 16 16 14 13 6 5 6 11 20 29 32 30 30 28 32 37 38 39 46 38 54
79 79 81 90 93 89 71 71 97 100 98 97 99 99 84 97 99 99 96 59 59 71 59 39 34 25 16 9 6 4 3 4 4 5 6 14 18 27 31 28 23 21 22 20 27 44 61 57 63
92 86 80 93 86 89 64 78 100 97 94 96 97 97 98 96 98 98 96 95 79 49 45 45 36 25 12 4 2 2 1 2 2 11 13 17 21 28 39 40 36 33 26 22 27 35 57 60 61
84 81 95 93 96 96 69 97 96 94 96 94 96 95 95 98 97 97 98 88 57 45 45 35 23 11 6 3 2 2 1 3 9 14 19 21 23 30 41 47 43 36 26 25 25 36 49 70 84
83 95 88 88 88 97 95 97 96 96 94 98 99 94 96 95 80 60 49 43 36 14 5 4 4 5 3 2 3 3 4 15 26 25 23 22 29 30 41 54 50 49 44 43 44 45 45 85 96
76 72 74 90 89 100 93 96 99 89 100 96 85 82 63 54 54 35 26 16 9 6 6 6 9 10 8 8 11 26 32 28 28 29 30 29 36 40 44 63 65 61 66 68 59 56 66 83 96

GFSSGP_700_rhum_117.txt.gz
RH
23 24 23 22 19 18 17 18 18 16 16 15 13 11 10 10 11 11 11 14 25 33 34 31 18 19 22 12 17 24 24 24 24 26 26 25 18 16 13 10 10 10 10 13 17 22 28 35 35
25 25 24 23 21 24 19 19 23 21 16 14 13 12 11 11 12 14 13 15 21 29 36 33 22 18 20 18 13 20 25 26 26 25 28 28 24 17 16 14 12 12 11 12 13 17 24 32 36
28 28 26 25 22 20 20 21 25 23 20 17 15 16 14 14 17 17 15 13 15 19 24 27 30 21 19 21 15 14 21 24 26 26 27 28 26 22 17 16 16 14 14 14 14 15 18 26 34
30 30 29 25 22 21 22 24 26 25 23 21 19 18 17 18 18 18 19 16 15 17 18 17 15 18 20 25 22 14 16 20 22 22 25 27 26 24 19 17 17 16 15 15 17 17 19 22 29
35 33 30 27 22 22 25 28 30 26 23 19 18 19 19 19 19 20 20 19 18 17 18 18 16 15 23 26 26 18 14 17 20 20 21 23 25 24 24 19 18 18 17 16 20 24 23 22 24
40 36 34 31 26 25 29 31 30 26 24 21 20 20 20 21 21 22 22 21 21 20 20 20 19 14 18 30 28 25 19 16 18 20 20 20 20 22 24 22 19 18 18 18 18 20 25 26 26
48 43 39 37 32 28 30 31 32 26 26 26 27 26 24 23 23 23 23 22 22 22 22 22 23 20 15 17 30 32 27 21 18 19 20 19 20 20 23 24 23 20 19 19 20 19 19 22 23
49 50 46 41 37 33 33 34 33 29 25 25 28 28 30 27 25 25 26 26 25 26 25 24 23 25 21 15 17 27 35 29 22 20 20 21 20 20 20 23 24 24 22 20 19 20 21 21 22
49 46 45 43 41 39 38 36 32 30 30 29 28 30 30 30 35 32 30 28 27 27 28 27 26 26 25 23 16 19 32 39 29 23 22 23 22 22 21 21 23 25 23 22 21 20 20 22 22
44 44 46 44 46 44 37 37 34 29 29 31 27 28 29 31 30 28 27 25 24 24 24 26 26 28 24 21 24 19 23 41 40 29 28 26 24 23 24 22 24 26 25 22 22 21 21 23 24
17 15 26 29 35 36 36 36 40 36 29 27 30 29 28 27 27 29 31 29 26 26 26 26 26 26 22 23 21 21 21 28 46 41 36 36 31 28 26 25 24 26 26 23 21 22 22 23 24
20 21 20 15 16 15 15 17 18 31 35 33 35 36 33 31 31 28 29 28 28 28 28 28 27 27 24 23 30 20 24 23 44 51 45 43 41 37 32 28 27 27 28 28 23 22 23 23 24
14 10 10 11 7 7 10 12 17 11 10 24 34 38 38 36 35 33 32 30 28 26 26 26 28 28 27 26 42 42 27 27 35 56 55 52 50 46 42 36 37 34 29 29 29 24 23 23 24
7 11 8 8 6 8 5 6 9 5 9 13 20 26 35 37 36 35 34 36 31 26 26 25 25 26 25 25 22 29 26 37 37 55 60 56 54 52 52 49 46 45 44 40 32 31 24 23 24
9 10 13 8 9 9 9 6 9 16 17 20 17 18 26 28 37 37 35 34 35 30 26 25 27 27 28 26 26 27 26 41 70 53 56 64 63 61 57 62 55 51 53 50 52 40 34 25 24
13 18 17 16 13 16 17 14 16 17 15 19 33 48 38 27 36 34 37 36 35 35 30 28 26 28 28 29 30 31 31 31 32 64 76 64 64 57 55 55 48 51 57 76 72 68 47 35 26
22 28 24 29 25 20 23 11 21 32 28 21 15 13 18 31 35 31 37 42 38 36 32 30 30 28 30 31 34 34 34 32 31 34 49 77 76 72 70 72 64 66 69 72 64 80 58 51 39
17 27 42 52 34 41 40 15 22 36 33 27 20 21 19 15 29 46 48 48 45 40 35 31 30 29 31 34 35 35 36 35 35 30 27 41 55 78 80 79 78 79 84 95 98 96 81 76 82
38 39 50 52 45 49 39 30 22 42 33 25 18 25 29 19 14 26 30 46 47 48 44 37 32 32 34 34 35 34 36 28 29 24 23 27 30 31 42 70 79 86 82 88 96 95 92 97 100
42 50 52 64 59 63 57 39 26 40 35 25 26 31 36 38 35 30 57 52 72 62 58 47 37 35 35 34 34 36 37 23 18 19 20 21 22 23 24 27 31 38 50 61 67 75 78 83 83
47 63 65 70 69 66 63 42 21 35 43 37 36 38 51 53 64 59 80 66 85 91 78 63 49 42 37 35 37 39 35 14 12 11 11 11 11 12 14 17 20 22 24 26 28 30 35 47 64
73 68 73 71 68 72 78 74 41 54 51 50 58 60 56 57 86 91 100 99 93 98 80 68 54 47 42 43 40 39 31 13 14 12 11 11 10 8 6 5 5 5 8 11 14 18 22 24 30
72 73 74 72 72 74 75 79 40 58 62 67 92 91 85 83 100 100 99 94 100 82 98 85 71 61 51 41 36 30 17 14 11 9 9 10 13 14 10 7 5 6 5 4 3 4 5 7 10
76 78 80 82 80 89 63 69 67 99 99 83 100 100 95 85 100 99 100 100 100 98 83 85 52 51 30 40 48 48 22 14 15 12 8 6 5 8 13 12 11 9 8 10 9 12 16 16 22
87 81 97 93 98 89 77 74 95 100 87 70 99 100 99 99 99 99 99 99 99 98 90 43 47 39 54 54 44 32 17 11 8 8 8 7 6 5 12 17 22 24 22 20 23 25 27 27 28
86 94 81 91 91 86 74 68 95 99 96 99 100 98 96 96 97 96 96 96 97 89 68 56 67 54 40 28 25 15 8 5 5 4 3 3 4 3 7 15 21 32 33 28 26 23 21 21 20
92 99 86 82 95 95 68 97 99 98 96 94 93 93 87 92 96 97 94 96 97 97 91 67 50 46 38 31 16 9 8 6 4 4 2 2 2 2 6 10 16 27 35 39 37 34 29 26 23
84 80 89 97 91 92 74 89 90 94 97 98 98 97 97 93 91 87 84 75 82 89 40 28 19 10 6 5 4 4 4 5 4 3 3 2 4 6 10 10 12 23 35 42 41 37 28 27 25
83 90 83 75 79 92 95 82 81 79 79 92 91 82 87 75 78 85 88 83 40 14 32 70 53 10 4 4 4 4 4 4 4 4 2 3 6 11 11 14 17 23 28 44 44 42 39 36 31
81 72 71 76 96 99 92 81 80 71 63 82 72 60 50 50 54 49 39 32 26 14 10 12 12 12 13 12 10 9 10 18 19 22 18 14 19 17 15 18 24 30 35 47 51 49 56 60 59

GFSSGP_700_rhum_120.txt.gz
RH
24 23 23 21 19 17 15 20 22 23 19 16 16 13 13 13 16 17 15 15 19 38 46 46 40 32 24 13 16 20 20 22 23 21 18 20 19 17 15 13 11 10 9 10 12 14 19 25 27
27 25 22 22 21 22 18 21 24 25 21 16 16 15 14 14 15 17 16 24 32 35 38 39 36 30 31 23 13 18 22 23 25 25 24 22 23 22 17 16 15 13 11 11 11 12 14 19 25
28 28 25 22 21 20 20 24 24 23 22 16 15 17 19 18 18 18 18 18 16 18 24 28 26 26 29 30 21 14 19 21 22 26 26 26 26 25 23 17 17 16 14 13 13 13 14 16 21
32 29 27 24 22 23 24 27 26 24 23 21 20 20 18 19 19 20 20 21 19 19 18 18 18 16 22 32 31 21 15 19 20 20 24 26 28 27 25 22 18 18 17 15 15 18 17 18 20
36 33 29 26 23 26 28 27 25 27 25 21 21 19 18 19 21 21 21 22 21 21 21 21 21 19 17 26 33 31 22 16 19 20 19 20 24 26 25 24 22 18 18 18 17 18 20 23 23
40 36 33 30 26 29 32 31 30 29 27 22 21 21 21 21 20 21 22 23 23 23 22 23 23 24 23 16 29 36 32 22 18 20 21 19 19 21 23 23 24 22 19 19 19 19 19 21 24
44 44 40 35 30 31 34 34 31 30 27 27 25 26 25 26 27 25 25 25 25 25 25 26 26 26 26 26 22 25 41 33 25 22 24 22 20 19 19 20 24 24 21 20 19 20 21 20 22
44 48 46 41 35 37 37 36 34 32 27 27 27 28 27 27 26 27 28 27 28 30 29 28 26 25 26 27 28 22 21 45 38 30 30 30 27 23 21 20 21 24 24 22 21 20 20 21 22
34 44 42 39 40 40 41 40 40 37 30 27 29 32 31 31 33 34 30 30 28 27 26 25 24 24 25 25 26 26 23 21 44 43 34 34 34 31 27 24 21 22 24 25 22 22 21 21 22
17 24 27 32 28 30 33 35 40 40 36 30 28 33 32 31 30 30 30 29 29 28 26 26 25 25 27 26 25 22 21 21 22 48 47 37 37 37 35 32 28 23 23 25 25 22 22 22 22
7 6 9 11 11 9 10 10 17 25 26 36 34 30 31 32 31 30 29 29 28 29 30 28 27 26 28 29 28 26 24 25 21 24 50 49 45 43 42 39 38 31 25 25 26 24 22 22 22
8 8 10 6 6 7 6 6 7 9 8 17 28 34 34 32 32 31 30 29 29 29 29 28 28 27 27 29 29 29 26 28 25 21 31 55 54 52 52 49 48 49 38 28 28 28 24 23 22
14 7 6 5 5 5 5 5 6 3 6 7 9 11 17 25 31 34 35 34 34 33 31 31 28 27 27 26 26 28 26 36 45 26 28 45 60 59 61 58 56 56 56 48 36 34 30 24 24
8 6 5 4 5 5 5 4 3 6 6 8 8 8 9 10 12 14 20 25 29 32 33 33 32 33 32 27 29 27 26 29 32 27 30 31 54 60 57 58 58 56 57 69 61 47 38 35 28
8 9 8 7 6 6 6 5 9 18 13 12 14 10 10 12 15 14 14 16 21 31 32 35 36 38 35 34 33 27 27 29 30 32 49 56 65 64 65 60 58 60 64 72 65 60 57 43 40
7 12 9 8 10 9 13 22 20 15 15 16 14 10 7 6 6 6 10 18 23 36 37 38 36 36 38 32 29 29 36 36 38 36 39 34 59 67 71 69 68 70 70 72 68 68 73 72 51
10 12 12 14 11 16 27 46 33 38 26 21 20 15 13 11 8 5 4 6 20 30 38 46 44 39 37 31 30 31 32 34 35 34 34 34 36 41 78 78 76 76 74 68 69 89 89 85 58
16 23 29 31 15 20 31 32 39 39 28 24 23 17 14 13 11 10 9 6 8 27 44 45 50 45 39 34 32 30 31 35 36 35 34 32 30 31 30 72 80 73 75 76 88 95 95 99 99
43 47 48 31 30 50 32 43 54 37 33 34 26 20 20 20 19 17 17 14 13 21 30 46 54 70 56 43 37 35 34 35 36 34 37 35 22 24 23 28 48 78 80 83 81 85 94 98 97
51 68 54 45 49 58 47 55 54 50 46 46 36 32 30 26 28 29 29 32 39 46 56 67 79 75 62 54 48 44 44 37 35 37 36 21 16 18 20 22 26 30 39 57 70 78 83 81 78
42 60 48 62 66 65 70 58 55 51 56 48 40 46 52 52 47 44 52 76 82 77 79 97 99 90 81 72 63 49 43 37 37 38 38 12 12 13 12 14 16 19 22 24 26 30 31 32 35
54 42 64 70 76 79 78 80 64 58 59 52 42 35 50 64 64 59 83 98 98 100 100 100 98 99 88 72 56 47 41 40 38 39 32 12 12 13 12 9 8 8 8 10 14 18 20 23 24
60 64 73 77 82 83 84 79 57 57 57 72 69 72 82 88 89 89 92 100 97 100 99 99 100 92 78 69 62 52 33 41 41 42 32 14 11 9 7 8 9 9 8 6 5 4 4 5 6
78 80 80 86 90 93 75 74 57 62 83 98 100 98 91 96 100 100 99 99 99 99 99 100 99 99 100 96 54 36 36 46 48 48 42 13 12 10 8 7 6 6 6 7 8 8 7 8 9
71 87 88 95 98 90 78 80 68 84 98 81 78 98 100 100 99 99 99 99 98 98 100 98 99 98 94 92 62 51 37 41 30 23 16 8 8 13 6 6 6 6 6 9 11 14 14 16 19
77 87 82 94 92 78 78 81 85 88 99 78 87 91 86 80 80 86 91 93 93 95 96 98 96 96 94 87 69 49 34 27 18 12 12 11 10 12 10 4 4 5 7 10 15 19 25 26 26
97 94 83 98 97 95 72 82 75 87 91 88 91 88 93 94 90 90 93 94 95 90 90 96 90 80 55 40 16 19 23 16 12 12 13 10 7 6 4 5 4 3 6 10 14 20 28 31 32
86 83 94 98 94 90 72 76 78 69 75 83 86 84 80 88 72 77 73 48 37 62 49 35 76 70 54 33 12 9 8 7 5 4 4 4 4 4 4 3 3 4 6 9 10 17 25 31 37
86 97 93 86 90 90 92 76 57 64 71 75 78 71 66 53 52 51 45 41 36 28 24 33 12 23 43 77 52 13 7 6 6 6 8 10 10 13 15 9 6 8 11 9 10 14 16 22 40
86 88 95 95 90 95 95 71 60 75 70 67 62 66 59 54 50 54 52 42 37 28 18 14 12 15 20 24 21 16 16 17 17 24 31 34 34 26 19 16 12 15 13 13 17 23 27 35 49

GFSSGP_700_rhum_123.txt.gz
RH
23 21 20 19 20 17 17 25 27 25 22 18 14 15 25 22 20 20 17 17 20 35 47 45 38 32 26 15 16 18 17 16 22 24 23 22 22 22 18 15 14 13 10 9 9 11 16 23 26
25 24 21 20 20 20 21 24 26 26 23 18 16 16 16 15 16 18 18 21 36 41 42 44 44 39 36 31 17 17 19 18 18 22 25 26 25 25 23 20 16 16 14 12 11 11 13 15 18
28 25 23 22 20 21 23 24 25 26 25 22 16 18 19 18 18 18 19 20 19 20 22 24 23 22 27 38 35 19 19 20 18 18 23 25 27 27 26 24 21 17 17 16 14 14 15 15 16
31 28 25 24 22 24 25 25 23 24 25 24 17 19 19 19 19 20 20 21 21 20 21 20 20 20 19 25 42 39 26 23 22 20 19 22 24 27 27 26 24 22 18 18 17 16 17 19 20
34 32 30 26 25 27 27 26 24 25 25 24 22 20 19 21 20 20 20 21 23 22 23 22 22 23 22 19 24 41 43 35 28 26 23 20 20 22 26 25 25 24 22 18 18 19 19 19 21
40 35 33 29 29 30 32 32 28 29 29 26 21 20 19 20 21 21 21 21 23 24 24 24 25 26 26 26 25 24 44 46 38 32 30 28 23 21 20 23 23 24 24 21 19 19 20 21 20
41 41 38 35 34 36 35 34 32 29 30 27 23 22 22 22 23 24 25 26 28 27 28 28 28 28 27 27 27 28 27 31 53 44 34 33 31 27 23 21 21 22 24 23 21 20 20 21 21
37 42 34 34 35 39 39 38 36 32 30 27 26 27 26 27 26 26 26 26 27 29 30 28 26 26 25 25 26 26 26 27 20 50 49 39 34 32 28 24 21 20 23 24 24 22 21 20 20
20 33 20 20 27 37 39 40 40 39 32 30 30 30 30 29 28 27 25 25 24 25 28 28 27 26 27 27 27 26 26 25 27 21 39 54 42 38 36 30 27 23 22 24 25 25 24 22 21
23 16 15 16 24 26 28 32 28 27 36 37 35 32 30 32 29 28 27 26 26 27 27 27 30 29 29 27 28 28 28 28 26 26 24 39 60 49 43 39 36 32 27 23 24 26 26 24 22
15 11 7 7 10 13 14 13 13 9 8 13 27 34 33 32 32 31 29 29 28 28 28 28 26 27 27 27 28 29 29 28 27 28 31 28 46 62 53 47 44 41 37 30 25 25 27 27 24
8 8 8 8 8 8 12 9 10 6 6 5 4 6 20 32 32 31 30 29 29 29 30 30 29 28 28 28 29 29 32 27 26 27 36 34 34 55 64 61 56 52 51 46 36 29 27 29 30
7 7 6 6 7 7 9 7 8 6 4 4 4 5 4 5 11 21 30 32 32 31 31 32 34 34 32 31 36 41 38 29 28 28 45 40 36 45 65 66 64 63 63 59 54 44 33 31 33
7 6 6 6 6 7 6 5 6 7 6 8 10 16 18 15 10 8 8 8 10 13 18 23 27 31 34 39 40 44 46 39 33 30 33 33 36 46 62 71 69 63 62 62 62 58 51 39 36
8 9 8 7 5 6 8 9 11 13 21 21 18 16 14 12 9 7 6 7 10 13 14 16 28 36 34 35 38 48 46 43 38 38 40 41 38 55 72 88 82 78 74 71 67 64 58 51 43
8 12 8 8 9 12 11 13 17 22 17 11 10 9 12 9 9 8 7 6 6 5 8 22 29 39 42 37 37 40 40 44 39 39 41 42 42 40 39 64 91 94 85 88 82 76 68 67 62
10 10 12 14 12 17 20 24 19 22 25 22 16 14 13 11 10 8 7 7 7 6 5 5 11 27 38 43 37 38 39 41 42 40 37 36 36 35 35 34 34 60 89 95 94 93 88 81 80
12 15 21 19 17 23 20 24 34 31 33 21 18 17 15 14 12 10 10 10 9 8 7 6 12 28 41 46 42 41 37 39 38 35 35 35 35 34 35 34 27 30 34 75 88 92 90 91 93
21 22 30 21 25 35 28 48 35 39 23 25 23 24 21 18 18 17 17 18 18 16 14 10 14 40 62 59 52 51 48 43 42 42 41 38 35 36 36 34 23 22 25 28 60 83 88 88 90
24 33 23 28 31 50 56 47 49 42 37 32 32 30 27 26 24 25 27 25 25 28 28 27 38 68 90 97 74 66 63 72 56 52 46 39 35 36 37 22 12 13 18 22 29 37 56 81 97
33 29 26 48 52 55 62 66 62 59 54 45 40 36 35 33 34 34 37 41 40 54 49 59 87 100 100 100 99 97 87 63 60 50 42 38 37 38 37 14 10 9 10 12 15 20 25 28 31
42 30 45 60 71 72 75 64 62 69 64 52 47 44 37 36 37 45 62 74 87 79 100 98 96 99 99 100 100 94 72 68 49 42 39 34 37 41 34 15 10 9 10 10 9 8 10 13 18
54 52 60 74 79 84 87 84 96 73 64 55 46 37 37 41 50 61 87 93 96 90 96 90 99 87 98 100 100 95 81 75 40 34 31 31 48 48 46 16 14 12 9 6 8 9 7 6 6
61 73 78 77 84 81 74 75 81 70 56 54 51 47 44 51 64 79 91 96 99 100 97 99 99 95 92 98 100 98 90 89 52 48 52 57 55 26 34 41 10 10 8 8 6 5 6 8 8
72 81 70 82 90 68 71 80 63 48 57 61 55 49 58 68 73 75 76 79 76 72 80 87 91 98 99 100 99 92 95 97 89 70 71 29 23 13 11 8 6 10 7 5 6 6 5 9 12
76 77 67 74 74 59 73 74 65 52 54 61 60 62 70 71 77 78 82 81 66 82 71 78 90 98 98 94 98 98 96 90 67 60 40 21 14 12 10 8 7 5 6 6 4 4 6 7 14
82 85 74 87 96 95 67 62 57 55 53 61 63 74 67 83 86 85 76 50 37 40 53 37 50 92 87 90 68 41 21 15 14 36 9 8 8 6 5 6 7 6 4 5 7 6 8 9 14
75 76 94 97 85 80 60 69 67 45 41 50 66 76 68 79 63 51 42 40 40 35 30 20 21 26 62 75 71 61 59 41 15 8 9 10 8 6 6 4 5 8 7 6 9 12 10 13 16
82 98 90 86 93 68 56 54 46 45 46 57 63 66 70 71 51 47 48 49 42 38 30 19 18 18 24 19 20 28 42 21 16 14 15 15 18 21 23 19 21 20 18 15 13 15 15 18 18
73 72 79 94 93 94 96 64 56 56 51 61 60 60 68 59 56 54 56 53 46 42 25 28 32 36 30 31 33 32 30 29 32 36 45 48 54 59 55 48 45 42 36 29 24 26 23 24 28

GFSSGP_700_rhum_129.txt.gz
RH
18 18 18 17 26 18 12 15 19 19 18 22 21 24 27 39 47 55 64 19 27 35 41 39 33 31 30 27 19 17 18 16 17 21 23 25 26 26 25 21 18 17 15 13 12 12 14 17 21
20 19 19 26 20 14 12 18 19 22 24 21 17 23 25 46 46 62 80 35 39 44 45 51 50 49 45 41 38 29 20 20 19 17 20 22 26 27 26 24 22 19 18 16 14 15 15 16 18
22 22 26 24 19 14 16 20 23 24 22 20 17 25 37 31 24 33 30 27 27 26 24 24 24 24 26 32 38 44 41 30 24 24 21 20 21 24 26 26 24 22 20 18 17 17 18 18 19
27 31 28 22 16 21 21 24 26 23 24 22 19 24 23 19 22 28 25 24 22 20 21 22 22 21 21 21 25 38 56 55 45 36 31 28 23 22 23 25 25 24 22 20 19 19 19 19 20
31 34 26 21 19 23 24 26 27 26 28 25 22 28 39 20 22 21 23 23 22 22 22 23 23 23 24 24 23 28 43 65 67 61 52 44 37 31 26 24 24 25 24 23 21 20 20 20 20
39 32 24 18 20 25 26 29 27 29 28 27 28 29 36 23 21 22 23 24 24 24 24 24 24 24 26 27 27 27 28 31 39 56 66 64 56 49 41 33 28 25 25 24 24 22 20 20 21
39 30 23 21 22 27 29 32 32 31 30 31 30 30 32 34 22 25 26 30 28 25 25 25 25 26 27 28 27 29 30 30 31 35 41 56 66 63 57 50 40 33 27 26 25 25 23 21 20
34 32 24 18 22 27 34 34 35 35 34 30 28 30 34 39 25 25 26 30 27 28 26 26 27 27 26 26 26 26 26 27 28 30 31 34 48 67 69 59 50 45 38 35 31 27 27 25 22
23 29 18 18 20 29 25 33 35 40 38 40 39 38 36 30 29 30 32 42 28 29 30 32 30 29 27 26 25 25 25 26 27 27 28 28 29 33 58 75 70 58 48 42 40 37 32 30 27
27 22 22 30 30 25 30 33 34 35 33 35 40 42 33 30 29 28 29 34 32 29 31 33 29 28 27 27 27 26 26 26 26 28 28 28 27 27 29 34 66 77 67 55 46 44 38 32 28
28 25 32 31 30 19 28 30 30 28 27 28 27 30 34 34 33 31 30 29 28 28 29 28 27 27 27 28 28 27 28 27 27 28 28 31 33 33 48 48 41 52 81 78 64 52 46 38 32
17 25 29 23 20 9 28 30 31 26 26 28 11 5 7 16 22 31 31 31 28 28 28 28 28 28 28 28 28 35 68 90 68 57 32 33 38 31 50 56 52 51 54 81 89 72 63 56 47
19 19 29 23 9 9 27 25 27 26 25 12 5 7 35 9 3 4 4 7 15 25 31 32 32 32 31 31 31 32 40 54 41 52 54 52 52 54 54 52 60 64 55 56 72 86 79 74 66
34 26 30 28 28 30 24 27 20 25 18 16 33 38 44 7 5 6 6 6 6 5 5 8 11 12 13 17 22 28 35 37 43 47 48 46 51 51 48 48 54 58 56 60 76 90 95 89 80
8 10 24 27 29 31 10 17 25 32 32 35 36 41 50 9 9 7 6 6 6 5 5 4 5 6 6 6 13 22 26 32 36 42 45 45 50 52 50 55 59 66 65 68 80 86 90 97 92
15 29 22 18 25 30 15 14 26 34 40 34 38 48 48 7 6 9 10 11 10 9 8 7 7 6 6 6 6 17 23 36 37 40 39 40 48 50 51 50 50 57 53 55 62 82 94 98 90
32 18 20 24 22 24 28 18 22 29 34 37 45 58 22 8 9 12 13 12 11 11 10 10 9 8 8 8 8 11 33 45 44 41 38 38 48 50 46 49 51 43 37 35 36 42 50 69 82
18 25 20 19 26 31 29 28 24 26 36 52 57 54 16 11 12 14 14 14 13 12 12 11 12 13 14 12 11 11 24 42 45 41 39 41 49 52 55 52 47 40 36 35 35 35 32 28 32
25 25 18 17 19 31 38 32 27 29 43 60 70 30 14 18 16 16 16 16 15 14 13 12 12 13 15 19 20 20 29 41 82 75 53 51 54 57 56 52 50 43 37 36 36 37 36 23 21
36 28 24 24 27 40 36 30 27 37 56 37 51 19 22 23 24 23 21 20 18 17 17 16 17 19 23 28 29 33 37 57 73 99 99 84 82 79 72 68 63 47 38 36 37 39 36 13 11
31 29 27 28 29 36 34 33 31 52 36 25 21 25 26 28 28 25 23 22 22 21 20 20 21 29 34 51 60 61 78 67 87 86 79 98 99 95 98 85 62 49 39 34 37 41 43 22 10
30 27 40 39 33 28 41 31 28 50 74 29 27 28 30 27 26 28 26 26 27 25 25 29 32 45 52 55 60 70 84 88 84 77 78 96 93 98 96 72 53 47 38 31 43 45 46 39 14
34 43 44 39 40 35 31 31 26 28 60 68 66 24 27 31 32 30 31 34 37 36 38 38 39 40 43 45 55 65 81 91 89 93 94 94 88 61 63 52 44 32 27 40 51 50 44 34 36
50 53 48 47 41 39 33 29 23 23 45 49 66 32 38 37 35 38 38 33 32 35 41 44 44 43 41 42 50 61 72 85 98 92 86 91 88 88 55 46 40 39 39 45 48 46 23 14 11
56 46 40 41 43 43 34 32 25 38 47 45 63 38 40 37 43 41 34 30 27 26 26 28 29 28 28 33 39 47 68 69 71 85 89 93 98 98 89 82 83 61 59 53 57 36 12 12 13
51 43 34 32 28 20 37 37 37 45 57 37 38 40 35 41 47 42 35 34 31 26 24 23 21 19 15 11 12 31 31 74 72 64 57 55 50 44 44 70 96 99 94 72 36 11 14 10 8
40 52 40 37 35 38 34 27 56 44 43 38 31 34 34 42 50 47 40 38 35 30 29 27 24 20 12 13 15 14 22 23 24 58 57 82 64 24 23 38 95 98 54 12 11 14 7 7 6
41 50 53 50 48 44 28 27 27 50 43 39 35 34 37 44 54 52 47 42 41 38 35 33 28 22 15 18 25 27 25 25 27 24 23 34 54 50 36 40 46 32 27 20 15 14 19 22 17
48 57 53 48 45 41 36 30 60 58 46 43 38 32 35 45 56 59 57 47 48 45 42 43 37 28 19 28 36 40 38 34 37 42 44 51 54 72 68 76 75 70 64 58 50 46 44 44 42
39 49 51 57 52 47 46 47 50 62 69 79 44 43 40 47 55 63 64 56 53 54 54 56 48 31 26 39 42 48 54 57 70 86 90 93 95 89 87 85 83 78 72 74 73 76 74 69 68

GFSSGP_700_rhum_132.txt.gz
RH
15 16 17 16 30 26 17 14 16 17 18 20 19 22 39 58 67 77 77 28 52 27 28 32 29 29 27 27 25 19 17 18 16 19 22 25 26 26 26 24 21 18 16 14 14 14 16 18 18
16 17 18 26 30 18 15 16 16 20 20 18 16 22 40 54 74 83 51 54 46 36 41 47 47 46 44 42 39 37 30 22 22 20 18 21 24 27 27 26 23 22 19 17 16 16 16 16 17
19 20 20 30 24 18 17 19 21 22 21 18 17 27 38 49 55 52 50 51 38 31 29 30 32 33 33 34 37 43 48 44 37 31 27 24 21 23 25 26 25 23 21 20 18 18 18 18 19
22 24 22 23 19 18 20 22 23 21 21 20 19 27 30 42 78 74 82 44 24 20 20 20 20 20 19 19 20 26 46 56 55 51 44 37 32 29 26 25 26 26 24 21 20 19 19 19 19
29 33 30 24 20 22 22 24 24 23 25 23 20 40 34 37 37 42 29 22 22 21 21 22 22 22 22 20 20 20 24 37 54 59 61 58 50 42 37 33 28 28 27 25 22 20 19 20 20
38 33 27 22 19 22 22 25 24 26 26 25 26 32 36 30 22 25 23 23 22 22 22 23 23 23 23 24 25 26 27 28 30 38 52 62 67 63 54 46 41 34 30 28 26 24 22 20 20
35 35 28 21 20 24 25 28 27 28 27 28 26 30 37 31 28 26 25 27 23 25 24 24 25 24 24 25 26 26 27 29 29 30 33 41 54 69 73 66 56 47 40 34 30 27 26 23 21
29 31 28 24 15 23 28 26 31 31 33 31 28 30 38 35 32 28 27 43 25 29 28 28 26 25 25 26 26 25 25 25 26 26 26 29 31 39 61 76 78 71 59 48 40 36 32 26 25
29 30 25 19 17 30 30 20 31 34 34 35 36 34 35 35 36 32 28 51 31 24 29 25 25 25 26 27 26 26 26 25 25 25 27 27 27 26 26 29 39 72 84 74 59 48 43 37 30
26 25 23 26 25 25 28 17 30 28 33 34 37 40 31 30 31 29 29 34 27 24 25 23 24 28 29 28 27 27 27 28 27 27 26 27 28 28 28 28 32 34 54 85 82 68 54 44 36
29 25 26 29 26 25 24 28 26 27 24 24 32 36 38 38 33 30 30 28 26 26 25 26 27 30 30 30 29 27 30 34 28 29 29 28 29 33 39 46 47 59 64 57 82 84 73 59 48
30 27 24 24 22 16 11 24 26 27 25 26 28 25 23 36 12 11 15 28 30 30 29 30 29 29 29 28 29 29 29 32 39 36 64 55 42 40 46 49 46 53 66 70 80 76 79 79 67
28 20 21 22 19 9 7 11 21 27 24 23 17 9 35 13 5 5 4 4 4 5 6 10 16 26 31 32 31 32 32 33 40 46 66 56 47 62 59 57 56 63 67 67 75 75 74 81 83
25 28 24 31 32 27 19 15 19 22 27 26 28 36 38 18 9 11 10 8 7 6 6 6 6 6 7 9 16 21 26 32 37 36 38 46 46 58 54 50 55 54 54 57 67 75 84 74 76
31 23 18 16 25 26 23 15 15 24 23 28 34 36 40 34 18 12 9 6 5 5 5 5 6 6 6 6 6 6 6 8 14 23 27 31 37 50 54 54 54 50 47 50 61 77 89 90 86
28 23 24 19 24 28 20 17 18 25 28 29 32 36 45 38 17 9 6 8 10 9 8 8 7 7 7 6 6 6 6 7 10 23 29 33 40 45 53 49 51 54 55 53 55 66 75 87 98
31 21 20 20 21 24 26 20 23 28 33 35 32 40 53 43 12 10 11 11 11 11 11 9 9 8 7 6 7 7 7 6 6 10 26 92 59 49 54 50 44 52 50 52 53 53 50 49 59
19 23 22 17 24 25 24 23 21 22 23 30 36 53 59 43 12 11 12 14 13 14 13 14 14 12 10 9 9 8 9 10 8 9 33 52 90 97 58 56 58 58 52 48 47 37 35 35 36
19 21 21 18 18 24 27 26 29 30 23 29 44 64 63 33 15 14 15 14 14 13 13 13 12 13 13 12 12 12 12 14 14 14 20 76 77 64 91 58 63 63 66 60 51 40 36 36 37
27 27 26 23 18 18 24 28 30 28 24 33 53 66 53 32 25 18 19 15 15 15 14 14 15 14 14 15 16 17 20 18 25 24 32 51 74 100 100 96 91 85 75 74 69 53 39 36 36
30 31 27 22 21 26 29 32 30 28 29 41 40 52 26 30 31 24 19 19 19 18 17 15 16 18 22 26 31 36 34 36 38 32 42 65 74 84 89 98 89 100 95 92 83 56 42 36 37
33 28 25 24 29 28 24 28 25 32 33 41 32 31 25 24 26 25 26 23 21 21 22 21 22 24 27 32 37 40 37 45 48 52 61 67 78 82 79 78 89 98 97 95 68 54 42 32 41
30 28 33 31 36 33 28 27 25 24 46 55 43 28 22 22 24 23 25 25 26 27 29 27 25 27 30 35 36 36 40 47 51 63 78 75 72 78 80 96 90 77 71 71 49 41 31 30 47
28 38 42 40 36 40 33 30 26 24 28 63 59 42 24 24 27 30 29 30 32 30 26 22 20 19 18 16 15 15 20 33 44 57 60 64 73 82 81 87 89 85 68 62 71 44 35 41 47
37 50 43 43 42 43 31 29 29 31 39 48 60 66 36 26 30 32 35 37 33 29 27 26 24 23 20 16 12 8 7 7 17 32 36 54 62 65 73 84 90 92 89 87 73 49 52 52 56
46 48 35 39 41 31 25 32 31 31 41 47 53 48 32 25 25 30 39 40 35 35 33 30 28 25 22 18 13 9 8 9 8 11 26 23 22 43 64 46 27 20 42 61 64 77 79 70 69
42 44 39 36 36 42 35 29 46 44 41 43 39 35 25 24 24 32 40 42 42 39 37 35 31 29 27 22 16 11 11 17 22 21 18 20 24 19 31 67 68 48 43 73 96 88 78 81 63
38 43 48 44 52 51 32 28 26 42 52 45 38 30 31 22 20 34 38 41 46 42 41 42 36 36 35 29 16 13 17 24 29 32 30 29 30 36 40 48 45 44 66 85 58 43 35 32 18
44 41 45 49 47 42 42 35 50 56 55 48 40 40 38 28 28 32 41 45 49 47 45 48 44 42 42 36 18 19 27 30 40 47 50 66 77 82 87 89 89 93 84 84 77 68 66 53 48
36 37 40 54 52 48 51 53 49 58 65 70 54 58 41 44 35 30 46 48 50 53 51 52 56 54 51 41 22 29 35 37 54 68 78 89 98 100 98 86 80 81 82 83 86 90 81 85 86

GFSSGP_700_rhum_138.txt.gz
RH
13 12 13 13 15 23 24 22 21 18 18 26 16 14 16 40 52 60 65 71 71 45 29 28 25 24 23 23 23 22 20 18 17 18 21 25 27 27 26 24 22 19 16 15 15 15 14 17 16
12 12 14 15 21 22 24 22 19 19 19 23 17 15 19 29 58 55 58 64 51 42 36 32 30 27 29 28 30 34 34 31 26 20 18 19 22 26 27 27 26 24 21 18 17 16 16 17 18
12 14 15 17 23 23 22 22 18 18 20 18 22 37 24 19 54 54 49 41 37 46 41 38 35 35 39 39 37 36 35 36 37 37 30 23 21 20 22 25 27 26 24 22 20 18 18 18 19
13 15 17 20 24 23 24 22 20 17 17 21 23 28 33 44 52 48 40 48 57 55 52 50 47 42 36 30 26 23 23 26 30 38 47 47 37 29 26 24 23 25 26 25 23 22 20 19 19
16 17 20 19 25 26 23 23 22 21 20 23 26 38 51 84 53 43 40 38 35 30 27 23 21 21 21 21 21 21 21 21 21 25 34 42 52 52 47 42 34 30 26 25 25 24 22 21 20
20 20 26 28 29 28 25 23 23 24 24 28 30 28 47 54 94 69 37 27 25 23 21 21 21 22 22 22 22 23 23 23 23 24 24 24 26 29 34 41 51 51 44 37 32 28 26 24 22
22 23 27 30 29 27 25 24 23 23 27 31 30 32 38 40 37 32 29 24 24 24 23 22 23 23 23 23 23 23 24 26 26 25 26 26 26 27 28 27 28 35 52 58 52 43 37 31 27
22 30 29 33 31 28 26 25 25 23 26 31 31 31 34 36 32 28 27 25 22 22 24 24 23 24 24 24 24 25 24 24 24 25 26 26 26 26 27 27 27 28 29 35 51 60 58 49 40
22 28 24 30 28 30 29 28 27 27 26 32 32 34 32 33 36 34 31 27 26 26 25 25 27 28 26 26 25 26 27 30 33 26 25 26 26 27 27 28 28 28 29 29 29 32 45 55 60
22 23 28 30 30 32 31 29 28 28 26 26 32 36 34 35 36 39 35 31 28 28 29 29 28 28 28 28 28 28 28 29 30 33 36 38 29 28 28 28 28 28 29 29 31 36 41 45 49
19 13 24 28 30 30 30 32 32 31 35 13 12 26 26 30 33 36 38 33 28 26 27 32 32 30 30 29 29 29 30 30 31 31 32 33 34 51 54 52 34 34 37 35 39 45 46 57 60
25 20 27 30 28 27 27 28 30 31 27 25 17 22 20 15 18 25 28 25 16 14 12 9 8 13 23 30 31 32 31 30 30 30 30 32 35 36 39 51 68 56 62 54 53 50 56 60 71
39 30 30 30 27 24 25 26 25 22 24 24 24 26 22 20 18 20 18 12 9 12 11 9 7 6 6 6 5 7 13 21 29 31 32 34 35 35 38 35 51 68 69 56 50 66 58 63 79
34 31 30 30 28 22 22 19 21 26 23 20 22 23 24 23 20 14 11 10 16 18 11 8 6 5 5 5 6 6 6 6 7 9 13 18 26 32 34 49 46 56 61 50 43 46 52 51 56
31 32 26 27 26 25 24 17 14 13 18 17 17 16 15 16 14 15 15 17 19 16 8 6 6 7 7 7 7 7 7 7 7 7 7 8 10 14 16 22 22 36 36 39 39 52 58 54 51
25 30 27 23 24 25 22 14 9 16 19 16 16 18 19 20 18 16 19 22 22 12 8 8 8 7 8 8 8 8 7 7 7 7 7 7 7 10 18 20 21 16 18 23 40 55 67 58 50
19 22 22 18 14 15 21 15 9 20 19 18 19 21 23 21 18 23 24 24 18 9 8 9 9 9 9 9 9 9 8 8 8 8 8 8 9 10 10 12 20 28 30 16 22 72 62 60 55
13 24 16 11 8 16 18 16 20 20 19 20 22 23 24 26 24 26 26 26 27 12 11 12 11 10 10 10 10 10 9 10 9 9 9 9 10 11 11 14 17 22 33 26 71 57 76 72 65
12 16 14 8 20 27 24 21 24 22 26 25 26 26 28 28 29 28 28 29 27 14 13 12 12 12 12 13 12 11 10 10 10 10 9 10 10 11 12 13 15 19 30 34 39 60 61 60 75
12 12 14 11 19 27 26 24 26 24 22 25 24 29 29 25 27 29 31 30 28 17 13 14 14 14 14 14 16 16 16 16 15 15 15 18 19 18 18 18 21 26 30 35 55 77 82 57 57
12 23 22 27 22 30 28 27 25 23 24 28 28 27 30 31 31 30 30 30 30 15 13 14 15 16 18 18 19 20 19 18 17 16 15 14 14 16 20 23 25 28 36 43 50 63 84 84 82
20 13 27 33 33 34 30 31 26 26 26 26 26 26 28 31 30 29 30 35 25 13 14 15 16 18 20 22 21 20 20 19 19 18 18 16 15 14 13 13 17 28 35 46 56 59 66 70 76
37 26 35 32 32 31 32 32 28 26 28 27 26 25 27 27 26 28 38 35 17 16 15 17 20 23 25 27 27 27 26 25 23 22 20 18 16 15 14 12 11 14 24 35 46 55 71 73 77
36 38 35 32 32 42 35 32 26 28 20 22 22 22 27 30 29 30 40 26 25 22 15 18 23 27 30 31 27 25 24 23 23 23 22 20 18 17 14 10 6 6 18 25 22 32 52 60 78
34 34 43 55 58 45 33 36 26 27 24 20 16 19 24 28 30 39 40 29 26 19 18 22 26 30 33 31 30 30 29 28 28 27 25 22 18 15 11 8 8 7 10 26 18 34 48 35 46
33 33 41 54 58 37 34 36 32 26 22 21 24 30 31 31 37 44 36 33 23 25 19 22 27 32 37 36 37 38 37 36 33 32 29 23 15 11 10 10 10 11 12 16 18 29 62 66 60
36 35 32 37 47 57 38 35 34 30 30 29 32 30 36 43 45 40 37 27 25 21 18 26 33 39 42 41 44 46 47 43 38 36 31 21 14 14 15 16 16 20 28 41 55 57 47 61 86
38 35 40 42 52 51 38 37 36 39 38 38 35 35 35 46 50 42 40 26 25 21 22 32 39 43 47 47 47 51 54 52 44 40 31 20 19 24 25 26 38 64 73 68 75 81 80 77 92
39 40 40 39 41 47 50 43 34 32 32 34 39 38 39 46 57 51 29 30 27 27 27 36 46 50 53 55 54 57 61 58 50 40 26 20 31 38 48 54 74 91 80 72 73 77 88 93 94
41 42 43 46 51 47 44 43 42 38 38 43 44 46 55 65 53 33 35 34 37 28 24 33 36 49 62 63 64 65 69 62 50 33 24 26 49 54 65 67 81 92 94 80 48 41 42 46 60